[[{"header":{"parameterUnit":"m.s-1","parameterCategory":1,"la1":30.6,"la2":29.2853,"lo1":-89.7004,"lo2":-87.6739,"dy":0.0162,"dx":0.0183,"nx":112,"ny":82,"refTime":"2026-03-09T12:00:00:Z","depth":0,"parameterNumber":2,"parameterNumberName":"U-component_of_WINDS"},"data":[0.0,0.0,0.0,0.0,0.0,0.0,0.0,0.0,0.0,0.0,0.0,0.0,0.0,0.0,0.0,0.0,0.0,0.0,0.0,0.0,0.0,0.0,0.0,0.0,0.0,0.0,0.0,0.0,0.0,0.0,0.0,0.0,0.0,0.0,0.0,0.0,0.0,0.0,0.0,0.0,0.0,0.0,0.0,0.0,0.0,0.0,0.0,0.0,0.0,0.0,0.0,0.0,0.0,0.0,0.0,0.0,0.0,0.0,0.0,0.0,0.0,0.0,0.0,0.0,0.0,0.0,0.0,0.0,0.0,0.0,0.0,0.0,0.0,0.0,0.0,0.0,0.0,0.0,0.0,0.0,0.0,0.0,0.0,0.0,0.0,0.0,0.0,0.0,0.0,0.0,0.0,4.4123,5.2755,5.7849,5.7087,5.4983,5.0384,4.2536,0.0,0.0,0.0,0.0,0.0,0.0,0.0,0.0,0.0,0.0,0.0,0.0,0.0,0.0,0.0,0.0,0.0,0.0,0.0,0.0,0.0,0.0,0.0,0.0,0.0,0.0,0.0,0.0,0.0,0.0,0.0,0.0,0.0,0.0,0.0,0.0,0.0,0.0,0.0,0.0,0.0,0.0,0.0,0.0,0.0,0.0,0.0,0.0,0.0,0.0,0.0,0.0,0.0,0.0,0.0,0.0,0.0,0.0,0.0,0.0,0.0,0.0,0.0,0.0,0.0,0.0,0.0,0.0,0.0,0.0,0.0,0.0,0.0,0.0,0.0,0.0,0.0,0.0,0.0,0.0,0.0,0.0,0.0,0.0,0.0,0.0,0.0,0.0,0.0,0.0,0.0,0.0,0.0,0.0,0.0,0.0,0.0,0.0,0.0,0.0,0.0,0.0,0.0,0.0,4.0067,5.1657,5.6966,5.9363,5.8634,5.5581,5.0825,4.4067,0.0,0.0,0.0,0.0,0.0,0.0,0.0,0.0,0.0,0.0,0.0,0.0,0.0,0.0,0.0,0.0,0.0,0.0,0.0,0.0,0.0,0.0,0.0,0.0,0.0,0.0,0.0,0.0,0.0,0.0,0.0,0.0,0.0,0.0,0.0,0.0,0.0,0.0,0.0,0.0,0.0,0.0,0.0,0.0,0.0,0.0,0.0,0.0,0.0,0.0,0.0,0.0,0.0,0.0,0.0,0.0,0.0,0.0,0.0,0.0,0.0,0.0,0.0,0.0,0.0,0.0,0.0,0.0,0.0,0.0,0.0,0.0,0.0,0.0,0.0,0.0,0.0,0.0,0.0,0.0,0.0,0.0,0.0,0.0,0.0,0.0,0.0,0.0,0.0,0.0,0.0,0.0,0.0,0.0,0.0,0.0,0.0,0.0,0.0,0.0,0.0,0.0,0.0,3.8667,4.4623,5.5245,5.8542,5.986,5.9529,5.6302,5.1516,4.4953,3.8799,0.0,0.0,0.0,0.0,0.0,0.0,0.0,0.0,0.0,0.0,0.0,0.0,0.0,0.0,0.0,0.0,0.0,0.0,0.0,0.0,0.0,0.0,0.0,0.0,0.0,0.0,0.0,0.0,0.0,0.0,0.0,0.0,0.0,0.0,0.0,0.0,0.0,0.0,0.0,0.0,0.0,0.0,0.0,0.0,0.0,0.0,0.0,0.0,0.0,0.0,0.0,0.0,0.0,0.0,0.0,0.0,0.0,0.0,0.0,0.0,0.0,0.0,0.0,0.0,0.0,0.0,0.0,0.0,0.0,0.0,0.0,0.0,0.0,0.0,0.0,0.0,0.0,0.0,0.0,0.0,0.0,0.0,0.0,0.0,0.0,0.0,0.0,0.0,0.0,0.0,0.0,0.0,0.0,0.0,0.0,0.0,0.0,0.0,0.0,0.0,0.0,0.0,4.5098,4.9876,5.7272,5.9396,6.0191,6.0016,5.6317,5.1424,4.5364,3.8445,0.0,0.0,0.0,0.0,0.0,0.0,0.0,0.0,0.0,0.0,0.0,0.0,0.0,0.0,0.0,0.0,0.0,0.0,0.0,0.0,0.0,0.0,0.0,0.0,0.0,0.0,0.0,0.0,0.0,0.0,0.0,0.0,0.0,0.0,0.0,0.0,0.0,0.0,0.0,0.0,0.0,0.0,0.0,0.0,0.0,0.0,0.0,0.0,0.0,0.0,0.0,0.0,0.0,0.0,0.0,0.0,0.0,0.0,0.0,0.0,0.0,0.0,0.0,0.0,0.0,0.0,0.0,0.0,0.0,0.0,0.0,0.0,0.0,0.0,0.0,0.0,0.0,0.0,0.0,0.0,0.0,0.0,0.0,0.0,0.0,0.0,0.0,0.0,0.0,0.0,0.0,0.0,0.0,0.0,0.0,0.0,0.0,0.0,0.0,0.0,0.0,0.0,4.797,5.4551,5.8422,6.0158,6.0755,6.0059,5.4852,4.9751,4.5264,3.6981,0.0,0.0,0.0,0.0,0.0,0.0,0.0,0.0,0.0,0.0,0.0,0.0,0.0,0.0,0.0,0.0,0.0,0.0,0.0,0.0,0.0,0.0,0.0,0.0,0.0,0.0,0.0,0.0,0.0,0.0,0.0,0.0,0.0,0.0,0.0,0.0,0.0,0.0,0.0,0.0,0.0,0.0,0.0,0.0,0.0,0.0,0.0,0.0,0.0,0.0,0.0,0.0,0.0,0.0,0.0,0.0,0.0,0.0,0.0,0.0,0.0,0.0,0.0,0.0,0.0,0.0,0.0,0.0,0.0,0.0,0.0,0.0,0.0,0.0,0.0,0.0,0.0,0.0,0.0,0.0,0.0,0.0,0.0,0.0,0.0,0.0,0.0,0.0,0.0,0.0,0.0,0.0,0.0,0.0,0.0,0.0,0.0,0.0,0.0,0.0,0.0,0.0,4.7194,5.3515,0.0,6.0479,6.0976,6.0711,5.5504,5.0401,4.5965,0.0,0.0,0.0,0.0,0.0,0.0,0.0,0.0,0.0,0.0,0.0,0.0,0.0,0.0,0.0,0.0,0.0,0.0,0.0,0.0,0.0,0.0,0.0,0.0,0.0,0.0,0.0,0.0,0.0,0.0,0.0,0.0,0.0,0.0,0.0,0.0,0.0,0.0,0.0,0.0,0.0,0.0,0.0,0.0,0.0,0.0,0.0,0.0,0.0,0.0,0.0,0.0,0.0,0.0,0.0,0.0,0.0,0.0,0.0,0.0,0.0,0.0,0.0,0.0,0.0,0.0,0.0,0.0,0.0,0.0,0.0,0.0,0.0,0.0,0.0,0.0,0.0,0.0,0.0,0.0,0.0,0.0,0.0,0.0,0.0,0.0,0.0,0.0,0.0,0.0,0.0,0.0,0.0,0.0,0.0,0.0,0.0,0.0,0.0,0.0,0.0,0.0,4.1261,4.795,5.4244,0.0,6.081,6.1175,6.1417,5.527,4.9775,4.6006,0.0,0.0,0.0,0.0,0.0,0.0,0.0,0.0,0.0,0.0,0.0,0.0,0.0,0.0,0.0,0.0,0.0,0.0,0.0,0.0,0.0,0.0,0.0,0.0,0.0,0.0,0.0,0.0,0.0,0.0,0.0,0.0,0.0,0.0,0.0,0.0,0.0,0.0,0.0,0.0,0.0,0.0,0.0,0.0,0.0,0.0,0.0,0.0,0.0,0.0,0.0,0.0,0.0,0.0,0.0,0.0,0.0,0.0,0.0,0.0,0.0,0.0,0.0,0.0,0.0,0.0,0.0,0.0,0.0,0.0,0.0,0.0,0.0,0.0,0.0,0.0,0.0,0.0,0.0,0.0,0.0,0.0,0.0,0.0,0.0,0.0,0.0,0.0,0.0,0.0,0.0,0.0,0.0,0.0,0.0,0.0,0.0,0.0,0.0,0.0,0.0,0.0,4.2355,5.0937,5.7839,6.081,6.1109,6.1417,6.2144,5.3778,4.7497,0.0,0.0,0.0,0.0,0.0,0.0,0.0,0.0,0.0,0.0,0.0,0.0,0.0,0.0,0.0,0.0,0.0,0.0,0.0,0.0,0.0,0.0,0.0,0.0,0.0,0.0,0.0,0.0,0.0,0.0,0.0,0.0,0.0,0.0,0.0,0.0,0.0,0.0,0.0,0.0,0.0,0.0,0.0,0.0,0.0,0.0,0.0,0.0,0.0,0.0,0.0,0.0,0.0,0.0,0.0,0.0,0.0,0.0,0.0,0.0,0.0,0.0,0.0,0.0,0.0,0.0,0.0,0.0,0.0,0.0,0.0,0.0,0.0,0.0,0.0,0.0,0.0,0.0,0.0,0.0,0.0,0.0,0.0,0.0,0.0,0.0,0.0,0.0,0.0,0.0,0.0,0.0,0.0,0.0,0.0,0.0,0.0,0.0,0.0,0.0,0.0,0.0,0.0,4.3094,5.2033,5.9013,6.1583,6.2322,6.2532,6.2244,5.6847,5.1038,4.5364,0.0,0.0,0.0,0.0,0.0,0.0,0.0,0.0,0.0,0.0,0.0,0.0,0.0,0.0,0.0,0.0,0.0,0.0,0.0,0.0,0.0,0.0,0.0,0.0,0.0,0.0,0.0,0.0,0.0,0.0,0.0,0.0,0.0,0.0,0.0,0.0,0.0,0.0,0.0,0.0,0.0,0.0,0.0,0.0,0.0,0.0,0.0,0.0,0.0,0.0,0.0,0.0,0.0,0.0,0.0,0.0,0.0,0.0,0.0,0.0,0.0,0.0,0.0,0.0,0.0,0.0,0.0,0.0,0.0,0.0,0.0,0.0,0.0,0.0,0.0,0.0,0.0,0.0,0.0,0.0,0.0,0.0,0.0,0.0,0.0,0.0,0.0,0.0,0.0,0.0,0.0,0.0,0.0,0.0,0.0,0.0,0.0,0.0,0.0,0.0,0.0,0.0,4.4201,5.2955,5.9826,6.2786,6.3194,6.3227,6.3095,5.8519,5.2881,4.6283,0.0,0.0,0.0,0.0,0.0,0.0,0.0,0.0,0.0,0.0,0.0,0.0,0.0,0.0,0.0,0.0,0.0,0.0,0.0,0.0,0.0,0.0,0.0,0.0,0.0,0.0,0.0,0.0,0.0,0.0,0.0,0.0,0.0,0.0,0.0,0.0,0.0,0.0,0.0,0.0,0.0,0.0,0.0,0.0,0.0,0.0,0.0,0.0,0.0,0.0,0.0,0.0,0.0,0.0,0.0,0.0,0.0,0.0,0.0,0.0,0.0,0.0,0.0,0.0,0.0,0.0,0.0,0.0,0.0,0.0,0.0,0.0,0.0,0.0,0.0,0.0,0.0,0.0,0.0,0.0,0.0,0.0,0.0,0.0,0.0,0.0,0.0,0.0,0.0,0.0,0.0,0.0,0.0,0.0,0.0,0.0,0.0,0.0,0.0,0.0,0.0,0.0,4.5396,5.3603,6.0343,6.3881,6.3726,6.3605,6.4277,5.9337,5.3712,4.7928,0.0,0.0,0.0,0.0,0.0,0.0,0.0,0.0,0.0,0.0,0.0,0.0,0.0,0.0,0.0,0.0,0.0,0.0,0.0,0.0,0.0,0.0,0.0,0.0,0.0,0.0,0.0,0.0,0.0,0.0,0.0,0.0,0.0,0.0,0.0,0.0,0.0,0.0,0.0,0.0,0.0,0.0,0.0,0.0,0.0,0.0,0.0,0.0,0.0,0.0,0.0,0.0,0.0,0.0,0.0,0.0,0.0,0.0,0.0,0.0,3.5947,0.0,0.0,0.0,0.0,0.0,0.0,0.0,0.0,0.0,0.0,0.0,0.0,0.0,0.0,0.0,0.0,0.0,0.0,0.0,0.0,0.0,0.0,0.0,0.0,0.0,0.0,0.0,0.0,0.0,0.0,0.0,0.0,0.0,0.0,0.0,0.0,0.0,0.0,0.0,0.0,0.0,4.4952,5.372,6.0445,6.2875,6.3526,6.3785,6.3777,6.0913,5.6592,5.0622,0.0,0.0,0.0,0.0,0.0,0.0,0.0,0.0,0.0,0.0,0.0,0.0,0.0,0.0,0.0,0.0,0.0,0.0,0.0,0.0,0.0,0.0,0.0,0.0,0.0,0.0,0.0,0.0,0.0,0.0,0.0,0.0,0.0,0.0,0.0,0.0,0.0,0.0,0.0,0.0,0.0,0.0,0.0,0.0,0.0,0.0,0.0,0.0,0.0,0.0,0.0,0.0,0.0,0.0,0.0,0.0,0.0,0.0,0.0,0.0,0.0,3.9328,0.0,0.0,0.0,0.0,0.0,0.0,0.0,0.0,0.0,0.0,0.0,0.0,0.0,0.0,0.0,0.0,0.0,0.0,0.0,0.0,0.0,0.0,0.0,0.0,0.0,0.0,0.0,0.0,0.0,0.0,0.0,0.0,0.0,0.0,0.0,0.0,0.0,0.0,0.0,0.0,4.5837,5.4225,6.0505,6.2631,6.3473,6.387,6.3735,6.1849,5.847,5.3339,4.8306,0.0,0.0,0.0,0.0,0.0,0.0,0.0,0.0,0.0,0.0,0.0,0.0,0.0,0.0,0.0,0.0,0.0,0.0,0.0,0.0,0.0,0.0,0.0,0.0,0.0,0.0,0.0,0.0,0.0,0.0,0.0,0.0,0.0,0.0,0.0,0.0,0.0,0.0,0.0,0.0,0.0,0.0,0.0,0.0,0.0,0.0,0.0,0.0,0.0,0.0,0.0,0.0,0.0,5.2942,5.2329,5.0083,5.0041,5.1602,5.4124,5.0094,4.8289,4.7725,0.0,0.0,0.0,0.0,0.0,0.0,0.0,0.0,0.0,0.0,0.0,0.0,0.0,0.0,0.0,0.0,0.0,0.0,0.0,0.0,0.0,0.0,0.0,0.0,0.0,4.7664,4.7291,0.0,0.0,0.0,0.0,0.0,0.0,0.0,0.0,0.0,0.0,0.0,0.0,4.6902,5.4523,6.0234,6.2304,6.3205,6.3599,6.3471,6.2183,5.9664,5.5791,5.1325,4.6845,0.0,0.0,0.0,0.0,0.0,0.0,0.0,0.0,0.0,0.0,0.0,0.0,0.0,0.0,0.0,0.0,0.0,0.0,0.0,0.0,0.0,0.0,0.0,0.0,0.0,0.0,0.0,0.0,0.0,0.0,0.0,0.0,3.2376,3.4365,0.0,0.0,0.0,0.0,0.0,0.0,0.0,0.0,0.0,0.0,0.0,0.0,0.0,4.4228,4.7497,5.1001,5.3681,5.5525,5.8089,5.9139,5.8842,5.9424,6.0278,6.1295,6.1262,0.0,5.1699,4.9019,0.0,0.0,0.0,0.0,0.0,0.0,0.0,0.0,0.0,0.0,0.0,0.0,0.0,0.0,0.0,0.0,0.0,0.0,0.0,0.0,0.0,0.0,5.2641,5.2943,5.3512,5.3427,0.0,4.5206,3.9074,3.6178,0.0,0.0,0.0,0.0,0.0,0.0,0.0,0.0,4.6737,5.3851,5.9125,6.0806,6.1959,6.2395,6.1866,6.1388,6.0021,5.7447,5.459,5.1552,4.8291,4.3032,0.0,0.0,0.0,0.0,0.0,0.0,0.0,0.0,0.0,0.0,0.0,0.0,0.0,0.0,0.0,0.0,0.0,0.0,0.0,0.0,0.0,0.0,0.0,0.0,0.0,0.0,0.0,0.0,0.0,3.1478,3.4836,3.5424,3.5892,3.4781,0.0,0.0,0.0,0.0,0.0,0.0,0.0,0.0,0.0,4.5189,4.7474,5.0241,5.3572,5.5826,5.7717,5.9307,6.0532,6.1566,6.2401,6.2117,6.242,6.3113,6.3005,6.1468,5.8818,5.5453,5.1244,4.6664,0.0,0.0,0.0,0.0,4.3704,4.4134,4.7051,4.8124,0.0,0.0,0.0,0.0,0.0,0.0,0.0,0.0,0.0,0.0,0.0,0.0,0.0,5.7464,5.834,5.8227,5.6402,5.2925,4.8392,0.0,4.0319,3.7938,3.3054,0.0,0.0,0.0,0.0,0.0,4.7896,5.376,5.7942,5.8997,5.9949,6.065,6.1018,6.0215,5.9484,5.8994,5.665,5.4646,5.3112,4.8393,4.4181,0.0,0.0,0.0,0.0,0.0,0.0,0.0,0.0,0.0,0.0,0.0,0.0,0.0,0.0,0.0,0.0,0.0,0.0,0.0,0.0,0.0,0.0,0.0,0.0,0.0,0.0,0.0,0.0,3.4691,3.7781,3.7891,3.9686,3.9093,0.0,0.0,0.0,0.0,0.0,0.0,4.1306,4.39,4.69,5.0314,5.288,5.5569,5.8438,5.968,6.1056,6.2594,6.2775,6.3509,6.4735,6.398,6.3964,6.4459,6.4102,6.4306,6.4597,6.0477,5.6884,5.3686,5.1131,4.9101,4.7902,5.01,5.0948,5.1481,5.4703,5.5735,5.5479,5.4708,0.0,5.0237,4.8117,0.0,0.0,0.0,0.0,4.9571,5.4172,5.5958,5.7291,6.0121,6.1052,6.0705,5.8688,5.8043,5.5616,0.0,4.5798,4.3256,3.7746,0.0,0.0,0.0,0.0,4.5686,4.9494,5.4032,5.7123,5.7657,5.8492,5.9222,5.9751,5.897,5.8639,5.9159,5.7359,5.6323,5.6469,5.243,4.8961,4.6364,0.0,0.0,0.0,0.0,0.0,0.0,0.0,0.0,0.0,0.0,0.0,0.0,0.0,0.0,0.0,0.0,0.0,0.0,0.0,0.0,0.0,0.0,0.0,0.0,0.0,0.0,0.0,0.0,0.0,4.4779,4.5061,0.0,0.0,0.0,0.0,3.9608,4.2174,4.4708,4.6977,4.9646,5.2647,5.6065,5.7665,5.9579,6.182,6.3308,6.4366,6.5014,6.5655,6.6392,6.7121,6.7076,6.7062,6.7139,6.7828,6.7729,6.6849,6.3265,6.0896,5.9277,5.682,5.4892,5.3768,5.6018,5.7038,5.7704,6.0997,6.1546,6.1066,6.2594,5.9921,5.5967,5.5175,5.1897,0.0,0.0,5.3755,5.4812,5.8389,5.9535,6.0001,6.0878,6.0432,5.9736,5.9557,5.9478,5.7975,0.0,5.1319,4.9652,4.607,0.0,4.4769,4.4259,4.6319,4.8805,5.126,5.4696,5.6997,5.7209,5.8283,5.8559,5.7467,5.7703,5.7676,5.7083,5.6169,5.6303,5.7744,5.4401,5.1853,5.0448,4.5413,0.0,0.0,0.0,0.0,0.0,0.0,0.0,0.0,0.0,0.0,0.0,0.0,0.0,0.0,0.0,0.0,0.0,0.0,0.0,0.0,0.0,0.0,0.0,0.0,0.0,0.0,0.0,0.0,4.4333,4.6534,0.0,4.3678,4.3742,4.4298,4.508,4.7655,4.9811,5.127,5.3782,5.594,5.764,5.8962,6.0406,6.2007,6.2565,6.3131,6.3782,6.446,6.4905,6.519,6.519,6.5408,6.5801,6.5198,6.5429,6.6141,6.4443,6.3651,6.3453,6.2891,6.1958,6.1067,6.2311,6.2837,6.3177,6.4997,6.498,6.4064,6.3537,6.1794,5.9697,5.9002,5.7668,5.6701,5.8047,5.8623,5.9172,6.0527,6.0708,6.0567,6.0837,6.0829,6.0467,5.9498,5.9457,5.8685,5.5563,5.3526,5.1247,4.8003,4.6404,4.5472,4.5244,4.6992,4.9274,5.1871,5.403,5.5638,5.6591,5.7453,5.7773,5.7246,5.7037,5.6938,5.6963,5.5982,5.5852,5.6827,5.5227,5.3693,5.2391,4.8483,4.3224,0.0,0.0,0.0,0.0,0.0,0.0,0.0,0.0,0.0,0.0,0.0,0.0,0.0,0.0,0.0,0.0,0.0,0.0,0.0,0.0,0.0,0.0,0.0,0.0,0.0,0.0,4.4459,4.5266,4.8308,4.9254,4.6461,4.7635,4.8868,4.9666,5.1949,5.3742,5.4757,5.6751,5.8313,5.9207,6.0032,6.1054,6.2336,6.2554,6.2974,6.3643,6.4517,6.4925,6.4925,6.4925,6.5204,6.556,6.4659,6.4944,6.6024,6.5532,6.5561,6.5878,6.5797,6.5497,6.5156,6.5196,6.5625,6.6362,6.7147,6.7177,6.6576,6.4786,6.3787,6.3073,6.1822,6.1236,6.0939,6.0821,6.0637,6.0635,6.1168,6.0869,6.0379,6.0265,6.018,5.9911,5.9159,5.9158,5.878,5.692,5.5125,5.2989,5.0134,4.8556,4.7594,4.7242,4.8288,4.9845,5.1864,5.3267,5.4443,5.5335,5.6217,5.6707,5.6623,5.5907,5.5606,5.6007,5.412,5.3439,5.4414,5.3326,5.2524,5.2107,4.8441,4.3903,3.8533,0.0,0.0,0.0,0.0,0.0,0.0,0.0,0.0,0.0,0.0,0.0,0.0,0.0,0.0,0.0,0.0,0.0,0.0,0.0,0.0,0.0,0.0,0.0,3.9135,4.3864,4.7455,4.8275,5.0683,5.1751,5.0427,5.154,5.2619,5.3228,5.4955,5.6436,5.7437,5.8615,5.9824,6.1103,6.1142,6.1768,6.3001,6.3625,6.4241,6.491,6.6188,6.6784,6.6784,6.6784,6.6784,6.6801,6.6768,6.6751,6.675,6.6624,6.6543,6.6427,6.5366,6.5301,6.567,6.4513,6.5355,6.7125,6.7444,6.8148,6.8593,6.6671,6.6141,6.591,6.3802,6.2387,6.1383,6.0767,5.9816,5.9219,6.0462,6.0168,5.9495,5.919,5.8471,5.8028,5.8666,5.8823,5.847,5.7165,5.64,5.5239,5.2961,5.2303,5.1746,5.0729,5.0593,0.0,5.1436,5.2722,5.3556,5.3556,5.4799,5.5595,5.5497,5.4304,5.3719,5.4032,5.0602,4.9227,5.0716,4.8914,4.8447,4.9676,4.5378,4.2056,3.9857,0.0,0.0,0.0,0.0,0.0,0.0,0.0,0.0,0.0,0.0,0.0,0.0,0.0,0.0,0.0,0.0,0.0,0.0,0.0,0.0,0.0,3.916,4.2724,4.3209,4.6322,4.9445,5.1893,5.3402,5.4358,5.4639,5.5239,5.5963,5.6806,5.774,5.8592,5.933,6.0116,6.0943,6.1739,6.2181,6.277,6.3572,6.4243,6.4639,6.4852,6.5667,6.6072,6.6072,6.6072,6.6338,6.6751,6.5771,6.562,6.6044,6.5509,6.5271,6.5327,6.58,6.6075,6.6171,6.5876,6.6111,6.661,6.6716,6.6641,6.6353,6.5349,6.4443,6.3636,6.2799,6.1995,6.1304,6.0969,6.0491,6.0047,6.0023,5.9666,5.9286,5.9194,5.9192,5.9156,5.9094,5.9462,5.9307,5.7576,5.7271,5.6568,5.4389,5.3951,5.3609,5.282,5.2686,0.0,5.3518,5.4518,5.5091,5.491,5.7069,5.7502,5.4913,5.5079,5.4684,5.3178,5.1083,5.0074,5.0565,4.9639,4.922,4.9481,4.6088,4.3333,0.0,0.0,0.0,0.0,0.0,0.0,0.0,0.0,0.0,0.0,0.0,0.0,0.0,0.0,0.0,0.0,0.0,0.0,0.0,0.0,0.0,0.0,4.321,4.7326,4.8881,5.044,5.219,5.4389,5.5658,5.6608,5.7139,5.784,5.8473,5.9024,5.9633,6.0369,6.1224,6.1633,6.2268,6.3155,6.3504,6.3869,6.4223,6.4859,6.5196,6.5168,6.5816,6.6134,6.6134,6.6134,6.6338,0.0,6.5906,6.5786,6.61,6.5435,6.5196,0.0,0.0,0.0,0.0,0.0,6.604,6.595,6.6049,6.6035,6.5895,6.5098,6.4189,6.3183,6.2123,6.1326,6.0667,6.0032,5.9718,5.9547,5.9501,5.9466,5.9361,5.922,5.9466,5.9699,5.9624,5.981,5.9633,5.8427,0.0,0.0,5.5639,5.4896,5.409,5.2814,5.2837,5.3024,5.3139,5.4346,5.515,5.4996,5.7223,5.7908,5.582,5.5221,0.0,0.0,0.0,4.9048,4.8647,4.8013,0.0,0.0,0.0,0.0,0.0,0.0,0.0,0.0,4.1076,4.0719,0.0,0.0,0.0,0.0,0.0,0.0,0.0,0.0,0.0,0.0,0.0,0.0,0.0,0.0,0.0,0.0,4.676,5.1336,5.4814,5.5236,5.5459,5.6243,5.7559,5.8462,5.8633,5.9645,6.0304,6.0361,6.0967,6.1851,6.2954,0.0,0.0,0.0,0.0,6.4887,6.4887,6.5505,6.5797,6.5797,6.6331,6.6595,6.6595,6.6595,6.6595,6.6595,6.6595,6.6595,6.6539,6.6022,6.5797,6.5713,6.5056,6.499,6.5271,6.5519,6.5393,6.5176,6.5337,0.0,0.0,6.5144,6.4427,6.3579,6.1623,6.0622,5.9936,5.8904,5.8595,5.8705,5.9308,5.9664,5.9773,5.9392,5.952,5.983,6.0025,5.9871,5.9593,5.9244,5.8524,5.7658,5.6709,5.5436,5.3911,5.2128,5.2324,5.2484,5.202,5.3604,5.4741,5.4626,0.0,0.0,5.7287,5.5111,5.3732,5.3631,5.014,4.7608,4.6582,4.6043,4.638,4.7685,4.7881,4.846,4.9461,4.965,5.0431,5.1656,4.5501,4.4297,0.0,0.0,0.0,0.0,0.0,0.0,0.0,0.0,0.0,0.0,0.0,0.0,0.0,0.0,0.0,4.6262,5.0899,5.4614,5.6302,5.78,5.876,5.8963,5.8997,5.9524,6.075,6.1136,6.152,6.2014,6.2591,6.3155,6.3605,6.4139,6.455,6.4775,6.5281,6.5516,6.5516,6.6135,6.6444,6.6444,0.0,0.0,6.6595,6.6595,6.6595,6.6595,6.6595,6.6595,6.6595,6.6472,6.6444,6.6331,6.5224,6.4854,6.4911,6.495,6.4609,6.4082,6.4139,6.3896,6.3525,6.2833,6.2516,6.2203,6.1048,6.0621,0.0,6.0535,6.0349,6.0288,6.0894,6.0933,6.069,6.006,5.9979,5.9918,5.9489,5.9531,5.9454,5.8648,5.8773,5.8686,5.7702,5.628,5.5178,5.477,5.4799,5.5025,5.5392,5.6413,5.6815,5.6008,5.7935,5.851,5.6689,5.5895,5.5184,5.4445,5.2244,5.0695,4.9983,5.0282,5.0401,5.022,5.1431,5.1925,5.1675,5.2934,5.3786,5.424,5.1007,5.0511,0.0,0.0,0.0,0.0,0.0,0.0,0.0,0.0,0.0,0.0,0.0,3.704,3.9329,0.0,4.6935,5.0016,5.3317,5.6204,5.827,5.9061,5.9466,5.9466,6.03,6.109,6.1695,6.2494,6.3036,6.3139,6.3743,6.4296,6.4729,6.5067,6.5393,6.5685,6.5994,6.6163,6.6163,6.6444,6.6595,6.6595,6.6595,6.6595,6.6595,6.6595,6.6595,6.6595,6.6595,6.6595,6.6595,6.6595,6.6595,6.6539,6.5938,6.5685,6.5657,6.5365,6.5039,6.4701,6.442,6.4111,6.3785,6.3493,6.297,6.2368,6.1884,6.1328,6.0896,6.1055,6.0992,6.0921,6.1231,6.1216,6.1003,6.0678,6.0594,6.0642,6.0833,6.0595,6.0285,5.9962,5.9791,5.9357,5.8227,5.7428,5.6833,5.6687,5.6794,5.6901,5.6901,5.7571,5.7847,5.736,5.8584,5.8977,5.7855,5.7114,5.6093,5.4681,5.3431,5.2629,5.232,5.2278,5.2419,5.2756,5.3523,5.4042,5.4356,5.5128,5.5732,5.615,5.4972,5.4757,0.0,0.0,0.0,0.0,0.0,0.0,0.0,3.4195,3.5732,3.8361,4.0384,4.2371,4.46,4.7709,5.0673,5.3021,5.5211,5.7466,5.9837,6.0052,5.988,5.9767,6.1328,6.2425,6.2467,6.3645,6.43,6.4015,6.4657,6.5265,6.5674,6.5797,6.6107,6.6567,6.6595,6.6595,6.6595,6.6595,6.6595,6.6595,6.6595,6.6595,6.6595,6.6595,6.6595,6.6595,6.6595,6.6595,6.6595,6.6595,6.6595,6.6595,6.6595,6.6595,6.6539,6.605,6.5797,6.5629,6.514,6.4887,6.4803,6.4803,6.4111,6.3235,6.3122,6.2392,6.1621,6.1621,6.1621,6.165,6.1806,6.1834,6.1806,6.165,6.1621,6.1759,6.2288,6.19,6.1449,6.144,6.0946,6.0211,5.9101,5.8933,5.8684,5.7992,5.8036,5.8025,5.7787,5.8053,5.8334,5.8474,5.8908,5.9161,5.9049,5.8137,5.6888,5.5257,5.471,5.4429,5.4429,5.3908,5.4091,5.5117,5.5257,5.5805,5.6773,5.6983,5.7391,5.7912,5.8068,5.7918,3.2436,3.0426,2.9859,3.1187,3.2525,3.4819,0.0,4.1581,4.29,4.5522,4.7527,4.909,4.9936,5.1782,5.3627,5.4979,5.7497,5.9465,6.0033,6.1534,6.2356,6.1771,6.1891,6.26,6.3982,6.4304,6.447,6.4668,6.5509,6.5939,6.5702,6.6219,6.6511,6.6595,6.6595,6.6595,6.6595,6.6595,6.6595,6.6595,6.6595,6.6595,6.6595,6.6595,6.6595,6.6595,6.6595,6.6595,6.6595,6.6595,6.6595,6.6595,6.6595,6.6595,6.6595,6.6528,6.6163,6.5685,6.5601,6.5252,6.4803,6.4803,6.469,6.4493,6.3886,6.3616,6.3504,6.3504,6.3504,6.3633,6.424,6.4381,6.424,6.3645,6.3504,6.324,6.2244,6.238,6.2392,6.1361,6.1727,6.1989,6.1281,6.1124,6.0479,5.8538,5.783,5.7856,5.8852,5.8587,5.8502,5.9049,5.9161,5.8965,5.8446,5.8278,5.7884,5.7141,5.7028,5.7,5.7,5.6916,5.6944,5.7084,5.7603,5.794,5.8081,5.9161,5.9707,5.9792,6.0413,6.0055,3.7937,3.658,3.6131,3.8025,3.9794,4.1821,4.4697,4.6315,4.7707,4.9501,5.1101,5.2433,5.3402,5.4527,5.5796,0.0,5.8673,5.9914,6.1361,6.2212,6.2684,6.2575,6.2721,6.3139,6.3963,6.4599,6.5018,6.5298,6.602,6.6358,6.6219,6.6472,6.6595,6.6595,6.6595,6.6595,6.6595,6.696,6.696,6.6595,6.696,6.6932,6.6595,6.6595,6.6792,6.7157,6.754,6.7709,6.7709,6.7709,6.7709,6.7709,6.7709,6.7709,6.7624,6.6876,6.6444,6.6219,6.6219,6.605,6.5854,6.5854,6.5601,6.5263,6.4982,6.4645,6.4381,6.4381,6.4381,6.4465,6.4718,6.4803,6.4718,6.4465,6.4381,6.4336,6.4195,6.4083,6.3858,6.3352,6.357,6.3399,6.2029,6.207,6.188,6.0654,5.9935,5.9739,6.0245,5.9751,5.9442,5.9679,6.006,6.0216,5.9935,5.9555,5.9077,5.8502,5.8109,5.7912,5.7912,5.7912,5.825,5.8965,5.8852,5.9205,5.9935,6.0044,6.0297,6.0706,6.134,6.1521,4.0526,4.0549,4.1125,4.3083,4.5483,4.7638,4.8623,5.0038,5.1429,5.2473,5.3487,5.447,5.5327,5.6201,5.7298,5.8914,5.9634,6.064,6.2446,6.2688,6.2631,6.2637,6.2469,6.2559,6.3003,6.433,6.5312,6.5674,6.6275,6.6595,6.6595,6.6595,6.6595,6.6595,6.6595,6.6595,6.6595,6.7213,6.7297,6.6848,6.7466,6.755,6.7101,6.7101,6.7371,6.7803,6.8299,6.8496,6.8496,6.8496,6.8496,6.8496,6.8496,6.8496,6.8383,6.7456,6.7101,6.7101,6.7101,6.7101,6.709,6.6904,6.6539,6.6163,6.5994,6.5629,6.5309,6.5309,6.5309,6.5309,6.5309,6.5309,6.5309,6.5309,6.5309,6.5365,6.5629,6.5505,6.5196,6.4859,6.4915,6.4578,6.3043,6.3139,6.3279,6.283,6.2408,6.1931,6.1425,6.0791,6.0397,6.0397,6.0791,6.1088,6.1088,6.065,6.0201,5.9751,5.9317,5.9149,5.9317,5.9149,5.957,6.0606,6.0201,6.0441,6.134,6.1184,6.138,6.1846,6.2492,6.2998,3.7729,3.9515,4.1991,4.3814,4.721,5.043,5.1776,5.3058,5.4163,5.4771,5.5206,5.5468,5.5496,5.6745,5.7986,5.8699,6.0621,6.2235,6.2911,6.2997,6.2653,6.1736,6.0555,6.0187,0.0,6.3397,6.5073,6.5674,6.6275,6.6595,6.6595,6.6595,6.6595,6.6595,6.6595,6.6595,6.6595,6.7213,6.7494,6.7494,6.8158,6.8439,6.8439,6.8439,6.8439,6.8468,6.8496,6.8496,6.8496,6.8496,6.8496,6.8496,6.8496,6.8496,6.8496,6.8439,6.8439,6.8439,6.8439,6.8439,6.8327,6.7691,6.7466,6.7354,6.6735,6.6539,6.6539,6.6539,6.6539,6.6539,6.6539,6.6539,6.6539,6.6539,6.6539,6.6388,6.5826,6.6163,6.6191,6.5028,6.5281,6.5477,6.4831,6.4718,6.4746,6.4718,6.469,6.4044,6.2212,6.1437,6.1059,6.1059,6.1088,6.1088,6.1088,6.1088,6.1059,6.1031,6.1031,6.1284,6.1858,6.134,6.1312,6.1914,6.1914,6.1942,6.197,6.3139,6.3701,6.3729,6.4392,6.4718,4.1076,4.3001,4.5478,4.8681,5.0844,5.259,5.4057,5.4715,5.5136,5.5578,5.4856,5.4359,5.494,5.5452,5.6394,5.8131,6.0119,6.195,6.3439,6.367,6.3222,6.2083,6.1702,0.0,0.0,0.0,0.0,6.4943,6.5281,6.5769,6.6539,6.6595,6.6595,6.6595,6.6595,6.6792,6.7185,6.741,6.7719,6.8158,6.8383,6.8496,6.8496,6.8917,6.9114,6.9114,6.9517,6.9686,6.9686,6.9686,6.9686,6.9686,6.9686,6.9686,6.9686,6.9686,6.9686,6.9573,6.8777,6.8496,6.8468,6.8243,6.8158,6.813,6.7934,6.7849,6.7849,6.7849,6.7849,6.7849,6.7849,6.7849,6.7849,6.7849,6.7522,6.7129,6.6932,6.6735,6.65,6.6078,6.6163,6.6107,6.5505,6.5393,6.5252,6.4859,6.4803,6.4409,6.3335,6.3408,6.338,6.2942,6.3296,6.3549,6.3549,6.2773,6.2279,6.2279,6.1537,6.12,6.1397,6.12,6.1565,6.2588,6.2195,6.2605,6.3858,6.342,6.3645,6.4465,6.469,6.4999,4.4094,4.6316,4.8693,5.236,5.3571,5.4204,5.5509,5.5747,5.5658,5.5663,5.4215,5.302,5.338,5.3036,5.367,5.667,5.8667,6.0828,6.3611,6.3613,6.2975,6.207,6.138,6.0727,0.0,0.0,0.0,6.3886,6.4729,6.5477,6.6247,6.6679,6.682,6.6595,6.7034,6.7354,6.7494,6.7944,6.8506,6.9142,6.9142,6.9142,6.917,6.9545,6.9714,6.9742,7.0135,7.0304,7.0304,7.0304,7.0304,7.0304,7.0304,7.0304,7.0304,7.0304,7.0304,7.0192,6.9423,6.9142,6.9114,6.8889,6.8805,6.8777,6.8552,6.8496,6.8496,6.8496,6.8496,6.8496,6.8496,6.8496,6.8496,6.8496,6.8158,6.7859,6.7859,6.755,6.7287,6.7287,6.7287,6.7147,6.6753,6.65,6.6135,6.5516,6.5449,6.5123,6.428,6.455,6.4634,6.4195,6.455,6.4803,6.4803,6.4055,6.3588,6.3588,6.283,6.2537,6.2734,6.2537,6.2886,6.3881,6.3532,6.3914,6.5112,6.4516,6.4656,6.5449,6.5449,6.5657,4.665,4.9328,5.1581,5.4778,5.5367,5.5436,5.6288,5.6239,5.5806,5.497,5.3142,5.147,5.0775,4.9662,5.0256,5.4494,5.6617,5.9204,6.3484,6.3037,6.2169,6.1833,5.9913,5.8938,0.0,0.0,0.0,6.2712,0.0,6.5601,6.5741,6.682,6.7213,6.6651,6.7821,6.8158,6.755,6.8815,6.9714,7.0248,7.0304,7.0304,7.0304,7.0304,7.0304,7.0304,7.0304,7.0304,7.0304,7.0304,7.0304,7.0304,7.0304,7.0304,7.0304,7.0304,7.0304,7.0304,7.0304,7.0304,7.022,6.963,6.9433,6.9339,6.8777,6.858,6.858,6.858,6.858,6.858,6.858,6.858,6.858,6.858,6.8552,6.8552,6.8552,6.8524,6.8496,6.8496,6.8496,6.8496,6.8496,6.7972,6.7354,6.6764,6.6697,6.6275,6.5056,6.4887,6.4887,6.4887,6.4887,6.4887,6.4887,6.4859,6.4859,6.4859,6.4803,6.5056,6.5629,6.5112,6.5084,6.5685,6.5713,6.5741,6.5741,6.6331,6.6595,6.6595,6.6567,6.6567,5.0512,5.3485,5.5697,5.7499,5.7872,5.7756,5.7511,5.6837,5.5537,5.2861,5.0522,4.8259,4.612,4.725,4.9667,5.3167,5.6988,6.0829,6.4525,6.4755,6.4264,6.3501,6.3086,6.2567,6.1839,6.1973,0.0,0.0,6.36,6.4414,6.6258,6.6651,6.696,6.7269,6.7578,6.7916,6.8243,6.9461,6.9911,6.963,7.0079,7.0304,7.0304,7.0304,7.0304,7.0304,7.0304,7.0304,7.0304,7.0304,7.0304,7.0304,7.0304,7.0304,7.0304,7.0304,7.0304,7.0304,7.0304,7.0304,7.0276,7.0135,7.0079,7.0051,6.9883,6.9826,6.9826,6.9826,6.9826,6.9826,6.9826,6.9826,6.9826,6.9826,6.9489,6.917,6.917,6.8805,6.8496,6.8496,6.8496,6.8496,6.8496,6.8355,6.8186,6.8046,6.8018,6.7568,6.6303,6.6135,6.6135,6.6135,6.6135,6.6135,6.6135,6.5713,6.5477,6.5477,6.5056,6.4859,6.5028,6.4887,6.5084,6.5685,6.6135,6.6388,6.6388,6.6528,6.6595,6.6595,6.6135,6.6163,5.3718,5.6264,5.7931,5.8762,5.8589,5.7685,5.5821,5.476,5.3056,4.8989,4.6611,4.4534,4.2169,4.406,4.7088,5.0509,5.5317,6.0105,6.4217,6.4926,6.4809,6.4269,6.447,6.4162,6.3005,6.347,6.3944,0.0,6.406,6.4612,6.6107,6.6978,6.7438,6.7494,6.8309,6.8899,6.9311,6.9967,7.0135,6.9798,7.0135,7.0304,7.0304,7.0304,7.0304,7.0304,0.0,7.0304,7.0304,7.0304,7.0304,7.0304,7.0304,7.0304,7.0304,7.0304,7.0304,7.0304,7.0304,7.0304,7.0304,7.0304,7.0304,7.0304,7.0304,7.0304,7.0304,7.0304,7.0304,7.0304,7.0304,7.0304,7.0304,7.0304,7.0051,6.9798,6.9798,6.9517,6.9311,6.9311,6.9311,6.9226,6.8945,6.8889,6.8805,6.8524,6.8496,6.8243,6.754,6.7428,6.7428,6.7428,6.7428,6.7428,6.7428,6.7118,6.6939,6.6939,6.663,6.6433,6.6433,6.6433,6.6444,6.65,6.682,6.6988,6.6988,6.6988,6.7129,6.7428,6.709,6.7179,5.6187,5.7974,5.901,5.9373,5.8541,5.6752,5.3284,5.1825,4.9716,4.4534,4.236,4.0777,3.8768,4.0658,4.3794,4.7806,5.2899,5.82,6.3453,6.4413,6.4639,6.4857,6.5093,6.4906,6.3921,6.4387,6.4803,6.5034,6.5278,6.5567,6.5927,6.7484,6.8186,6.7775,6.9321,7.022,7.0304,7.0304,7.0304,7.0304,7.0304,7.0304,7.0304,7.0304,7.0304,7.0304,0.0,0.0,7.0304,7.0304,7.0304,7.0304,7.0304,7.0304,7.0304,7.0304,7.0304,7.0304,7.0304,7.0304,7.0304,7.0304,7.0304,7.0304,7.0304,7.0304,7.0304,7.0304,7.0304,7.0304,7.0304,7.0304,7.0304,7.0304,7.0304,7.0304,7.0304,7.0304,7.0304,7.0304,7.0304,7.0135,6.9602,6.9517,6.9339,6.8805,6.8749,6.8749,6.8749,6.8608,6.8496,6.8496,6.8496,6.8496,6.8496,6.8496,6.8496,6.8496,6.8496,6.8496,6.8496,6.8496,6.8215,6.7635,6.7719,6.7719,6.7635,6.7719,6.8,6.8496,6.855,6.8719,5.7252,5.8776,5.9762,6.062,5.9899,5.8016,5.4371,5.1789,4.8366,4.199,3.9616,3.7997,3.5698,3.8145,4.2405,4.8176,5.2269,5.7177,6.416,6.4962,6.5322,6.665,6.7042,6.6947,6.628,6.6337,0.0,0.0,6.6137,6.6369,6.7147,6.7494,6.8112,6.904,6.9395,6.9798,7.0304,7.0304,7.0304,7.0304,7.0304,7.0304,7.0304,7.0304,7.0304,7.0304,7.0304,0.0,7.0304,7.0304,7.0304,7.0304,7.0304,7.0304,7.0304,7.0304,7.0304,7.0304,7.0304,7.0304,7.0304,7.0304,7.0304,7.0304,7.0304,7.0304,7.0304,7.0304,7.0304,7.0304,7.0304,7.0304,7.0304,7.0304,7.0304,7.0304,7.0304,7.0304,7.0304,7.0304,7.0304,7.0276,7.0164,7.0135,7.0107,6.9995,6.9995,6.9995,6.9995,6.9114,6.8496,6.8496,6.8496,6.8496,6.8496,6.8496,6.8496,6.8496,6.8496,6.8496,6.8496,6.8496,6.8439,6.8327,6.8833,6.8833,6.8327,6.8833,6.8871,6.8514,6.8773,6.8952,5.7971,5.9382,6.0352,6.082,5.9738,5.7206,5.1889,4.8691,4.4901,3.8017,3.6106,3.5215,3.3738,3.7024,4.1301,4.5333,4.9562,5.4728,6.1451,6.2718,6.3943,6.6523,6.7346,6.7381,6.6566,6.6805,6.6894,6.6619,6.6781,6.708,6.7466,6.814,6.8899,6.9826,6.9854,7.0023,7.0304,7.0304,7.0304,7.0304,7.0304,7.0304,7.0304,7.0304,7.0304,7.0304,7.0304,0.0,7.0763,7.0763,7.0763,7.0763,7.0763,7.0566,7.0304,7.0304,7.0304,7.0304,7.0304,7.0304,7.0304,7.0304,7.0304,7.0304,7.0304,7.0304,7.0304,7.0304,7.0304,7.0304,7.0304,7.0304,7.0304,7.0304,7.0304,7.0304,7.0304,7.0304,7.0304,7.0304,7.0304,7.0304,7.0304,7.0304,7.0304,7.0304,7.0304,7.0304,7.0304,6.9798,6.9433,6.9433,6.9433,6.9433,6.9433,6.9433,6.9433,6.9433,6.9433,6.9433,6.9433,6.9433,6.9311,6.8973,6.9255,6.9255,6.8973,6.9255,6.9514,6.9743,6.9925,7.0204,5.8231,5.9627,6.0621,6.0757,5.9186,5.5893,4.9388,4.5615,4.1592,3.488,3.3275,3.2938,3.2572,3.5965,3.9658,4.2258,4.6492,5.1773,5.843,6.0281,6.2367,6.6265,6.7243,6.729,6.66,6.6939,6.7032,6.663,6.7297,6.7775,6.7916,6.8983,6.9798,7.0304,7.0304,7.0304,7.0304,7.0304,7.0304,7.0304,7.0304,7.0304,7.0304,7.0304,7.0304,7.0304,7.0304,0.0,0.0,7.1016,7.1016,7.1016,7.1016,7.0707,7.0332,7.0445,7.0482,7.051,7.0669,7.0726,7.0726,7.0726,7.0529,7.0304,7.0304,7.0304,7.0304,7.0304,7.0388,7.0473,7.0332,7.0416,7.0473,7.0332,7.0304,7.0304,7.0304,7.0304,7.0304,7.0304,7.0304,7.0304,7.0304,7.0304,7.0304,7.0304,7.0304,7.0304,7.0304,7.0304,7.0304,7.0304,7.0304,7.0304,7.0304,7.0304,7.0304,7.0304,7.0304,7.0304,7.0304,7.0304,7.0079,6.9602,6.9573,6.9658,6.9798,6.9798,7.031,7.1291,7.1411,7.1805,5.7795,5.9298,6.0392,6.1013,5.8827,5.508,4.9537,4.491,4.0224,3.466,3.2542,3.1839,3.2392,3.3858,3.6547,4.1231,4.4116,4.8817,5.7481,5.9454,6.1958,6.7145,6.7461,6.7333,6.7524,6.7351,6.7032,6.663,6.7737,6.8664,6.918,6.9854,7.0248,7.0304,7.0304,7.0304,7.0304,7.0304,7.0304,7.0304,7.0304,7.0304,7.0304,7.0304,7.0304,7.0304,7.0304,0.0,0.0,7.0388,7.0388,7.0388,7.0388,7.036,7.0388,7.0932,7.1128,7.1213,7.1793,7.2037,7.2037,7.2037,7.1231,7.0304,7.0304,7.0304,7.0304,7.0304,7.0679,7.0988,7.0445,7.0707,7.0988,7.0445,7.0304,7.0304,7.0304,7.0304,7.0304,7.0304,7.0304,7.0304,7.0304,7.0304,7.0304,7.0304,7.0304,7.0304,7.0304,7.0304,7.0304,7.0304,7.0304,7.0304,7.0304,7.0304,7.0304,7.0304,7.0304,7.0304,7.0304,7.0304,7.0276,7.022,7.022,7.0482,7.1016,7.1016,7.1578,7.2632,7.2987,7.3397,5.7087,5.9087,6.0202,6.0282,5.8205,5.467,4.9039,4.4413,3.9826,3.4576,3.2415,3.1847,3.2908,3.3215,3.4731,3.9098,4.0327,4.3453,5.1343,5.351,5.688,6.3817,6.4965,6.6019,6.8282,6.7796,6.7474,6.7726,6.8552,6.9311,6.9911,7.0164,7.0304,7.0304,7.0304,7.0304,7.0304,7.0304,7.0304,7.0304,7.0304,7.0304,7.0304,7.0304,7.0304,7.0304,7.0304,0.0,0.0,7.0847,7.0847,7.0847,7.0847,7.0847,7.0875,7.11,7.1465,7.185,7.2102,7.2206,7.2206,7.2206,7.1868,7.1428,7.1428,7.1428,7.1428,7.1428,7.1625,7.1737,7.1512,7.1316,7.1044,7.0445,7.0304,7.0304,7.0304,7.0304,7.0304,7.0304,7.0304,7.0416,7.0763,7.0847,7.0978,7.1372,7.1428,7.1428,7.1428,7.1428,7.1428,7.1428,7.0754,7.0445,7.0819,7.0847,7.1016,7.1428,7.1428,7.1428,7.1428,7.1428,7.1428,7.1428,7.1428,7.1569,7.1793,7.1793,7.2274,7.3158,7.3326,7.3717,5.5595,5.8043,5.9478,5.944,5.7037,5.3358,4.8501,4.3673,3.8926,3.4435,3.2415,3.1839,3.2998,3.2976,3.3844,3.7024,3.791,4.0485,4.7011,4.9412,5.3083,6.0071,6.1435,6.3231,6.6964,6.7429,6.7775,6.8439,6.8889,6.9461,7.0276,7.0304,7.0304,7.0304,7.0304,7.0304,7.0304,7.0304,7.0304,7.0304,7.0304,7.0304,7.0304,7.0304,7.0304,7.0304,0.0,0.0,0.0,7.0932,7.0932,7.0932,7.0932,7.1044,7.1213,7.1409,7.1906,7.2496,7.2664,7.2721,7.2721,7.2721,7.2721,7.2721,7.2721,7.2468,7.2206,7.2206,7.2206,7.2262,7.2411,7.199,7.1381,7.095,7.0866,7.0866,7.0866,7.0866,7.0866,7.0866,7.0866,7.1007,7.1409,7.1493,7.1653,7.2131,7.2206,7.2206,7.2206,7.2206,7.2206,7.2206,7.14,7.1035,7.1465,7.1493,7.1709,7.2178,7.2206,7.2206,7.2206,7.2206,7.2206,7.2206,7.2206,7.229,7.2468,7.2468,7.2971,7.3935,7.3935,7.4337,5.3131,5.5837,5.7981,5.8648,5.5101,5.0734,4.8008,4.2531,3.7166,3.4126,3.2415,3.172,3.2392,3.3058,3.3941,3.5302,3.7686,4.1123,4.6129,4.8757,5.1937,5.6607,5.7112,5.8738,6.2949,6.5873,6.7775,6.8439,6.8496,0.0,7.0248,7.0304,7.0304,7.0304,7.0304,7.0304,7.0304,7.0304,7.0304,7.0304,7.0304,7.0304,7.0304,7.0304,7.0304,0.0,0.0,0.0,0.0,7.0304,7.0304,7.0304,7.0304,7.0651,7.1269,7.1934,7.2552,7.3198,7.3769,7.3966,7.3966,7.3966,7.3966,7.3966,7.3966,7.3142,7.2206,7.2206,7.2206,7.2327,7.2945,7.2636,7.2206,7.2178,7.2178,7.2178,7.2178,7.2178,7.2178,7.2178,7.2178,7.2178,7.2206,7.2206,7.2206,7.2206,7.2206,7.2206,7.2206,7.2206,7.2206,7.2206,7.2206,7.2178,7.2206,7.2206,7.2206,7.2206,7.2206,7.2206,7.2206,7.2206,7.2206,7.2206,7.2206,7.2496,7.3086,7.3086,7.38,7.5182,7.5182,7.5659,4.8016,5.0531,5.2075,5.0953,4.9017,4.6591,4.3621,4.0069,3.6641,3.4036,3.2415,3.169,3.2392,3.2662,3.3836,3.6956,3.8182,4.0313,4.4931,4.8676,5.2542,5.6848,6.1785,6.5386,6.6721,6.7672,6.8271,6.8468,6.8889,6.9461,7.0276,7.0304,7.0304,7.0304,7.0304,7.0304,7.0304,7.0304,7.0304,7.0304,7.0304,7.0304,7.0304,7.0304,7.0304,0.0,0.0,0.0,0.0,7.0304,7.0304,7.0304,7.0304,7.095,7.1906,7.2102,7.2833,7.3741,7.3937,7.3994,7.3994,7.3994,7.3994,7.3994,7.3994,7.3713,7.3432,7.3432,7.3432,7.3395,7.317,7.2973,7.2721,7.2318,7.2206,7.2206,7.2206,7.2206,7.2206,7.2206,7.2206,7.2327,7.2749,7.2833,7.2973,7.3367,7.3432,7.3432,7.3432,7.3432,7.3432,7.3432,7.3432,7.3254,7.2861,7.2833,7.3002,7.3423,7.3432,7.3432,7.3432,7.3432,7.3432,7.3432,7.3432,7.3516,7.3713,7.3713,7.4223,7.523,7.5469,7.5925,4.3615,4.6338,4.7921,4.6812,4.5234,4.3391,4.1075,3.8243,3.5548,3.3543,3.2265,3.169,3.2392,3.2512,3.3477,3.6455,3.7144,3.8964,4.3718,4.7495,5.1725,5.7024,6.3196,6.6853,6.6356,6.7844,6.8749,6.8524,6.9058,6.9658,7.0276,7.0304,7.0304,7.0304,7.0304,7.0304,7.0304,7.0304,7.0304,7.0304,7.0304,7.0304,7.0304,7.0304,7.0304,0.0,0.0,0.0,0.0,7.0304,7.0304,7.0304,7.0304,7.1091,7.2206,7.2206,7.2973,7.3994,7.3994,7.3994,7.3994,7.3994,7.3994,7.3994,7.3994,7.3994,7.3994,7.3994,7.3994,7.3909,7.3544,7.3432,7.3339,7.2973,7.2889,7.2889,7.2889,7.2889,7.2889,7.2889,7.2889,7.3002,7.3367,7.3432,7.3572,7.3937,7.3994,7.3994,7.3994,7.3994,7.3994,7.3994,7.3994,7.3853,7.346,7.3432,7.36,7.3966,7.3994,7.3994,7.3994,7.3994,7.3994,7.3994,7.3994,7.3994,7.3994,7.455,7.5184,7.5916,7.6512,7.6941,0.0,4.2777,4.4824,4.5032,4.3044,4.0763,3.9831,3.6935,0.0,3.2759,3.1966,3.172,3.2452,3.2572,3.3058,3.4555,3.5378,3.7645,4.283,4.6126,5.0684,5.7816,6.2349,6.4446,6.3277,6.6914,6.9114,6.8608,6.9086,6.9658,7.0276,7.0304,7.0304,7.0304,7.0304,7.0304,7.0304,7.0304,7.0304,7.0304,7.0304,7.0304,7.0304,7.0304,7.0304,0.0,0.0,0.0,0.0,7.0304,7.0304,7.0304,7.0304,7.1091,7.2206,7.2206,7.2973,7.3994,7.3994,7.3994,7.3994,7.3994,7.3994,7.3994,7.3994,7.3994,7.3994,7.3994,7.3994,7.3994,7.3994,7.3994,7.3994,7.3994,7.3994,7.3994,7.3994,7.3994,7.3994,7.3994,7.3994,7.3994,7.3994,7.3994,7.3994,7.3994,7.405,7.405,7.405,7.405,7.4078,7.4134,7.4078,7.4078,7.4134,7.405,7.4022,7.405,7.4022,7.4022,7.405,7.405,7.405,7.405,7.4106,7.4134,7.4134,7.5518,7.6496,7.7126,7.7934,7.835,3.4335,0.0,3.7757,3.7294,3.6667,3.6079,0.0,3.4739,3.3492,3.2662,3.1966,3.1869,3.3058,3.3275,3.4181,3.7024,3.8482,4.0589,4.4461,5.1488,5.8646,6.5222,6.6942,6.7633,6.7813,6.8371,6.8833,6.917,6.9339,6.9658,7.0276,7.0304,7.0304,7.0304,7.0304,7.0304,7.0304,7.0304,7.0304,7.0304,7.0304,7.0304,7.0304,7.0304,7.0304,0.0,0.0,0.0,7.0304,7.0304,7.0304,7.0304,7.0304,7.1091,7.2206,7.2206,7.2973,7.3994,7.3994,7.3994,7.3994,7.3994,7.3994,7.3994,7.3994,7.3994,7.3994,7.3994,7.3994,7.3994,7.3994,7.3994,7.3994,7.3994,7.3994,7.3994,7.3994,7.3994,7.3994,7.3994,7.3994,7.3994,7.3994,7.3994,7.3994,7.3994,7.4387,7.4676,7.4676,7.4676,7.4873,7.5418,7.5005,7.4893,7.5418,7.4555,7.419,7.4648,7.4275,7.4218,7.4648,7.4676,7.4676,7.4676,7.5174,7.5446,7.5446,7.5785,7.6362,7.7106,7.7302,7.776,3.2026,3.3738,3.54,3.5048,3.4967,3.4877,3.4555,3.3732,3.2849,3.2176,3.175,3.1817,3.2849,3.3275,3.439,3.7084,3.8942,4.2333,4.8972,5.6422,6.303,6.7913,6.9002,6.9367,0.0,6.9367,6.9367,6.9395,6.9658,6.9967,7.0276,7.0304,7.0304,7.0304,7.0304,7.0304,7.0304,7.0304,7.0304,7.0304,7.0304,7.0304,7.0304,7.0304,7.0304,0.0,0.0,0.0,7.0304,7.0304,7.0304,7.0304,7.0304,7.1091,7.2206,7.2206,7.2973,7.3994,7.3994,7.3994,7.3994,7.3994,7.3994,7.3994,7.3994,7.3994,7.3994,7.3994,7.3994,7.3994,7.3994,7.3994,7.3994,7.3994,7.3994,7.3994,7.3994,7.3994,7.4078,7.4359,7.4415,7.4415,7.4415,7.4668,7.4668,7.4078,7.478,7.5258,7.4929,7.5174,7.5483,7.5868,7.5567,7.5511,7.5868,7.5278,7.5005,7.5342,7.5061,7.5005,7.5342,7.537,7.537,7.537,7.5727,7.6136,7.6598,7.6798,7.7369,7.824,7.8457,7.882,3.1847,3.3915,3.5861,3.5315,3.534,3.531,3.4637,3.3612,3.2609,3.1936,3.1817,3.2086,3.2938,3.3664,3.4859,3.7174,3.9792,4.4909,5.4485,6.0441,6.501,6.8243,6.9602,7.0107,6.9573,6.9995,7.0079,6.9573,7.0023,7.0304,7.0304,7.0304,7.0304,7.0304,7.0304,7.0304,7.0304,7.0304,7.0304,7.0304,7.0304,7.0304,7.0304,7.0304,7.0304,0.0,0.0,0.0,7.0304,7.0304,7.0304,7.0304,7.0304,7.1091,7.2206,7.2206,7.2973,7.3994,7.3994,7.3994,7.3994,7.3994,7.3994,7.3994,7.3994,7.3994,7.3994,7.3994,7.3994,7.3994,7.3994,7.3994,7.3994,7.3994,7.3994,7.3994,7.3994,7.4078,7.4303,7.4789,7.4901,7.4929,7.5061,7.537,7.5306,7.4415,7.5202,7.5727,7.5238,7.5679,7.6064,7.6149,7.6092,7.6064,7.6177,7.6177,7.6177,7.6177,7.6008,7.5952,7.6036,7.6036,7.6092,7.6177,7.6237,7.6711,7.7561,7.8001,7.8697,7.9612,8.0018,8.0235,3.3402,3.6039,3.7432,3.454,3.4651,3.531,3.4637,3.4346,3.4009,3.3335,3.3185,3.3754,3.5557,3.6387,3.8007,4.1724,4.6893,5.2474,5.8325,6.1828,6.5162,6.8833,6.9883,7.0276,7.0164,7.0248,7.0276,7.0164,7.0248,7.0304,7.0304,7.0304,7.0304,7.0304,7.0304,7.0304,7.0304,7.0304,7.0304,7.0304,7.0304,7.0304,7.0304,7.0304,7.0304,0.0,0.0,7.0304,7.0304,7.0304,7.0304,7.0304,7.0304,7.1091,7.2206,7.2206,7.2973,7.3994,7.3994,7.3994,7.3994,7.3994,7.3994,7.3994,7.3994,7.3994,7.3994,7.3994,7.3994,7.3994,7.3994,7.3994,7.3994,7.3994,7.3994,7.3994,7.3994,7.4415,7.4789,7.4873,7.4901,7.5089,7.5671,7.4921,7.4584,7.5474,7.5783,7.6064,7.6466,7.6606,7.6879,7.7377,7.6964,7.6879,7.7377,7.7434,7.7434,7.7434,7.6458,7.6149,7.6634,7.6662,7.6907,7.7405,7.7807,7.8087,7.8261,7.8656,7.9106,7.9592,7.9671,7.991,3.2542,3.4587,3.6293,3.5841,3.7567,3.9133,3.8183,3.7403,3.6664,3.5895,3.546,3.5581,3.6764,3.8692,4.2124,4.8283,5.248,5.6587,6.1343,6.3936,6.6314,6.9068,0.0,7.0304,7.0304,7.0304,7.0304,7.0304,7.0304,7.0304,7.0304,7.0304,7.0304,7.0304,7.0304,7.0304,7.0304,7.0304,7.0304,7.0304,7.0304,7.0304,7.0304,7.0304,7.0304,7.0304,0.0,7.0304,7.0304,7.0304,7.0304,7.0304,7.0304,7.1091,7.229,7.2917,7.3516,7.3994,7.3994,7.3994,7.3994,7.3994,7.3994,7.3994,7.3994,7.3994,7.3994,7.3994,7.3994,7.3994,7.3994,7.3994,7.3994,7.3994,7.3994,7.4078,7.4415,7.4704,7.5098,7.5772,7.5932,7.6016,7.6325,7.6177,7.598,7.5924,7.6458,7.6851,7.6803,7.7076,7.7385,7.7686,7.7441,7.7385,7.7686,7.7715,7.7715,7.7715,7.7181,7.6992,7.7273,7.7273,7.7535,7.8069,7.8273,7.8597,7.906,7.9212,7.9532,7.9998,7.9998,8.0097,3.2228,3.3691,3.5457,3.7375,3.9575,4.1347,4.1685,4.0471,3.9296,3.944,3.9089,3.8819,3.8991,4.2126,4.6836,5.3422,5.6732,5.9876,6.3892,6.5808,6.7494,6.9377,7.0023,7.0304,7.0304,7.0304,7.0304,7.0304,7.0304,7.0304,7.0304,7.0304,7.0304,7.0304,7.0164,7.0164,7.0304,7.0164,7.0164,7.0304,7.0304,7.0304,7.0304,7.0304,7.0304,7.0304,7.0304,7.0304,7.0304,7.0304,7.0304,7.0304,7.0304,7.1091,7.2327,7.3544,7.3994,7.3994,7.3994,7.3994,7.3994,7.3994,7.3994,7.3994,7.3994,7.3994,7.3994,7.3994,7.3994,7.3994,7.3994,7.3994,7.405,7.419,7.4218,7.4387,7.5005,7.5258,7.5651,7.6606,7.6803,7.6831,7.6971,7.716,7.7048,7.643,7.6992,7.7357,7.7048,7.7413,7.7715,7.7715,7.7715,7.7715,7.7715,7.7715,7.7715,7.7715,7.7715,7.7715,7.7715,7.7715,7.7919,7.8382,7.8504,7.8879,7.9592,7.9711,7.9958,8.0294,8.0294,8.0294,3.4374,3.5819,3.6793,3.8267,3.7778,3.8228,4.3205,4.2287,4.1258,4.43,4.4886,4.466,4.4027,4.8067,5.2261,5.4657,5.9231,6.3408,6.6033,6.6988,6.814,7.0023,7.0276,7.0304,7.0304,7.0304,7.0304,7.0304,7.0304,0.0,7.0304,7.0304,7.0304,7.0304,6.977,6.9714,7.0304,6.9742,6.9742,7.0304,7.0304,7.0304,7.0304,7.0304,7.0304,7.0304,7.0304,7.0304,7.0304,7.0304,7.0304,7.0304,7.0304,7.1091,7.2327,7.3544,7.3994,7.3994,7.3994,7.3994,7.3994,7.3994,7.3994,7.3994,7.3994,7.3994,7.3994,7.3994,7.3994,7.3994,7.3994,7.3994,7.4134,7.4704,7.4845,7.5033,7.5699,7.6269,7.669,7.6775,7.6803,7.6971,7.7526,7.6739,7.6373,7.7405,7.716,7.7048,7.7574,7.7686,7.7715,7.7715,7.7715,7.7715,7.7715,7.7715,7.7715,7.7715,7.7715,7.7715,7.7715,7.7715,7.7919,7.8382,7.8759,7.9181,7.9592,8.0057,8.0275,8.0294,8.0294,8.0294,3.317,3.5096,3.7033,3.8827,3.9741,4.1253,4.5097,4.6101,4.6786,4.8832,4.9239,4.9115,4.8748,5.134,5.4522,5.7595,6.1112,6.4459,6.7371,6.8281,6.9068,7.0164,7.0304,7.0304,7.0304,7.0304,7.0304,7.0304,7.0304,0.0,7.0304,7.0304,7.0304,7.0304,7.0079,6.9883,6.9742,6.9883,6.9883,6.9742,7.0135,7.0304,7.0304,7.0304,7.0304,7.0304,7.0304,7.0304,7.0304,7.0304,7.0304,7.0388,7.1175,7.1765,7.2327,7.3544,7.3994,7.3994,7.3994,7.3994,7.3994,7.3994,7.3994,7.3994,7.3994,7.3994,7.3994,7.3994,7.3994,7.3994,7.3994,7.4275,7.462,7.4845,7.523,7.5679,7.6325,7.6634,7.6915,7.7273,7.7357,7.7413,7.7658,7.7321,7.7181,7.763,7.7518,7.7441,7.7686,7.7715,7.7715,7.7715,7.7715,7.7715,7.7715,7.7715,7.7715,7.7715,7.7715,7.7715,7.7715,7.7715,7.7919,7.8382,7.8565,7.896,7.9592,7.9771,8.0191,8.0846,8.0468,8.0497,3.2415,3.4024,3.6197,3.866,4.0891,4.3531,4.7616,4.925,5.067,5.3354,5.3423,5.2959,5.285,5.4294,5.6477,5.9421,6.2595,6.5601,6.813,6.903,6.9602,7.0248,7.0304,7.0304,7.0304,7.0304,7.0304,7.0304,7.0304,0.0,0.0,7.0304,7.0304,7.0304,7.0135,6.9826,6.9395,6.9602,6.9517,6.9114,6.9714,7.0135,7.0304,7.0304,7.0304,7.0304,7.0304,7.0304,7.0304,7.0304,7.0304,7.0445,7.1681,7.2206,7.2327,7.3544,7.3994,7.3994,7.3994,7.3994,7.3994,7.3994,7.3994,7.3994,7.3994,7.3994,7.3994,7.3994,7.3994,7.405,7.4246,7.4592,7.4985,7.5406,7.5848,7.6345,7.6964,7.7076,7.7216,7.763,7.7715,7.7715,7.7715,7.7715,7.7715,7.7715,7.7715,7.7715,7.7715,7.7715,7.7715,7.7715,7.7715,7.7715,7.7715,7.7715,7.7715,7.7715,7.7715,7.7715,7.7715,7.7715,7.7919,7.8382,7.8403,7.8718,7.9412,7.9412,7.9862,8.0705,8.0502,8.0582,3.2662,3.2998,3.4367,3.7784,4.0549,4.4203,5.0834,5.1301,5.2051,5.8023,5.7642,5.625,5.6221,5.7275,5.8512,5.9705,6.3652,6.7034,6.8327,6.903,6.963,7.0248,7.0304,7.0304,7.0304,7.0304,7.0304,7.0304,7.0304,0.0,0.0,7.0304,7.0304,7.0304,6.9714,6.9395,6.9395,6.8805,6.8496,6.8496,6.9114,6.9714,7.0304,7.0304,7.0304,7.0304,7.0304,7.0304,7.0304,7.0304,7.0304,7.0445,7.17,7.2206,7.2327,7.3544,7.3994,7.3994,7.3994,7.3994,7.3994,7.3994,7.3994,7.3994,7.3994,7.3994,7.3994,7.3994,7.3994,7.4134,7.4732,7.4901,7.521,7.6494,7.6803,7.6971,7.7554,7.7715,7.7715,7.7715,7.7715,7.7715,7.7715,7.7715,7.7715,7.7715,7.7715,7.7715,7.7715,7.7715,7.7715,7.7715,7.7715,7.7715,7.7715,7.7715,7.7715,7.7715,7.7715,7.7715,7.7715,7.7715,7.7919,7.8382,7.8382,7.8605,7.9,7.9,7.9221,7.9621,8.0294,8.0505,3.1966,3.4439,3.7654,3.9485,4.4117,4.9312,5.3403,5.4712,5.6491,6.1425,6.1284,5.9714,5.7884,5.9344,0.0,6.0013,6.3652,6.7034,6.8327,6.9395,7.0107,7.0276,7.0304,7.0304,7.0304,7.0304,7.0304,7.0304,0.0,0.0,0.0,7.0304,7.0304,7.0304,6.9714,6.9198,6.8777,6.858,6.8496,6.8496,6.9114,6.9489,6.9686,7.0107,7.0304,7.0304,7.0304,7.0304,7.0304,7.0304,7.0304,7.0388,7.1184,7.1793,7.229,7.3086,7.3628,7.3994,7.3994,7.3994,7.3994,7.3994,7.3994,7.3994,7.3994,7.3994,7.3994,7.3994,7.3994,7.4246,7.5314,7.5595,7.5792,7.6606,7.7132,7.7469,7.7658,7.7715,7.7715,7.7715,7.7715,7.7715,7.7715,7.7715,7.7715,7.7715,7.7715,7.7715,7.7715,7.7715,7.7715,7.7715,7.7715,7.7715,7.7715,7.7715,7.7715,7.7715,7.7715,7.7715,7.7715,7.7715,7.7776,7.7898,7.7898,7.813,7.8585,7.8585,7.9255,8.051,8.0576,8.1037,3.343,3.628,3.9856,4.2949,4.7375,5.2253,5.7164,5.9043,6.0605,6.3571,6.3392,6.2237,6.064,6.1647,0.0,6.1941,6.4945,6.7624,6.8383,6.9545,7.0304,7.0304,7.0304,7.0304,7.0304,7.0304,7.0304,7.0304,0.0,0.0,0.0,7.0304,7.0304,7.0304,6.9939,6.9461,6.8861,6.8608,6.8496,6.8496,6.859,6.8787,6.9086,6.9911,7.0304,7.0304,7.0304,7.0304,7.0304,7.0304,7.0304,7.036,7.096,7.1437,7.1906,7.2777,7.3339,7.3685,7.3909,7.3994,7.3994,7.3994,7.3994,7.3994,7.3994,7.3994,7.3994,7.3994,7.3994,7.4303,7.5587,7.5896,7.6121,7.6964,7.7462,7.7715,7.7715,7.7715,7.7715,7.7715,7.7715,7.7715,7.7715,7.7715,7.7715,7.7715,7.7715,7.7715,7.7715,7.7715,7.7715,7.7715,7.7715,7.7715,7.7715,7.7715,7.7715,7.7715,7.7715,7.7715,7.7715,7.7715,7.7715,7.7715,7.7715,7.7837,7.813,7.8364,7.907,8.0288,8.0641,8.1292,3.5911,3.8187,4.1389,4.7168,5.0414,5.4092,6.1333,6.3431,6.4111,6.4831,6.4476,6.401,6.3914,6.3982,6.4223,6.4718,6.6827,6.8411,6.8411,6.9433,7.022,7.022,7.0276,7.0304,7.0304,7.0304,7.0304,7.0304,0.0,0.0,0.0,7.0304,7.0304,7.0304,7.0248,6.9939,6.9423,6.8805,6.8524,6.8552,6.7916,6.7944,6.8608,6.9714,7.0248,7.0304,7.0304,7.0304,7.0304,7.0304,7.0304,7.036,7.0904,7.1156,7.1353,7.2496,7.3002,7.3198,7.3713,7.3937,7.3994,7.3994,7.3994,7.3994,7.3994,7.3994,7.3994,7.3994,7.3994,7.4303,7.5587,7.5896,7.6205,7.7405,7.7715,7.7715,7.7715,7.7715,7.7715,7.7715,7.7715,7.7715,7.7715,7.7715,7.7715,7.7715,7.7715,7.7715,7.7715,7.7715,7.7715,7.7715,7.7715,7.7715,7.7715,7.7715,7.7715,7.7715,7.7715,7.7715,7.7715,7.7715,7.7715,7.7715,7.7715,7.7715,7.7715,7.8256,7.88,7.934,8.0535,8.127,3.4375,3.8611,4.3956,4.7677,5.3442,5.917,6.279,6.4111,6.4887,6.5994,6.6107,6.5713,6.4775,6.5348,6.5741,6.4915,6.6444,6.7719,6.7719,6.8787,6.9573,6.9573,7.0023,7.0304,7.0304,7.0304,7.0304,7.0304,0.0,0.0,7.0304,7.0304,7.0304,7.0304,6.9826,6.9517,6.9395,6.8805,6.8749,0.0,6.858,6.8608,6.9226,6.9461,6.9854,7.0304,7.0304,7.0304,7.0304,7.0304,7.0304,7.0304,7.0445,7.0763,7.1241,7.1522,7.2224,7.3114,7.3254,7.36,7.3994,7.3994,7.3994,7.3994,7.3994,7.3994,7.3994,7.3994,7.3994,7.4303,7.5587,7.5896,7.6205,7.7405,7.7715,7.7715,7.7715,7.7715,7.7715,7.7715,7.7715,7.7715,7.7715,7.7715,7.7715,7.7715,7.7715,7.7715,7.7715,7.7715,7.7715,7.7715,7.7715,7.7715,7.7715,7.7715,7.7715,7.7715,7.7715,7.7715,7.7715,7.7715,7.7715,7.7715,7.7715,7.7715,7.7715,7.7827,7.8459,7.9547,8.0155,8.116,3.6337,4.0598,4.572,5.1744,5.6936,6.1128,6.3307,6.4308,6.5056,6.5966,6.6416,6.6416,6.5769,6.6191,6.6388,6.5769,6.6707,6.7494,6.7494,6.8337,6.9086,6.9367,6.9686,6.9967,7.0276,7.0304,7.0304,7.0304,0.0,7.0304,7.0304,7.0304,7.0304,7.0304,6.9995,6.9826,6.9826,6.9226,6.9226,6.9826,6.8917,6.8664,6.8973,6.9283,6.9573,6.9883,7.0164,7.0304,7.0304,7.0304,7.0304,7.0304,7.0304,7.0482,7.0791,7.11,7.1803,7.2721,7.3002,7.3488,7.3994,7.3994,7.3994,7.3994,7.3994,7.3994,7.3994,7.3994,7.3994,7.4303,7.5587,7.5896,7.6205,7.7405,7.7715,7.7715,7.7715,7.7715,7.7715,7.7715,7.7715,7.7715,7.7715,7.7715,7.7715,7.7715,7.7715,7.7715,7.7715,7.7715,7.7715,7.7715,7.7715,7.7715,7.7715,7.7715,7.7715,7.7715,7.7715,7.7715,7.7715,7.7715,7.7715,7.7715,7.7715,7.7715,7.7715,7.8305,7.8951,7.9619,8.042,8.1505,3.7895,4.2218,4.7398,5.6263,5.9795,6.1565,6.3392,6.4308,6.4971,6.5573,6.6191,6.6595,6.6595,6.6595,6.6595,6.6595,6.7016,6.7354,6.7354,6.7905,6.8524,6.9011,6.9152,6.9433,6.9939,7.0079,7.0107,6.9995,0.0,7.0248,7.0164,7.0135,7.0192,7.0304,7.0107,7.0079,7.0304,6.9686,6.9686,7.0304,6.9198,6.8608,6.8524,6.9114,6.9395,6.9433,7.0051,7.0304,7.0304,7.0304,7.0304,7.0304,7.0304,7.0304,7.036,7.0847,7.154,7.229,7.2777,7.3423,7.3994,7.3994,7.3994,7.3994,7.3994,7.3994,7.3994,7.3994,7.3994,7.4303,7.5587,7.5896,7.6205,7.7405,7.7715,7.7715,7.7715,7.7715,7.7715,7.7715,7.7715,7.7715,7.7715,7.7715,7.7715,7.7715,7.7715,7.7715,7.7715,7.7715,7.7715,7.7715,7.7715,7.7715,7.7715,7.7715,7.7715,7.7715,7.7715,7.7715,7.7715,7.7715,7.7715,7.7715,7.7715,7.7743,7.7855,7.8923,7.9542,7.9766,8.0778,8.1739,3.3388,4.0715,4.9769,5.7229,6.0104,6.1565,6.3392,6.4308,6.4971,6.5573,6.6191,6.6595,6.6595,6.6595,6.6595,6.6595,6.6651,6.6707,6.6707,6.7241,6.7663,6.7747,6.8271,6.8636,6.8721,6.9226,6.9311,6.8777,6.9714,7.0079,6.9545,6.9517,6.977,7.0276,6.9311,6.9255,7.0304,6.9686,6.9686,7.0304,6.9602,6.9002,6.8524,6.9114,6.9395,6.9433,7.0051,7.0304,7.0304,7.0304,7.0304,7.0304,7.0304,7.0304,7.0304,7.0388,7.1175,7.2206,7.229,7.3058,7.3994,7.3994,7.3994,7.3994,7.3994,7.3994,7.3994,7.3994,7.3994,7.4303,7.5587,7.5896,7.6205,7.7405,7.7715,7.7715,7.7715,7.7715,7.7715,7.7715,7.7715,7.7715,7.7715,7.7715,7.7715,7.7715,7.7715,7.7715,7.7715,7.7715,7.7715,7.7715,7.7715,7.7715,7.7715,7.7715,7.7715,7.7715,7.7715,7.7715,7.7715,7.7715,7.7715,7.7715,7.7715,7.7968,7.8481,7.865,7.9296,8.0385,8.0553,8.1195,3.7157,4.3787,5.0595,5.7088,5.9611,6.0931,6.2464,6.3532,6.442,6.5056,6.5685,6.6191,6.6539,6.6595,6.6595,6.6595,6.6595,6.6595,6.6595,6.682,6.7129,6.7466,6.7747,6.8102,6.8468,6.8749,6.8777,6.8524,6.9002,6.9198,6.8917,6.8889,6.903,6.9283,6.8777,6.8749,6.9311,6.903,6.9198,6.9798,6.9854,6.9573,6.903,6.963,6.9714,6.9433,7.0051,7.0304,7.0304,7.0304,7.0304,7.0304,7.0304,7.0304,7.0304,7.0304,7.1091,7.2206,7.2206,7.3002,7.3994,7.3994,7.3994,7.3994,7.3994,7.3994,7.3994,7.3994,7.3994,7.4218,7.5117,7.5623,7.6092,7.6851,7.7357,7.7715,7.7715,7.7715,7.7715,7.7715,7.7715,7.7715,7.7715,7.7715,7.7715,7.7715,7.7715,7.7715,7.7715,7.7715,7.7715,7.7715,7.7715,7.7715,7.7715,7.7715,7.7715,7.7715,7.7715,7.7715,7.7715,7.8024,7.8052,7.7715,7.8052,7.8312,7.8593,7.9324,7.9963,8.0525,8.0863,8.1406,3.9228,4.4139,4.8304,5.5095,5.7937,5.9567,6.1357,6.283,6.3926,6.442,6.5168,6.5826,6.6303,6.65,6.6595,6.6595,6.6595,6.6595,6.6595,6.6595,6.6764,6.7213,6.7269,6.7466,6.7962,6.8158,6.8186,6.8018,6.8327,6.8411,6.8243,6.8243,6.8327,6.8496,6.8186,6.8158,6.8496,6.8496,6.8805,6.9423,6.9854,6.9911,6.963,7.0079,7.0051,6.9658,7.0107,7.0304,7.0304,7.0304,7.0304,7.0304,7.0304,7.0304,7.0304,7.0304,7.1007,7.1962,7.2131,7.2889,7.3797,7.3937,7.3994,7.3994,7.3994,7.3994,7.3994,7.3994,7.3994,7.4134,7.4732,7.5398,7.6008,7.6466,7.716,7.7715,7.7715,7.7715,7.7715,7.7715,7.7715,7.7715,7.7715,7.7715,7.7715,7.7715,7.7715,7.7715,7.7715,7.7715,7.7715,7.7715,7.7715,7.7715,7.7715,7.7715,7.7715,7.7715,7.7855,7.7939,7.7939,7.8509,7.8642,7.8192,7.8783,7.8987,7.8867,7.9963,8.0581,8.075,8.1178,8.1596,3.4995,3.7893,4.1171,5.0326,5.4487,5.7166,6.0424,6.2521,6.3813,6.3841,6.4842,6.5713,6.5741,6.6219,6.6595,6.6595,6.6595,6.6595,6.6595,6.6595,6.6595,6.6623,6.6651,6.6651,6.6697,6.7213,6.7326,6.6735,6.7821,6.8215,6.7607,6.755,6.7831,6.8468,6.7343,6.7287,6.8496,6.8496,6.8805,6.9395,6.9433,6.9714,7.0248,7.0304,7.0276,7.0248,7.0304,7.0304,7.0304,7.0304,7.0304,7.0304,7.0304,7.0304,7.0304,7.0304,7.0707,7.1353,7.1962,7.2608,7.3254,7.3797,7.3994,7.3994,7.3994,7.3994,7.3994,7.3994,7.3994,7.4134,7.4732,7.5398,7.6064,7.6634,7.7245,7.7715,7.7715,7.7715,7.7715,7.7715,7.7715,7.7715,7.7715,7.7715,7.7715,7.7715,7.7715,7.7715,7.7715,7.7715,7.7715,7.7715,7.7715,7.7715,7.7715,7.7715,7.7715,7.7715,7.8228,7.8537,7.8537,7.9176,7.9513,7.9485,8.0104,8.0104,7.9562,8.0188,8.0806,8.1347,8.1375,8.1425,3.3408,3.6827,4.0518,4.6394,5.1106,5.4828,5.6839,6.0084,6.2757,6.315,6.3897,6.4617,6.5056,6.5938,6.6595,6.6595,6.6595,6.6595,6.6595,6.6595,6.6595,6.6595,6.6595,6.6595,6.6595,6.6792,6.682,6.6623,0.0,6.7175,6.6932,6.6904,6.7016,6.7287,6.682,6.682,6.7287,6.7663,6.8169,6.8833,6.9226,6.9714,7.0304,7.0304,7.0304,7.0304,7.0304,7.0304,7.0304,7.0304,7.0304,7.0304,7.0304,7.0304,7.0304,7.0304,7.0679,7.1297,7.1962,7.2608,7.3198,7.3797,7.3994,7.3994,7.3994,7.3994,7.3994,7.3994,7.3994,7.4134,7.4732,7.5398,7.6149,7.7132,7.7526,7.7715,7.7715,7.7715,7.7715,7.7715,7.7715,7.7715,7.7715,7.7715,7.7715,7.7715,7.7715,7.7715,7.7715,7.7715,7.7715,7.7715,7.7715,7.7715,7.7715,7.7715,7.7939,7.8425,7.8537,7.879,7.9232,7.9851,7.9991,7.9619,8.0581,8.0778,8.0188,8.0778,8.1178,8.1403,8.1403,8.1403,3.0969,3.4326,3.8258,4.2921,4.6684,5.0332,5.4328,5.7545,6.019,6.1931,6.2926,6.3701,6.4336,6.5292,6.605,6.6275,6.6303,6.6388,6.6567,6.6595,6.6595,6.6595,6.6595,6.6595,6.6595,6.6595,6.6595,6.6595,0.0,0.0,6.6595,6.6595,6.6595,6.6595,6.6595,6.6595,6.6595,6.6988,6.7522,6.8186,6.8805,6.9423,6.9995,7.022,7.0304,7.0304,7.0304,7.0304,7.0304,7.0304,7.0304,7.0304,7.0304,7.0304,7.0304,7.0304,7.0538,7.1016,7.1906,7.244,7.2917,7.3741,7.3994,7.3994,7.3994,7.3994,7.3994,7.3994,7.3994,7.4134,7.4732,7.5539,7.6458,7.7462,7.7715,7.7715,7.7715,7.7715,7.7715,7.7715,7.7715,7.7715,7.7715,7.7715,7.7715,7.7715,7.7715,7.7715,7.7715,7.7715,7.7715,7.7715,7.7715,7.7715,7.7715,7.7715,7.8052,7.8846,7.8902,7.9232,7.9879,8.0469,8.061,8.0216,8.0982,8.1207,8.0806,8.1207,8.1403,8.1403,8.1403,8.1403,0.0,0.0,0.0,3.9782,4.1242,4.3623,5.2793,5.4841,5.599,6.0058,6.1846,6.2869,6.3616,6.428,6.4943,6.5544,6.5657,6.5882,6.6472,6.6539,6.6539,6.6539,6.6539,6.6539,6.6539,6.6539,6.6567,6.6567,6.6595,6.6595,6.6595,6.6595,6.6595,6.6595,6.6595,6.6595,6.6595,6.6595,6.6904,6.7522,6.8186,6.8805,6.9405,7.0023,7.0304,7.0304,7.0304,7.0304,7.0304,7.0304,7.0304,7.0304,7.0304,7.0304,7.0304,7.0304,7.0304,7.0473,7.1737,7.2206,7.2383,7.36,7.3994,7.3994,7.3994,7.3994,7.3994,7.3994,7.3994,7.4134,7.4761,7.5876,7.6971,7.7554,7.7715,7.7715,7.7715,7.7715,7.7715,7.7715,7.7715,7.7715,7.7715,7.7715,7.7715,7.7715,7.7715,7.7715,7.7715,7.7715,7.7715,7.7715,7.7715,7.7715,7.7715,7.7715,7.8052,7.8874,7.9345,7.9879,8.0497,8.1094,8.1403,8.1403,8.1403,8.1403,8.1403,8.1403,8.1403,8.1403,8.1403,8.1403,2.847,0.0,0.0,0.0,0.0,0.0,4.3831,4.6707,5.0128,5.5097,5.6723,5.8327,6.1851,6.3026,6.3616,6.4235,6.4729,6.5112,6.5281,6.5309,6.5309,6.5309,6.5309,6.5309,6.5309,6.5685,6.5938,0.0,6.636,6.6595,6.6595,6.6595,6.6595,6.6595,6.6595,6.6595,6.6595,6.6595,6.6904,6.7522,6.8186,6.8805,6.9405,7.0023,7.0304,7.0304,7.0304,7.0304,7.0304,7.0304,7.0304,7.0304,7.0304,7.0304,7.0304,7.0304,7.0304,7.0473,7.1737,7.2206,7.2383,7.36,7.3994,7.3994,7.3994,7.3994,7.3994,7.3994,7.3994,7.4246,7.5342,7.6542,7.7497,7.7658,7.7715,7.7715,7.7715,7.7715,7.7715,7.7715,7.7715,7.7715,7.7715,7.7715,7.7715,7.7715,7.7715,7.7715,7.7715,7.7715,7.7715,7.7715,7.7715,7.7715,7.7715,7.7715,7.8192,7.9317,7.9513,8.0076,8.1094,8.1291,8.1403,8.1403,8.1403,8.1403,8.1403,8.1403,8.1403,8.1403,8.1403,8.1403,0.0,0.0,0.0,0.0,0.0,0.0,4.1964,4.4293,4.7377,5.3808,5.5604,5.7055,6.0232,6.1324,6.1942,6.2577,6.3212,6.3914,6.469,6.4803,6.4803,6.4803,6.4803,6.4803,6.4803,6.5112,6.5337,6.5337,6.5657,6.5966,6.6219,6.6472,6.6595,6.6595,6.6595,6.6595,6.6595,6.6595,6.6764,6.7129,6.7775,6.8411,6.903,6.9658,7.0051,7.0304,7.0304,7.0304,7.0304,7.0304,7.0304,7.0304,7.0304,7.0304,7.0304,7.0304,7.0304,7.0473,7.1737,7.2206,7.2383,7.36,7.3994,7.3994,7.3994,7.3994,7.3994,7.3994,7.4387,7.4949,7.5727,7.6795,7.7715,7.7715,7.7715,7.7715,7.7715,7.7715,7.7715,7.7715,7.7715,7.7715,7.7715,7.7715,7.7715,7.7715,7.7715,7.7715,7.7715,7.7715,7.7715,7.7715,7.7715,7.7799,7.8052,7.808,7.8614,7.9879,7.9963,8.0413,8.1347,8.1403,8.1403,8.1403,8.1403,8.1403,8.1403,8.1403,8.1403,8.1403,8.1403,8.1403,3.0672,3.1943,0.0,0.0,0.0,0.0,4.3121,4.4257,4.5712,5.3103,5.5206,5.6206,5.7781,5.8695,5.9358,5.9824,6.0762,6.2176,6.4297,6.4606,6.4606,6.4606,6.4606,6.4606,6.4606,6.4662,6.469,6.469,6.4746,6.5028,6.5573,6.6163,6.65,6.65,6.6567,6.6595,6.6595,6.6595,6.6595,6.6595,6.7213,6.7859,6.8524,6.9114,6.9714,7.0304,7.0304,7.0304,7.0304,7.0304,7.0304,7.0304,7.0304,7.0304,7.0304,7.0304,7.036,7.0585,7.1765,7.2262,7.2496,7.3628,7.3994,7.3994,7.3994,7.3994,7.3994,7.3994,7.4865,7.5811,7.5868,7.6739,7.763,7.7686,7.7715,7.7715,7.7715,7.7715,7.7715,7.7715,7.7715,7.7715,7.7715,7.7715,7.7715,7.7715,7.7715,7.7715,7.7715,7.7715,7.7715,7.7715,7.7715,7.7939,7.8453,7.8509,7.9043,8.0329,8.0413,8.0694,8.1375,8.1403,8.1403,8.1403,8.1403,8.1403,8.1403,8.1403,8.1403,8.1403,8.1403,8.1403,3.3959,3.4697,3.5707,0.0,0.0,0.0,3.553,3.6713,3.9099,4.276,4.4428,4.6455,5.0421,5.2514,5.3358,5.2459,5.5538,5.9269,6.2778,6.3263,6.3263,6.3263,6.3263,6.3263,6.3263,6.3701,6.3999,6.3999,6.4493,6.4859,6.4971,6.5544,6.5882,6.5882,6.636,6.6595,6.6595,6.6595,6.6595,6.6595,6.7213,6.7859,6.8524,6.9114,6.9714,7.0304,7.0304,7.0304,7.0304,7.0304,7.0304,7.0304,7.0304,7.0304,7.0304,7.0304,7.0595,7.1128,7.1934,7.2524,7.303,7.3769,7.3994,7.3994,7.3994,7.3994,7.3994,7.3994,7.4527,7.523,7.5755,7.6458,7.7104,7.7582,7.7715,7.7715,7.7715,7.7715,7.7715,7.7715,7.7715,7.7715,7.7715,7.7715,7.7715,7.7715,7.7715,7.7715,7.7715,7.7715,7.7715,7.7715,7.7715,7.7743,7.7883,7.7883,7.8417,7.9703,7.9766,8.0244,8.1347,8.1403,8.1403,8.1403,8.1403,8.1403,8.1403,8.1403,8.1403,8.1403,8.1403,8.1403,3.5568,3.5737,3.6493,3.6464,0.0,0.0,0.0,3.7265,3.857,4.2235,4.2981,4.3958,4.7238,4.8343,4.9091,5.0083,5.3294,5.6334,5.8225,6.0529,6.1998,6.1998,6.1998,6.2111,6.242,6.2701,6.3026,6.3319,6.3926,6.4308,6.4308,6.5179,6.5685,6.5685,6.6303,6.6595,6.6595,6.6595,6.6595,6.6595,6.6904,6.7568,6.8496,6.8805,6.9433,7.0304,7.0304,7.0304,7.0304,7.0304,7.0304,7.0304,7.0304,7.0304,7.0304,7.0304,7.0482,7.0875,7.185,7.2383,7.2805,7.3713,7.3994,7.3994,7.3994,7.3994,7.3994,7.3994,7.4443,7.5041,7.5727,7.6373,7.6943,7.7574,7.7715,7.7715,7.7715,7.7715,7.7715,7.7715,7.7715,7.7715,7.7715,7.7715,7.7715,7.7715,7.7715,7.7715,7.7715,7.7715,7.7715,7.7715,7.7715,7.7715,7.7715,7.8277,7.9036,7.9991,8.0329,8.0778,8.1375,8.1403,8.1403,8.1403,8.1403,8.1403,8.1403,8.1403,8.1403,8.1403,8.1403,8.1403,0.0,0.0,0.0,0.0,0.0,3.7702,0.0,0.0,0.0,4.2765,4.2805,4.2715,4.4284,4.4291,4.4849,4.7248,5.0274,5.2257,5.2082,5.5866,0.0,5.9667,6.044,6.1007,6.1244,6.089,6.118,6.2448,6.2418,6.2659,6.342,6.4645,6.5376,6.5534,6.6107,6.65,6.6595,6.6595,6.6595,6.6595,6.6595,6.7259,6.8496,6.8496,6.917,7.0304,7.0304,7.0304,7.0304,7.0304,7.0304,7.0304,7.0304,7.0304,7.0304,7.0304,7.0388,7.0641,7.1793,7.229,7.2552,7.3657,7.3994,7.3994,7.3994,7.3994,7.3994,7.3994,7.4359,7.4921,7.5699,7.6261,7.6823,7.7546,7.7715,7.7715,7.7715,7.7715,7.7715,7.7715,7.7715,7.7715,7.7715,7.7715,7.7715,7.7715,7.7715,7.7715,7.7715,7.7715,7.7715,7.7715,7.7715,7.7715,7.7715,7.8642,7.9542,8.0272,8.0778,8.115,8.1375,8.1403,8.1403,8.1403,8.1403,8.1403,8.1403,8.1403,8.1403,8.1403,8.1403,8.1403,0.0,0.0,0.0,0.0,4.1315,0.0,0.0,0.0,3.7907,3.6139,0.0,0.0,0.0,0.0,0.0,0.0,0.0,0.0,4.4708,4.757,5.1039,5.448,5.8045,5.9783,5.8633,5.6928,5.7401,6.1019,5.8627,5.8503,6.2031,6.3364,6.428,6.4887,6.5505,6.605,6.6595,6.6595,6.6595,6.6595,6.6595,6.7259,6.8496,6.8496,6.917,7.0304,7.0304,7.0304,7.0304,7.0304,7.0304,7.0304,7.0304,7.0304,7.0304,7.0304,7.0623,7.1184,7.1934,7.2552,7.3114,7.3769,7.3994,7.3994,7.3994,7.3994,7.3994,7.3994,7.405,7.4387,7.5587,7.5952,7.6289,7.7434,7.7715,7.7715,7.7715,7.7715,7.7715,7.7715,7.7715,7.7715,7.7715,7.7715,7.7715,7.7715,7.7715,7.7715,7.7715,7.7715,7.7715,7.7715,7.7715,7.7715,7.7715,7.7827,7.8417,7.9647,7.9766,8.0272,8.1347,8.1403,8.1403,8.1403,8.1403,8.1403,8.1403,8.1403,8.1403,8.1403,8.1403,8.1403,0.0,0.0,0.0,0.0,0.0,0.0,0.0,0.0,3.6515,0.0,0.0,0.0,0.0,0.0,0.0,0.0,4.0455,0.0,0.0,0.0,4.8228,0.0,0.0,0.0,5.514,5.4884,5.6087,0.0,5.7231,5.7276,6.1272,6.2616,6.3757,6.4775,6.5393,6.5994,6.6595,6.6595,6.6595,6.6595,6.696,6.7624,6.8496,6.8861,6.9489,7.0304,7.0304,7.0304,7.0304,7.0304,7.0304,7.0304,7.0304,7.0304,7.0304,7.0304,7.0473,7.0819,7.185,7.2355,7.2721,7.3685,7.3994,7.3994,7.3994,7.3994,7.3994,7.3994,7.3994,7.4303,7.5587,7.5896,7.6205,7.7405,7.7715,7.7715,7.7715,7.7715,7.7715,7.7715,7.7715,7.7715,7.7715,7.7715,7.7715,7.7715,7.7715,7.7715,7.7715,7.7715,7.7715,7.7715,7.7715,7.7715,7.7715,7.8024,7.8453,7.9007,7.971,8.0525,8.1347,8.1403,8.1403,8.1403,8.1403,8.1403,8.1403,8.1403,8.1403,8.1403,8.1403,8.1403,4.5221,0.0,0.0,0.0,0.0,0.0,0.0,0.0,0.0,0.0,0.0,0.0,0.0,0.0,0.0,0.0,0.0,4.0534,0.0,4.1782,0.0,0.0,0.0,0.0,0.0,5.1751,5.3075,5.7533,0.0,5.5197,6.0304,6.1746,6.2982,6.4252,6.5039,6.5741,6.636,6.6528,6.6595,6.6595,6.7213,6.7859,6.8524,6.9114,6.9714,7.0304,7.0304,7.0304,7.0304,7.0304,7.0304,7.0304,7.0304,7.0304,7.0304,7.0304,7.0304,7.0473,7.1737,7.2411,7.2833,7.3713,7.3994,7.3994,7.3994,7.3994,7.3994,7.3994,7.3994,7.4303,7.5587,7.5896,7.6205,7.7405,7.7715,7.7715,7.7715,7.7715,7.7715,7.7715,7.7715,7.7715,7.7715,7.7715,7.7715,7.7715,7.7715,7.7715,7.7715,7.7715,7.7715,7.7715,7.7715,7.7715,7.7715,7.8088,7.8481,7.8846,7.9907,8.0778,8.1375,8.1403,8.1403,8.1403,8.1403,8.1403,8.1403,8.1403,8.1403,8.1403,8.1403,8.1403,0.0,0.0,0.0,0.0,0.0,0.0,0.0,0.0,3.9101,0.0,0.0,0.0,0.0,0.0,0.0,0.0,0.0,0.0,0.0,0.0,0.0,0.0,0.0,0.0,0.0,4.6392,4.6726,0.0,5.0157,0.0,5.8842,6.0469,6.1689,6.2909,6.4167,6.5112,6.5713,6.6303,6.6595,6.6595,6.7213,6.7859,6.8524,6.9114,6.9714,7.0304,7.0304,7.0304,7.0304,7.0304,7.0304,7.0304,7.0304,7.0304,7.0304,7.0304,7.0304,7.0473,7.1737,7.2973,7.3937,7.3994,7.3994,7.3994,7.3994,7.3994,7.3994,7.3994,7.3994,7.4303,7.5587,7.5896,7.6205,7.7405,7.7715,7.7715,7.7715,7.7715,7.7715,7.7715,7.7715,7.7715,7.7715,7.7715,7.7715,7.7715,7.7715,7.7715,7.7715,7.7715,7.7715,7.7715,7.7715,7.7715,7.7715,7.7715,7.8249,7.9485,8.016,8.0778,8.1375,8.1403,8.1403,8.1403,8.1403,8.1403,8.1403,8.1403,8.1403,8.1403,8.1403,8.1403,0.0,0.0,5.4326,4.7881,0.0,0.0,0.0,0.0,0.0,0.0,0.0,0.0,0.0,0.0,0.0,0.0,0.0,0.0,0.0,0.0,0.0,0.0,0.0,0.0,0.0,0.0,0.0,5.1483,5.0311,0.0,5.769,5.9555,6.1015,6.2279,6.3942,6.5084,6.5685,6.6303,6.6595,6.6595,6.7681,6.8271,6.8524,6.9545,7.0107,7.0304,7.0304,7.0304,7.0304,7.0304,7.0304,7.0304,7.0304,7.0304,7.0304,7.0304,7.0304,7.0473,7.1737,7.3002,7.3994,7.3994,7.3994,7.3994,7.3994,7.3994,7.3994,7.3994,7.3994,7.419,7.5033,7.5567,7.6092,7.6907,7.7413,7.7715,7.7715,7.7715,7.7715,7.7715,7.7715,7.7715,7.7715,7.7715,7.7715,7.7715,7.7715,7.7715,7.7715,7.7715,7.7715,7.7715,7.7715,7.7715,7.7715,7.7715,7.8249,7.9534,7.9766,8.0357,8.1347,8.1403,8.1403,8.1403,8.1403,8.1403,8.1403,8.1403,8.1403,8.1403,8.1403,8.1403,5.5651,5.6933,0.0,0.0,5.0202,0.0,4.2639,0.0,0.0,0.0,0.0,0.0,0.0,0.0,0.0,0.0,0.0,0.0,0.0,3.2662,0.0,0.0,0.0,0.0,0.0,4.2186,4.4592,4.9425,4.8684,5.035,0.0,0.0,6.0257,6.1296,6.3577,6.4999,6.5393,6.6191,6.6595,6.6613,6.7877,6.8496,6.8524,6.9742,7.0304,7.0304,7.0304,7.0304,7.0304,7.0304,7.0304,7.0304,7.0304,7.0304,7.0304,7.0304,7.0585,7.1119,7.2159,7.317,7.3994,7.3994,7.3994,7.3994,7.3994,7.3994,7.3994,7.3994,7.3994,7.4134,7.4732,7.5398,7.6064,7.6662,7.7273,7.7715,7.7715,7.7715,7.7715,7.7715,7.7715,7.7715,7.7715,7.7715,7.7715,7.7715,7.7715,7.7715,7.7715,7.7715,7.7715,7.7715,7.7715,7.7715,7.7715,7.7715,7.8136,7.9176,7.9478,8.0047,8.1038,8.1291,8.1403,8.1403,8.1403,8.1403,8.1403,8.1403,8.1403,8.1403,8.1403,8.1403]},{"header":{"parameterUnit":"m.s-1","parameterCategory":1,"la1":30.6,"la2":29.2853,"lo1":-89.7004,"lo2":-87.6739,"dy":0.0162,"dx":0.0183,"nx":112,"ny":82,"refTime":"2026-03-09T12:00:00:Z","depth":0,"parameterNumber":3,"parameterNumberName":"V-component_of_WINDS"},"data":[0.0,0.0,0.0,0.0,0.0,0.0,0.0,0.0,0.0,0.0,0.0,0.0,0.0,0.0,0.0,0.0,0.0,0.0,0.0,0.0,0.0,0.0,0.0,0.0,0.0,0.0,0.0,0.0,0.0,0.0,0.0,0.0,0.0,0.0,0.0,0.0,0.0,0.0,0.0,0.0,0.0,0.0,0.0,0.0,0.0,0.0,0.0,0.0,0.0,0.0,0.0,0.0,0.0,0.0,0.0,0.0,0.0,0.0,0.0,0.0,0.0,0.0,0.0,0.0,0.0,0.0,0.0,0.0,0.0,0.0,0.0,0.0,0.0,0.0,0.0,0.0,0.0,0.0,0.0,0.0,0.0,0.0,0.0,0.0,0.0,0.0,0.0,0.0,0.0,0.0,0.0,2.6906,3.2705,3.6126,3.565,3.4004,3.0894,2.5907,0.0,0.0,0.0,0.0,0.0,0.0,0.0,0.0,0.0,0.0,0.0,0.0,0.0,0.0,0.0,0.0,0.0,0.0,0.0,0.0,0.0,0.0,0.0,0.0,0.0,0.0,0.0,0.0,0.0,0.0,0.0,0.0,0.0,0.0,0.0,0.0,0.0,0.0,0.0,0.0,0.0,0.0,0.0,0.0,0.0,0.0,0.0,0.0,0.0,0.0,0.0,0.0,0.0,0.0,0.0,0.0,0.0,0.0,0.0,0.0,0.0,0.0,0.0,0.0,0.0,0.0,0.0,0.0,0.0,0.0,0.0,0.0,0.0,0.0,0.0,0.0,0.0,0.0,0.0,0.0,0.0,0.0,0.0,0.0,0.0,0.0,0.0,0.0,0.0,0.0,0.0,0.0,0.0,0.0,0.0,0.0,0.0,0.0,0.0,0.0,0.0,0.0,0.0,0.0,2.4179,3.1733,3.5402,3.7094,3.6639,3.4374,3.1146,2.6773,0.0,0.0,0.0,0.0,0.0,0.0,0.0,0.0,0.0,0.0,0.0,0.0,0.0,0.0,0.0,0.0,0.0,0.0,0.0,0.0,0.0,0.0,0.0,0.0,0.0,0.0,0.0,0.0,0.0,0.0,0.0,0.0,0.0,0.0,0.0,0.0,0.0,0.0,0.0,0.0,0.0,0.0,0.0,0.0,0.0,0.0,0.0,0.0,0.0,0.0,0.0,0.0,0.0,0.0,0.0,0.0,0.0,0.0,0.0,0.0,0.0,0.0,0.0,0.0,0.0,0.0,0.0,0.0,0.0,0.0,0.0,0.0,0.0,0.0,0.0,0.0,0.0,0.0,0.0,0.0,0.0,0.0,0.0,0.0,0.0,0.0,0.0,0.0,0.0,0.0,0.0,0.0,0.0,0.0,0.0,0.0,0.0,0.0,0.0,0.0,0.0,0.0,0.0,2.3248,2.7211,3.4249,3.6492,3.7405,3.7198,3.4841,3.1588,2.7345,2.3255,0.0,0.0,0.0,0.0,0.0,0.0,0.0,0.0,0.0,0.0,0.0,0.0,0.0,0.0,0.0,0.0,0.0,0.0,0.0,0.0,0.0,0.0,0.0,0.0,0.0,0.0,0.0,0.0,0.0,0.0,0.0,0.0,0.0,0.0,0.0,0.0,0.0,0.0,0.0,0.0,0.0,0.0,0.0,0.0,0.0,0.0,0.0,0.0,0.0,0.0,0.0,0.0,0.0,0.0,0.0,0.0,0.0,0.0,0.0,0.0,0.0,0.0,0.0,0.0,0.0,0.0,0.0,0.0,0.0,0.0,0.0,0.0,0.0,0.0,0.0,0.0,0.0,0.0,0.0,0.0,0.0,0.0,0.0,0.0,0.0,0.0,0.0,0.0,0.0,0.0,0.0,0.0,0.0,0.0,0.0,0.0,0.0,0.0,0.0,0.0,0.0,0.0,2.7484,3.0676,3.5723,3.7115,3.7612,3.7525,3.4892,3.159,2.7646,2.3086,0.0,0.0,0.0,0.0,0.0,0.0,0.0,0.0,0.0,0.0,0.0,0.0,0.0,0.0,0.0,0.0,0.0,0.0,0.0,0.0,0.0,0.0,0.0,0.0,0.0,0.0,0.0,0.0,0.0,0.0,0.0,0.0,0.0,0.0,0.0,0.0,0.0,0.0,0.0,0.0,0.0,0.0,0.0,0.0,0.0,0.0,0.0,0.0,0.0,0.0,0.0,0.0,0.0,0.0,0.0,0.0,0.0,0.0,0.0,0.0,0.0,0.0,0.0,0.0,0.0,0.0,0.0,0.0,0.0,0.0,0.0,0.0,0.0,0.0,0.0,0.0,0.0,0.0,0.0,0.0,0.0,0.0,0.0,0.0,0.0,0.0,0.0,0.0,0.0,0.0,0.0,0.0,0.0,0.0,0.0,0.0,0.0,0.0,0.0,0.0,0.0,0.0,2.945,3.3737,3.6462,3.7591,3.7964,3.7529,3.4068,3.0656,2.7585,2.2261,0.0,0.0,0.0,0.0,0.0,0.0,0.0,0.0,0.0,0.0,0.0,0.0,0.0,0.0,0.0,0.0,0.0,0.0,0.0,0.0,0.0,0.0,0.0,0.0,0.0,0.0,0.0,0.0,0.0,0.0,0.0,0.0,0.0,0.0,0.0,0.0,0.0,0.0,0.0,0.0,0.0,0.0,0.0,0.0,0.0,0.0,0.0,0.0,0.0,0.0,0.0,0.0,0.0,0.0,0.0,0.0,0.0,0.0,0.0,0.0,0.0,0.0,0.0,0.0,0.0,0.0,0.0,0.0,0.0,0.0,0.0,0.0,0.0,0.0,0.0,0.0,0.0,0.0,0.0,0.0,0.0,0.0,0.0,0.0,0.0,0.0,0.0,0.0,0.0,0.0,0.0,0.0,0.0,0.0,0.0,0.0,0.0,0.0,0.0,0.0,0.0,0.0,2.9294,3.348,0.0,3.7815,3.8125,3.796,3.4201,3.0716,2.8012,0.0,0.0,0.0,0.0,0.0,0.0,0.0,0.0,0.0,0.0,0.0,0.0,0.0,0.0,0.0,0.0,0.0,0.0,0.0,0.0,0.0,0.0,0.0,0.0,0.0,0.0,0.0,0.0,0.0,0.0,0.0,0.0,0.0,0.0,0.0,0.0,0.0,0.0,0.0,0.0,0.0,0.0,0.0,0.0,0.0,0.0,0.0,0.0,0.0,0.0,0.0,0.0,0.0,0.0,0.0,0.0,0.0,0.0,0.0,0.0,0.0,0.0,0.0,0.0,0.0,0.0,0.0,0.0,0.0,0.0,0.0,0.0,0.0,0.0,0.0,0.0,0.0,0.0,0.0,0.0,0.0,0.0,0.0,0.0,0.0,0.0,0.0,0.0,0.0,0.0,0.0,0.0,0.0,0.0,0.0,0.0,0.0,0.0,0.0,0.0,0.0,0.0,2.5223,2.9854,3.4081,0.0,3.8022,3.8249,3.8378,3.3911,3.0167,2.802,0.0,0.0,0.0,0.0,0.0,0.0,0.0,0.0,0.0,0.0,0.0,0.0,0.0,0.0,0.0,0.0,0.0,0.0,0.0,0.0,0.0,0.0,0.0,0.0,0.0,0.0,0.0,0.0,0.0,0.0,0.0,0.0,0.0,0.0,0.0,0.0,0.0,0.0,0.0,0.0,0.0,0.0,0.0,0.0,0.0,0.0,0.0,0.0,0.0,0.0,0.0,0.0,0.0,0.0,0.0,0.0,0.0,0.0,0.0,0.0,0.0,0.0,0.0,0.0,0.0,0.0,0.0,0.0,0.0,0.0,0.0,0.0,0.0,0.0,0.0,0.0,0.0,0.0,0.0,0.0,0.0,0.0,0.0,0.0,0.0,0.0,0.0,0.0,0.0,0.0,0.0,0.0,0.0,0.0,0.0,0.0,0.0,0.0,0.0,0.0,0.0,0.0,2.5828,3.1559,3.6142,3.8022,3.8208,3.8378,3.8762,3.3056,2.8875,0.0,0.0,0.0,0.0,0.0,0.0,0.0,0.0,0.0,0.0,0.0,0.0,0.0,0.0,0.0,0.0,0.0,0.0,0.0,0.0,0.0,0.0,0.0,0.0,0.0,0.0,0.0,0.0,0.0,0.0,0.0,0.0,0.0,0.0,0.0,0.0,0.0,0.0,0.0,0.0,0.0,0.0,0.0,0.0,0.0,0.0,0.0,0.0,0.0,0.0,0.0,0.0,0.0,0.0,0.0,0.0,0.0,0.0,0.0,0.0,0.0,0.0,0.0,0.0,0.0,0.0,0.0,0.0,0.0,0.0,0.0,0.0,0.0,0.0,0.0,0.0,0.0,0.0,0.0,0.0,0.0,0.0,0.0,0.0,0.0,0.0,0.0,0.0,0.0,0.0,0.0,0.0,0.0,0.0,0.0,0.0,0.0,0.0,0.0,0.0,0.0,0.0,0.0,2.6343,3.2534,3.7212,3.8481,3.892,3.9027,3.8824,3.5371,3.1545,2.7646,0.0,0.0,0.0,0.0,0.0,0.0,0.0,0.0,0.0,0.0,0.0,0.0,0.0,0.0,0.0,0.0,0.0,0.0,0.0,0.0,0.0,0.0,0.0,0.0,0.0,0.0,0.0,0.0,0.0,0.0,0.0,0.0,0.0,0.0,0.0,0.0,0.0,0.0,0.0,0.0,0.0,0.0,0.0,0.0,0.0,0.0,0.0,0.0,0.0,0.0,0.0,0.0,0.0,0.0,0.0,0.0,0.0,0.0,0.0,0.0,0.0,0.0,0.0,0.0,0.0,0.0,0.0,0.0,0.0,0.0,0.0,0.0,0.0,0.0,0.0,0.0,0.0,0.0,0.0,0.0,0.0,0.0,0.0,0.0,0.0,0.0,0.0,0.0,0.0,0.0,0.0,0.0,0.0,0.0,0.0,0.0,0.0,0.0,0.0,0.0,0.0,0.0,2.7003,3.305,3.7679,3.9209,3.944,3.9461,3.9378,3.6456,3.2724,2.8241,0.0,0.0,0.0,0.0,0.0,0.0,0.0,0.0,0.0,0.0,0.0,0.0,0.0,0.0,0.0,0.0,0.0,0.0,0.0,0.0,0.0,0.0,0.0,0.0,0.0,0.0,0.0,0.0,0.0,0.0,0.0,0.0,0.0,0.0,0.0,0.0,0.0,0.0,0.0,0.0,0.0,0.0,0.0,0.0,0.0,0.0,0.0,0.0,0.0,0.0,0.0,0.0,0.0,0.0,0.0,0.0,0.0,0.0,0.0,0.0,0.0,0.0,0.0,0.0,0.0,0.0,0.0,0.0,0.0,0.0,0.0,0.0,0.0,0.0,0.0,0.0,0.0,0.0,0.0,0.0,0.0,0.0,0.0,0.0,0.0,0.0,0.0,0.0,0.0,0.0,0.0,0.0,0.0,0.0,0.0,0.0,0.0,0.0,0.0,0.0,0.0,0.0,2.7819,3.3413,3.7959,4.0184,4.0063,3.9962,4.0287,3.6988,3.3238,2.937,0.0,0.0,0.0,0.0,0.0,0.0,0.0,0.0,0.0,0.0,0.0,0.0,0.0,0.0,0.0,0.0,0.0,0.0,0.0,0.0,0.0,0.0,0.0,0.0,0.0,0.0,0.0,0.0,0.0,0.0,0.0,0.0,0.0,0.0,0.0,0.0,0.0,0.0,0.0,0.0,0.0,0.0,0.0,0.0,0.0,0.0,0.0,0.0,0.0,0.0,0.0,0.0,0.0,0.0,0.0,0.0,0.0,0.0,0.0,0.0,2.2818,0.0,0.0,0.0,0.0,0.0,0.0,0.0,0.0,0.0,0.0,0.0,0.0,0.0,0.0,0.0,0.0,0.0,0.0,0.0,0.0,0.0,0.0,0.0,0.0,0.0,0.0,0.0,0.0,0.0,0.0,0.0,0.0,0.0,0.0,0.0,0.0,0.0,0.0,0.0,0.0,0.0,2.8603,3.5116,4.0103,4.174,4.2172,4.1993,4.1146,3.9533,3.6576,3.1844,0.0,0.0,0.0,0.0,0.0,0.0,0.0,0.0,0.0,0.0,0.0,0.0,0.0,0.0,0.0,0.0,0.0,0.0,0.0,0.0,0.0,0.0,0.0,0.0,0.0,0.0,0.0,0.0,0.0,0.0,0.0,0.0,0.0,0.0,0.0,0.0,0.0,0.0,0.0,0.0,0.0,0.0,0.0,0.0,0.0,0.0,0.0,0.0,0.0,0.0,0.0,0.0,0.0,0.0,0.0,0.0,0.0,0.0,0.0,0.0,0.0,2.5145,0.0,0.0,0.0,0.0,0.0,0.0,0.0,0.0,0.0,0.0,0.0,0.0,0.0,0.0,0.0,0.0,0.0,0.0,0.0,0.0,0.0,0.0,0.0,0.0,0.0,0.0,0.0,0.0,0.0,0.0,0.0,0.0,0.0,0.0,0.0,0.0,0.0,0.0,0.0,0.0,2.9395,3.5912,4.0787,4.2245,4.2813,4.2853,4.221,4.0743,3.813,3.4124,3.0682,0.0,0.0,0.0,0.0,0.0,0.0,0.0,0.0,0.0,0.0,0.0,0.0,0.0,0.0,0.0,0.0,0.0,0.0,0.0,0.0,0.0,0.0,0.0,0.0,0.0,0.0,0.0,0.0,0.0,0.0,0.0,0.0,0.0,0.0,0.0,0.0,0.0,0.0,0.0,0.0,0.0,0.0,0.0,0.0,0.0,0.0,0.0,0.0,0.0,0.0,0.0,0.0,0.0,3.3728,3.3237,3.16,3.1957,3.343,3.557,3.2882,3.1716,3.1365,0.0,0.0,0.0,0.0,0.0,0.0,0.0,0.0,0.0,0.0,0.0,0.0,0.0,0.0,0.0,0.0,0.0,0.0,0.0,0.0,0.0,0.0,0.0,0.0,0.0,2.9352,2.9211,0.0,0.0,0.0,0.0,0.0,0.0,0.0,0.0,0.0,0.0,0.0,0.0,3.0769,3.6733,4.1325,4.3071,4.3415,4.3532,4.3648,4.1721,3.9444,3.7015,3.3211,2.9557,0.0,0.0,0.0,0.0,0.0,0.0,0.0,0.0,0.0,0.0,0.0,0.0,0.0,0.0,0.0,0.0,0.0,0.0,0.0,0.0,0.0,0.0,0.0,0.0,0.0,0.0,0.0,0.0,0.0,0.0,0.0,0.0,2.028,2.1959,0.0,0.0,0.0,0.0,0.0,0.0,0.0,0.0,0.0,0.0,0.0,0.0,0.0,2.8791,2.9842,3.2121,3.4096,3.5779,3.7498,3.8176,3.7916,3.8383,3.9005,3.9734,3.9713,0.0,3.3996,3.21,0.0,0.0,0.0,0.0,0.0,0.0,0.0,0.0,0.0,0.0,0.0,0.0,0.0,0.0,0.0,0.0,0.0,0.0,0.0,0.0,0.0,0.0,3.2814,3.3143,3.4214,3.4779,0.0,2.9077,2.4744,2.2965,0.0,0.0,0.0,0.0,0.0,0.0,0.0,0.0,3.3762,3.8857,4.3228,4.6395,4.5769,4.5307,4.583,4.3763,4.2247,4.1882,3.7191,3.3578,3.1642,2.7547,0.0,0.0,0.0,0.0,0.0,0.0,0.0,0.0,0.0,0.0,0.0,0.0,0.0,0.0,0.0,0.0,0.0,0.0,0.0,0.0,0.0,0.0,0.0,0.0,0.0,0.0,0.0,0.0,0.0,1.9431,2.1649,2.1961,2.2022,2.1067,0.0,0.0,0.0,0.0,0.0,0.0,0.0,0.0,0.0,3.2569,3.3941,3.5713,3.7971,3.8908,4.0157,4.1768,4.2607,4.3309,4.382,4.3951,4.4267,4.4707,4.4657,4.3041,4.0142,3.6249,3.2686,2.9478,0.0,0.0,0.0,0.0,2.7508,2.7779,2.9597,3.075,0.0,0.0,0.0,0.0,0.0,0.0,0.0,0.0,0.0,0.0,0.0,0.0,0.0,3.7742,3.8683,3.9274,3.931,3.7533,3.42,0.0,2.6702,2.4992,2.1108,0.0,0.0,0.0,0.0,0.0,3.761,4.2476,4.6192,4.7935,4.7873,4.7491,4.6953,4.6074,4.4646,4.2543,4.0315,3.7799,3.4904,3.1558,2.8214,0.0,0.0,0.0,0.0,0.0,0.0,0.0,0.0,0.0,0.0,0.0,0.0,0.0,0.0,0.0,0.0,0.0,0.0,0.0,0.0,0.0,0.0,0.0,0.0,0.0,0.0,0.0,0.0,2.1955,2.4156,2.3319,2.5527,2.5509,0.0,0.0,0.0,0.0,0.0,0.0,3.2783,3.4414,3.6601,3.9465,4.0875,4.2375,4.4087,4.4514,4.5282,4.6423,4.6637,4.7155,4.7929,4.7831,4.7982,4.8299,4.8058,4.7259,4.5653,4.0338,3.6699,3.4305,3.2281,3.0887,3.0224,3.1937,3.2497,3.2678,3.4453,3.5742,3.6352,3.4811,0.0,3.2159,3.0323,0.0,0.0,0.0,0.0,3.2326,3.5496,3.7678,3.9537,4.1489,4.2749,4.3576,4.3949,4.4413,4.2507,0.0,3.2592,3.0571,2.6522,0.0,0.0,0.0,0.0,3.7431,4.153,4.554,4.8358,4.9298,4.9462,4.9199,4.8493,4.8153,4.6696,4.3775,4.3247,4.1368,3.7687,3.5364,3.2541,2.9148,0.0,0.0,0.0,0.0,0.0,0.0,0.0,0.0,0.0,0.0,0.0,0.0,0.0,0.0,0.0,0.0,0.0,0.0,0.0,0.0,0.0,0.0,0.0,0.0,0.0,0.0,0.0,0.0,0.0,2.8803,3.2346,0.0,0.0,0.0,0.0,3.1277,3.3322,3.5722,3.8446,4.1774,4.3665,4.3778,4.7219,4.7898,4.5432,4.749,4.8228,4.7616,4.8195,4.8709,4.9102,4.9098,4.9116,4.9144,4.9591,4.9462,4.868,4.4763,4.0906,3.7378,3.622,3.4446,3.2848,3.5516,3.6315,3.6431,3.9187,4.0136,4.0227,4.0673,3.8404,3.5377,3.4729,3.2824,0.0,0.0,3.5348,3.6863,3.9453,4.1784,4.3618,4.4205,4.624,4.8077,4.8174,4.8272,4.721,0.0,4.2328,4.1158,3.8316,0.0,3.6456,3.572,3.8077,4.1317,4.5226,4.7051,4.8868,5.1117,5.0248,4.9986,5.1179,4.9665,4.8369,4.7739,4.6148,4.3791,4.0527,3.9028,3.6477,3.2625,2.9333,0.0,0.0,0.0,0.0,0.0,0.0,0.0,0.0,0.0,0.0,0.0,0.0,0.0,0.0,0.0,0.0,0.0,0.0,0.0,0.0,0.0,0.0,0.0,0.0,0.0,0.0,0.0,0.0,3.288,3.5606,0.0,3.3232,3.5303,3.6965,3.7368,4.1039,4.4093,4.6037,4.7976,4.9546,5.0688,5.1965,5.251,5.2261,5.3053,5.3474,5.3549,5.3285,5.3237,5.3381,5.3381,5.3114,5.2752,5.3864,5.3398,5.182,5.0945,4.7422,4.2423,4.0647,3.9424,3.8787,4.0104,4.0515,4.0564,4.1632,4.1947,4.1852,4.1731,4.0755,3.9536,3.9099,3.8283,3.8043,4.0503,4.2057,4.356,4.6052,4.767,4.8664,4.8827,4.9396,5.0206,5.1351,5.1458,5.1155,5.0608,4.6967,4.3025,4.0146,3.9918,3.9681,3.845,4.085,4.4051,4.7583,4.9158,5.0816,5.3178,5.3342,5.2823,5.1601,5.2065,5.1126,4.8063,4.8131,4.6348,4.2002,4.1076,3.8809,3.4862,3.1919,2.797,0.0,0.0,0.0,0.0,0.0,0.0,0.0,0.0,0.0,0.0,0.0,0.0,0.0,0.0,0.0,0.0,0.0,0.0,0.0,0.0,0.0,0.0,0.0,0.0,0.0,0.0,3.5782,3.6087,3.9778,4.1146,3.8151,4.1181,4.3449,4.3844,4.7498,5.0335,5.1821,5.295,5.4081,5.5242,5.5675,5.6007,5.6281,5.6913,5.7264,5.7399,5.73,5.7252,5.7252,5.7252,5.6994,5.6584,5.7552,5.7112,5.5678,5.5232,5.2677,4.8747,4.6393,4.5252,4.499,4.5412,4.4997,4.4185,4.3632,4.3443,4.3364,4.2957,4.2696,4.2568,4.2738,4.2828,4.3317,4.5598,4.6871,4.8015,5.0032,5.1188,5.1825,5.1957,5.2055,5.2483,5.3854,5.3971,5.3921,5.4251,5.0624,4.6573,4.3725,4.3505,4.3231,4.175,4.3336,4.5574,4.7995,4.9699,5.1299,5.2857,5.4081,5.4078,5.2342,5.2708,5.1486,4.7861,4.7829,4.5995,4.1635,4.055,3.8556,3.5354,3.1627,2.7852,2.4064,0.0,0.0,0.0,0.0,0.0,0.0,0.0,0.0,0.0,0.0,0.0,0.0,0.0,0.0,0.0,0.0,0.0,0.0,0.0,0.0,0.0,0.0,0.0,3.1182,3.7298,4.0912,3.8767,4.5112,4.8232,4.4516,4.7539,4.9988,5.0594,5.2293,5.3967,5.5406,5.6604,5.7206,5.7104,5.8371,5.8392,5.6944,5.875,5.9351,5.8734,5.9825,6.0331,6.0331,6.0331,6.0331,6.0313,6.0349,6.0367,6.0135,5.7502,5.6395,5.611,5.3228,5.1624,5.0962,5.1172,4.9641,4.722,4.5518,4.5026,4.5132,4.4917,4.4586,4.4509,4.5693,4.6243,4.6862,4.8852,4.9583,4.9994,5.1185,5.2188,5.3014,5.3354,5.4198,5.5127,5.5703,5.5821,5.5456,5.4277,5.3551,5.2334,4.9739,4.8613,4.7547,4.6054,4.5855,0.0,4.667,4.8736,5.0133,5.0133,5.2287,5.3658,5.3534,5.1504,4.9441,4.7516,4.5437,4.2863,3.9713,3.783,3.6054,3.4341,2.8735,2.5192,2.3845,0.0,0.0,0.0,0.0,0.0,0.0,0.0,0.0,0.0,0.0,0.0,0.0,0.0,0.0,0.0,0.0,0.0,0.0,0.0,0.0,0.0,3.5376,3.9064,3.9227,4.2191,4.5259,4.7733,5.0126,5.1219,5.0287,5.1765,5.2933,5.3292,5.5033,5.6458,5.7325,5.8085,5.8691,5.9103,5.9884,6.0286,6.0294,6.1232,6.1609,6.1442,6.1202,6.111,6.111,6.111,6.0821,6.0367,6.1434,6.1595,6.1083,6.0855,6.0767,6.019,5.4423,5.2031,5.1844,5.1904,5.1477,5.0766,5.0303,5.0531,5.0972,5.0484,5.0377,5.0392,5.0064,4.9756,4.9865,5.1614,5.2353,5.2979,5.4761,5.5609,5.6015,5.6112,5.6171,5.6321,5.6725,5.6396,5.5821,5.5148,5.4676,5.3828,5.2038,5.1534,5.0817,4.9147,4.8889,0.0,4.9716,5.0534,5.1121,5.1316,5.4038,5.4716,5.1883,5.2842,5.252,5.0079,4.8768,4.6822,4.4004,4.2985,4.1369,3.9008,3.4317,3.107,0.0,0.0,0.0,0.0,0.0,0.0,0.0,0.0,0.0,0.0,0.0,0.0,0.0,0.0,0.0,0.0,0.0,0.0,0.0,0.0,0.0,0.0,3.9747,4.4156,4.6209,4.7631,4.9418,5.2038,5.331,5.4013,5.4134,5.5098,5.5793,5.595,5.718,5.833,5.9188,5.9551,6.0131,6.0955,6.1325,6.1678,6.1986,6.2565,6.2891,6.2863,6.2696,6.2588,6.2588,6.2588,6.2371,0.0,6.2885,6.301,6.2624,6.2812,6.2891,0.0,0.0,0.0,0.0,0.0,5.4439,5.4365,5.3129,5.3147,5.3629,5.3247,5.3061,5.2988,5.297,5.258,5.2447,5.4053,5.4632,5.5105,5.6526,5.6958,5.7012,5.7157,5.6958,5.6714,5.6736,5.6541,5.6159,5.5445,0.0,0.0,5.3612,5.2638,5.1218,4.8981,4.8842,4.9042,4.9148,5.0374,5.1288,5.1453,5.4273,5.5253,5.2971,5.2863,0.0,0.0,0.0,4.5688,4.2874,4.2176,0.0,0.0,0.0,0.0,0.0,0.0,0.0,0.0,2.7608,2.7159,0.0,0.0,0.0,0.0,0.0,0.0,0.0,0.0,0.0,0.0,0.0,0.0,0.0,0.0,0.0,0.0,4.2754,4.7299,5.1761,5.2848,5.3236,5.3489,5.5222,5.6425,5.6529,5.7505,5.8172,5.8226,5.8779,5.9663,6.0827,0.0,0.0,0.0,0.0,6.2592,6.2592,6.3189,6.3505,6.3505,6.4021,6.431,6.431,6.431,6.431,6.431,6.431,6.431,6.4256,6.3722,6.3505,6.3424,6.2755,6.2316,6.1737,5.8993,5.8078,5.7853,5.522,0.0,0.0,5.4723,5.43,5.4032,5.497,5.4915,5.4741,5.602,5.6399,5.6567,5.7179,5.7147,5.7033,5.7261,5.7071,5.6746,5.6312,5.6475,5.6428,5.5488,5.5114,5.4835,5.4584,5.2751,5.0383,4.7766,4.7841,4.8014,4.7537,4.9795,5.1382,5.1219,0.0,0.0,5.5111,5.2356,5.0574,5.0396,4.6349,4.2749,4.0071,3.9499,3.8982,3.8378,3.8321,3.8785,3.9785,3.9737,4.0884,4.2962,3.3862,3.1669,0.0,0.0,0.0,0.0,0.0,0.0,0.0,0.0,0.0,0.0,0.0,0.0,0.0,0.0,0.0,4.2834,4.7542,5.146,5.337,5.497,5.5944,5.6015,5.6601,5.7293,5.7933,5.8207,5.854,5.9042,5.9624,6.0392,6.1389,6.1905,6.2267,6.2484,6.2972,6.3234,6.3234,6.3831,6.4129,6.4129,0.0,0.0,6.431,6.431,6.431,6.431,6.431,6.431,6.431,6.4156,6.4129,6.4021,6.2918,6.2458,6.2342,6.1736,6.1244,6.0778,6.0205,5.9779,5.9432,5.8914,5.8681,5.8387,5.7334,5.6933,0.0,5.6853,5.705,5.7399,5.8008,5.8363,5.8448,5.8031,5.789,5.7673,5.7104,5.6834,5.6574,5.6174,5.5591,5.5056,5.4847,5.3847,5.2908,5.2317,5.2344,5.256,5.291,5.3651,5.3681,5.2486,5.4828,5.5584,5.3416,5.3684,5.3465,5.2262,4.9985,4.8213,4.7148,4.7456,4.7387,4.678,4.6385,4.6066,4.5818,4.5385,4.6371,4.8518,4.2399,4.0972,0.0,0.0,0.0,0.0,0.0,0.0,0.0,0.0,0.0,0.0,0.0,3.4165,3.6177,0.0,4.3888,4.6311,5.0046,5.319,5.4815,5.6138,5.6958,5.6958,5.7725,5.8481,5.9092,5.95,5.995,6.0409,6.102,6.1685,6.2474,6.28,6.308,6.3397,6.3695,6.3858,6.3858,6.4129,6.431,6.431,6.431,6.431,6.431,6.431,6.431,6.431,6.431,6.431,6.431,6.431,6.431,6.4256,6.3641,6.3397,6.337,6.3053,6.2773,6.2447,6.2176,6.1878,6.1597,6.1281,6.081,6.0196,5.9403,5.8741,5.8232,5.8066,5.8132,5.8319,5.8616,5.8858,5.891,5.8628,5.8547,5.8497,5.8298,5.8039,5.7741,5.7401,5.6957,5.6451,5.571,5.5246,5.4793,5.4325,5.4666,5.4948,5.4948,5.5323,5.5316,5.4582,5.5959,5.6396,5.5082,5.5065,5.4435,5.2805,5.1569,5.0768,5.047,5.0457,5.0593,5.0918,5.0681,5.0699,5.0993,5.0737,5.1349,5.2734,5.0097,4.8819,0.0,0.0,0.0,0.0,0.0,0.0,0.0,3.1488,3.3048,3.5383,3.7453,3.9447,4.1409,4.449,4.7383,4.9389,5.2023,5.4414,5.6227,5.708,5.7542,5.7716,5.8741,5.9629,6.0093,6.0727,6.1286,6.1752,6.2268,6.2819,6.3352,6.3505,6.3804,6.4283,6.431,6.431,6.431,6.431,6.431,6.431,6.431,6.431,6.431,6.431,6.431,6.431,6.431,6.431,6.431,6.431,6.431,6.431,6.431,6.431,6.4256,6.3749,6.3505,6.3342,6.2836,6.2592,6.2511,6.2511,6.1878,6.1098,6.099,6.0284,5.9507,5.9507,5.9507,5.9534,5.9653,5.968,5.9653,5.9534,5.9507,5.9477,5.9433,5.9386,5.9179,5.8624,5.8407,5.7987,5.6887,5.6724,5.6362,5.5334,5.574,5.6034,5.5774,5.6061,5.6332,5.6468,5.6918,5.7163,5.7054,5.6142,5.4906,5.3332,5.2775,5.2504,5.2504,5.203,5.2235,5.3197,5.3332,5.389,5.4855,5.5088,5.5453,5.5925,5.6045,5.4902,2.895,2.6742,2.6085,2.7592,2.8791,3.0856,0.0,3.7998,3.9852,4.208,4.4856,4.7122,4.7934,4.9733,5.1534,5.2833,5.4891,5.6677,5.7721,5.8298,5.8851,5.9521,5.9734,6.0124,6.0883,6.1055,6.1447,6.2313,6.2677,6.3019,6.3379,6.3912,6.4229,6.431,6.431,6.431,6.431,6.431,6.431,6.431,6.431,6.431,6.431,6.431,6.431,6.431,6.431,6.431,6.431,6.431,6.431,6.431,6.431,6.431,6.431,6.421,6.3858,6.3397,6.3315,6.2945,6.2511,6.2511,6.2402,6.2213,6.1661,6.1434,6.1325,6.1325,6.1325,6.1416,6.1969,6.2104,6.1969,6.1461,6.1325,6.1037,6.0043,6.024,6.0284,5.9158,5.9059,5.8954,5.8281,5.8163,5.7707,5.6345,5.5785,5.5871,5.6864,5.6577,5.6495,5.7054,5.7163,5.6973,5.6441,5.6278,5.5898,5.515,5.5041,5.5014,5.5014,5.4933,5.496,5.5096,5.5627,5.5952,5.6088,5.7163,5.7722,5.7803,5.834,5.7868,3.4516,3.3337,3.3018,3.4767,3.6825,3.9063,4.1476,4.3521,4.5347,4.6975,4.8919,5.0578,5.1542,5.2627,5.3618,0.0,5.5922,5.7168,5.7628,5.8491,5.9129,5.9187,5.9715,6.0409,6.1298,6.1537,6.2004,6.2954,6.3443,6.3767,6.3912,6.4156,6.431,6.431,6.431,6.431,6.431,6.4663,6.4663,6.431,6.4663,6.4636,6.431,6.431,6.45,6.4853,6.5187,6.535,6.535,6.535,6.535,6.535,6.535,6.535,6.5268,6.4581,6.4129,6.3912,6.3912,6.3749,6.3559,6.3559,6.3315,6.299,6.2718,6.2393,6.2104,6.2104,6.2104,6.2185,6.243,6.2511,6.243,6.2185,6.2104,6.2095,6.1959,6.185,6.1633,6.1145,6.1088,6.0758,5.9478,5.9549,5.9464,5.8541,5.7879,5.7689,5.8178,5.7733,5.7434,5.7694,5.8031,5.815,5.7879,5.7543,5.7081,5.6495,5.6115,5.5925,5.5925,5.5925,5.6251,5.6973,5.6864,5.7174,5.7879,5.8047,5.8292,5.8655,5.9236,5.9442,3.6952,3.7217,3.7974,4.0,4.2809,4.5306,4.6141,4.777,4.9367,5.0424,5.1511,5.2573,5.3429,5.4155,5.4761,5.527,5.6498,5.7482,5.7724,5.8554,5.9014,5.8666,5.8958,5.9659,6.0775,6.165,6.2488,6.3352,6.3966,6.431,6.431,6.431,6.431,6.431,6.431,6.431,6.431,6.4907,6.4988,6.4554,6.5151,6.5233,6.4798,6.4798,6.5024,6.5477,6.5919,6.6109,6.6109,6.6109,6.6109,6.6109,6.6109,6.6109,6.6001,6.5106,6.4798,6.4798,6.4798,6.4798,6.4753,6.4609,6.4256,6.3858,6.3695,6.3342,6.2999,6.2999,6.2999,6.2999,6.2999,6.2999,6.2999,6.2999,6.2999,6.3053,6.3342,6.3189,6.2891,6.2565,6.2619,6.2294,6.0847,6.0972,6.1108,6.0674,6.0267,5.9806,5.9317,5.8737,5.8357,5.8357,5.8737,5.8992,5.8992,5.8601,5.8167,5.7733,5.7282,5.7119,5.7282,5.7119,5.7526,5.859,5.8167,5.8367,5.9236,5.9117,5.9307,5.9724,6.0348,6.0837,3.3638,3.4979,3.7192,4.0302,4.3592,4.6668,4.8946,5.0433,5.1483,5.209,5.2935,5.3565,5.3592,5.4321,5.5057,5.5612,5.6933,5.8067,5.8601,5.8681,5.8649,5.8426,5.7401,5.7334,0.0,6.1155,6.2737,6.3352,6.3966,6.431,6.431,6.431,6.431,6.431,6.431,6.431,6.431,6.4907,6.5178,6.5178,6.5784,6.6055,6.6055,6.6055,6.6055,6.6082,6.6109,6.6109,6.6109,6.6109,6.6109,6.6109,6.6109,6.6109,6.6109,6.6055,6.6055,6.6055,6.6055,6.6055,6.5947,6.5368,6.5151,6.5043,6.4446,6.4256,6.4256,6.4256,6.4256,6.4256,6.4256,6.4256,6.4256,6.4256,6.4256,6.4075,6.3532,6.3858,6.3885,6.2728,6.2972,6.3162,6.2538,6.243,6.2457,6.243,6.2402,6.1779,6.0077,5.9361,5.8964,5.8964,5.8992,5.8992,5.8992,5.8992,5.8964,5.8937,5.8937,5.9182,5.9768,5.9236,5.9209,5.9822,5.9822,5.985,5.9877,6.0972,6.1515,6.1542,6.2149,6.243,3.7393,3.9166,4.1377,4.4705,4.7257,4.9336,5.0741,5.1979,5.2839,5.2828,5.2,5.1332,5.1513,5.1766,5.2359,5.3472,5.5695,5.7455,5.7972,5.876,5.8955,5.8115,5.8234,0.0,0.0,0.0,0.0,6.2647,6.2972,6.3478,6.4256,6.431,6.431,6.431,6.431,6.45,6.488,6.5097,6.5395,6.5784,6.6001,6.6109,6.6109,6.6516,6.6706,6.6706,6.7132,6.7295,6.7295,6.7295,6.7295,6.7295,6.7295,6.7295,6.7295,6.7295,6.7295,6.7186,6.6381,6.6109,6.6082,6.5865,6.5784,6.5757,6.5567,6.5485,6.5485,6.5485,6.5485,6.5485,6.5485,6.5485,6.5485,6.5485,6.5205,6.4826,6.4636,6.4446,6.4183,6.3776,6.3858,6.3804,6.3189,6.308,6.2945,6.2565,6.2511,6.2131,6.1162,6.1199,6.1172,6.0782,6.1091,6.1335,6.1335,6.062,6.0175,6.0175,5.9426,5.91,5.929,5.91,5.9453,6.0474,6.0094,6.0457,6.1633,6.1244,6.1461,6.2185,6.2402,6.2701,4.0228,4.2487,4.4692,4.8322,5.0174,5.1382,5.2504,5.3104,5.331,5.2909,5.0972,4.9334,4.929,4.8625,4.8858,5.1307,5.3523,5.5617,5.7433,5.8418,5.8533,5.744,5.7836,5.807,0.0,0.0,0.0,6.1661,6.2474,6.3162,6.3939,6.4391,6.4527,6.431,6.4699,6.5043,6.5178,6.5613,6.6155,6.6733,6.6733,6.6733,6.676,6.7159,6.7322,6.7349,6.7729,6.7892,6.7892,6.7892,6.7892,6.7892,6.7892,6.7892,6.7892,6.7892,6.7892,6.7783,6.7005,6.6733,6.6706,6.6489,6.6408,6.6381,6.6164,6.6109,6.6109,6.6109,6.6109,6.6109,6.6109,6.6109,6.6109,6.6109,6.5784,6.5531,6.5531,6.5233,6.4943,6.4943,6.4943,6.4807,6.4427,6.4183,6.3831,6.3234,6.3135,6.2854,6.204,6.2267,6.2348,6.1959,6.2267,6.2511,6.2511,6.1823,6.1407,6.1407,6.0674,6.0358,6.0548,6.0358,6.0728,6.1722,6.1352,6.1688,6.2809,6.2302,6.2438,6.3135,6.3135,6.337,4.2119,4.4807,4.7033,5.0942,5.2141,5.2751,5.412,5.372,5.2871,5.2164,4.9718,4.75,4.6756,4.4962,4.5003,4.9228,5.0782,5.2929,5.7224,5.789,5.7563,5.666,5.6545,5.6606,0.0,0.0,0.0,6.0627,0.0,6.3315,6.3451,6.4527,6.4907,6.4364,6.5458,6.5784,6.5233,6.6454,6.7322,6.7838,6.7892,6.7892,6.7892,6.7892,6.7892,6.7892,6.7892,6.7892,6.7892,6.7892,6.7892,6.7892,6.7892,6.7892,6.7892,6.7892,6.7892,6.7892,6.7892,6.7892,6.781,6.7241,6.7051,6.6923,6.6381,6.6191,6.6191,6.6191,6.6191,6.6191,6.6191,6.6191,6.6191,6.6191,6.6164,6.6164,6.6164,6.6137,6.6109,6.6109,6.6109,6.6109,6.6109,6.564,6.5043,6.4473,6.4373,6.3966,6.2755,6.2592,6.2592,6.2592,6.2592,6.2592,6.2592,6.2565,6.2565,6.2565,6.2511,6.2755,6.3342,6.2809,6.2782,6.3397,6.3424,6.3451,6.3451,6.4021,6.431,6.431,6.4283,6.4283,4.7155,4.9522,5.0925,5.2832,5.335,5.3418,5.3395,5.303,5.1846,4.8758,4.5991,4.331,4.0602,4.1505,4.3725,4.6961,5.0836,5.4861,5.8868,5.9369,5.921,5.8828,5.9443,5.9536,5.8715,5.8971,0.0,0.0,6.1451,6.2238,6.3984,6.4364,6.4663,6.4961,6.526,6.5585,6.5865,6.7078,6.7512,6.7241,6.7675,6.7892,6.7892,6.7892,6.7892,6.7892,6.7892,6.7892,6.7892,6.7892,6.7892,6.7892,6.7892,6.7892,6.7892,6.7892,6.7892,6.7892,6.7892,6.7892,6.7865,6.7729,6.7675,6.7648,6.7485,6.7431,6.7431,6.7431,6.7431,6.7431,6.7431,6.7431,6.7431,6.7431,6.7105,6.676,6.676,6.6408,6.6109,6.6109,6.6109,6.6109,6.6109,6.5974,6.5811,6.5675,6.5648,6.5214,6.3993,6.3831,6.3831,6.3831,6.3831,6.3831,6.3831,6.3424,6.3162,6.3162,6.2755,6.2565,6.2728,6.2592,6.2782,6.3397,6.3831,6.4075,6.4075,6.421,6.431,6.431,6.3831,6.3858,4.9902,5.1982,5.3113,5.4171,5.407,5.3265,5.177,5.0675,4.8777,4.4425,4.1579,3.9033,3.6335,3.809,4.0978,4.4246,4.9129,5.403,5.8394,5.9298,5.9484,5.9377,6.0251,6.0523,5.9757,6.0231,6.098,0.0,6.1593,6.2089,6.3804,6.4645,6.5124,6.5178,6.5965,6.6535,6.6896,6.7566,6.7729,6.7403,6.7729,6.7892,6.7892,6.7892,6.7892,6.7892,0.0,6.7892,6.7892,6.7892,6.7892,6.7892,6.7892,6.7892,6.7892,6.7892,6.7892,6.7892,6.7892,6.7892,6.7892,6.7892,6.7892,6.7892,6.7892,6.7892,6.7892,6.7892,6.7892,6.7892,6.7892,6.7892,6.7892,6.7892,6.7648,6.7403,6.7403,6.7132,6.6896,6.6896,6.6896,6.6815,6.6543,6.6489,6.6408,6.6137,6.6109,6.5865,6.5187,6.5079,6.5079,6.5079,6.5079,6.5079,6.5079,6.478,6.4572,6.4572,6.4274,6.4084,6.4084,6.4084,6.4129,6.4183,6.4527,6.469,6.469,6.469,6.4826,6.5079,6.4753,6.4661,5.1373,5.3123,5.4132,5.5064,5.4352,5.272,4.9852,4.7749,4.4961,3.9858,3.7128,3.5078,3.3221,3.4917,3.786,4.1878,4.6852,5.2059,5.7259,5.8701,5.9264,5.9431,6.027,6.0758,6.0493,6.0967,6.1664,6.2665,6.2354,6.2561,6.3596,6.5133,6.5811,6.545,6.6942,6.781,6.7892,6.7892,6.7892,6.7892,6.7892,6.7892,6.7892,6.7892,6.7892,6.7892,0.0,0.0,6.7892,6.7892,6.7892,6.7892,6.7892,6.7892,6.7892,6.7892,6.7892,6.7892,6.7892,6.7892,6.7892,6.7892,6.7892,6.7892,6.7892,6.7892,6.7892,6.7892,6.7892,6.7892,6.7892,6.7892,6.7892,6.7892,6.7892,6.7892,6.7892,6.7892,6.7892,6.7892,6.7892,6.7729,6.7213,6.7132,6.6923,6.6408,6.6354,6.6354,6.6354,6.6218,6.6109,6.6109,6.6109,6.6109,6.6109,6.6109,6.6109,6.6109,6.6109,6.6109,6.6109,6.6109,6.5838,6.5314,6.5395,6.5395,6.5314,6.5395,6.5667,6.6109,6.6053,6.582,5.3272,5.4213,5.4642,5.5033,5.4259,5.2497,4.8956,4.6453,4.3073,3.6602,3.4211,3.256,3.0137,3.2507,3.666,4.2226,4.6678,5.1794,5.8631,5.9952,6.0482,6.1174,6.2075,6.2464,6.1976,6.203,0.0,0.0,6.3208,6.3361,6.4807,6.5178,6.5775,6.6671,6.6977,6.7403,6.7892,6.7892,6.7892,6.7892,6.7892,6.7892,6.7892,6.7892,6.7892,6.7892,6.7892,0.0,6.7892,6.7892,6.7892,6.7892,6.7892,6.7892,6.7892,6.7892,6.7892,6.7892,6.7892,6.7892,6.7892,6.7892,6.7892,6.7892,6.7892,6.7892,6.7892,6.7892,6.7892,6.7892,6.7892,6.7892,6.7892,6.7892,6.7892,6.7892,6.7892,6.7892,6.7892,6.7892,6.7892,6.7865,6.7756,6.7729,6.7702,6.7593,6.7593,6.7593,6.7593,6.6706,6.6109,6.6109,6.6109,6.6109,6.6109,6.6109,6.6109,6.6109,6.6109,6.6109,6.6109,6.6109,6.6055,6.5947,6.6435,6.6435,6.5947,6.6435,6.6508,6.6091,6.5764,6.5576,5.3646,5.4593,5.5212,5.5336,5.4262,5.182,4.6517,4.353,3.9857,3.2596,3.0684,2.9862,2.8341,3.1534,3.5607,3.9364,4.4139,4.9494,5.5513,5.766,5.927,6.1024,6.2322,6.2972,6.2585,6.2844,6.3376,6.4228,6.4173,6.4426,6.5151,6.5802,6.6535,6.7431,6.7458,6.762,6.7892,6.7892,6.7892,6.7892,6.7892,6.7892,6.7892,6.7892,6.7892,6.7892,6.7892,0.0,6.8372,6.8372,6.8372,6.8372,6.8372,6.8182,6.7892,6.7892,6.7892,6.7892,6.7892,6.7892,6.7892,6.7892,6.7892,6.7892,6.7892,6.7892,6.7892,6.7892,6.7892,6.7892,6.7892,6.7892,6.7892,6.7892,6.7892,6.7892,6.7892,6.7892,6.7892,6.7892,6.7892,6.7892,6.7892,6.7892,6.7892,6.7892,6.7892,6.7892,6.7892,6.7403,6.7051,6.7051,6.7051,6.7051,6.7051,6.7051,6.7051,6.7051,6.7051,6.7051,6.7051,6.7051,6.6896,6.6571,6.6842,6.6842,6.6571,6.6842,6.691,6.6728,6.6538,6.6186,5.3652,5.4788,5.567,5.5521,5.3997,5.0826,4.4274,4.0758,3.6818,2.9593,2.7921,2.7654,2.7361,3.0548,3.3983,3.6352,4.1065,4.6413,5.2036,5.5116,5.781,6.0554,6.2261,6.3127,6.2891,6.3385,6.3855,6.4274,6.4988,6.545,6.5585,6.6617,6.7403,6.7892,6.7892,6.7892,6.7892,6.7892,6.7892,6.7892,6.7892,6.7892,6.7892,6.7892,6.7892,6.7892,6.7892,0.0,0.0,6.8617,6.8617,6.8617,6.8617,6.8318,6.7919,6.8028,6.8101,6.8128,6.8245,6.8299,6.8299,6.8299,6.8109,6.7892,6.7892,6.7892,6.7892,6.7892,6.7973,6.8055,6.7919,6.8,6.8055,6.7919,6.7892,6.7892,6.7892,6.7892,6.7892,6.7892,6.7892,6.7892,6.7892,6.7892,6.7892,6.7892,6.7892,6.7892,6.7892,6.7892,6.7892,6.7892,6.7892,6.7892,6.7892,6.7892,6.7892,6.7892,6.7892,6.7892,6.7892,6.7892,6.7675,6.7213,6.7186,6.7268,6.7403,6.7403,6.7491,6.7652,6.7582,6.7106,5.3836,5.5145,5.5918,5.5299,5.3056,4.9512,4.3754,3.9493,3.512,2.9309,2.7336,2.6776,2.7211,2.8442,3.0888,3.5449,3.8561,4.3213,5.1163,5.4688,5.7619,6.069,6.26,6.348,6.3105,6.3461,6.3855,6.4274,6.5377,6.6272,6.6806,6.7458,6.7838,6.7892,6.7892,6.7892,6.7892,6.7892,6.7892,6.7892,6.7892,6.7892,6.7892,6.7892,6.7892,6.7892,6.7892,0.0,0.0,6.7973,6.7973,6.7973,6.7973,6.7946,6.7973,6.8535,6.8725,6.8807,6.933,6.9527,6.9527,6.9527,6.8787,6.7892,6.7892,6.7892,6.7892,6.7892,6.8291,6.859,6.8028,6.8318,6.859,6.8028,6.7892,6.7892,6.7892,6.7892,6.7892,6.7892,6.7892,6.7892,6.7892,6.7892,6.7892,6.7892,6.7892,6.7892,6.7892,6.7892,6.7892,6.7892,6.7892,6.7892,6.7892,6.7892,6.7892,6.7892,6.7892,6.7892,6.7892,6.7892,6.7865,6.781,6.781,6.8101,6.8617,6.8617,6.8709,6.8849,6.8472,6.8033,5.3791,5.5371,5.5894,5.5057,5.2928,4.9442,4.3315,3.9229,3.51,2.9287,2.7245,2.6767,2.7629,2.7871,2.9224,3.3135,3.4882,3.8192,4.525,4.9033,5.3041,5.8253,6.098,6.2992,6.4409,6.4582,6.4805,6.5331,6.6164,6.6896,6.7512,6.7756,6.7892,6.7892,6.7892,6.7892,6.7892,6.7892,6.7892,6.7892,6.7892,6.7892,6.7892,6.7892,6.7892,6.7892,6.7892,0.0,0.0,6.8454,6.8454,6.8454,6.8454,6.8454,6.8481,6.8698,6.9051,6.9384,6.9628,6.969,6.969,6.969,6.9365,6.8977,6.8977,6.8977,6.8977,6.8977,6.9167,6.9276,6.9059,6.8869,6.8644,6.8028,6.7892,6.7892,6.7892,6.7892,6.7892,6.7892,6.7892,6.8,6.8372,6.8454,6.8543,6.8923,6.8977,6.8977,6.8977,6.8977,6.8977,6.8977,6.8326,6.8028,6.8427,6.8454,6.8617,6.8977,6.8977,6.8977,6.8977,6.8977,6.8977,6.8977,6.8977,6.9113,6.933,6.933,6.9112,6.8633,6.8453,6.8032,5.2299,5.4542,5.5525,5.4646,5.2122,4.8388,4.2863,3.8533,3.4231,2.9151,2.7245,2.6776,2.7704,2.767,2.8398,3.105,3.2361,3.5058,4.0888,4.454,4.8748,5.4535,5.732,5.9972,6.3131,6.4514,6.545,6.6055,6.6489,6.7078,6.7865,6.7892,6.7892,6.7892,6.7892,6.7892,6.7892,6.7892,6.7892,6.7892,6.7892,6.7892,6.7892,6.7892,6.7892,6.7892,0.0,0.0,0.0,6.8535,6.8535,6.8535,6.8535,6.8644,6.8807,6.8997,6.9439,7.0008,7.0171,7.0225,7.0225,7.0225,7.0225,7.0225,7.0225,6.9981,6.969,6.969,6.969,6.9744,6.9927,6.952,6.897,6.8516,6.8435,6.8435,6.8435,6.8435,6.8435,6.8435,6.8435,6.857,6.8997,6.9078,6.9194,6.9656,6.969,6.969,6.969,6.969,6.969,6.969,6.895,6.8597,6.9051,6.9078,6.9249,6.9663,6.969,6.969,6.969,6.969,6.969,6.969,6.969,6.9772,6.9981,6.9981,6.9626,6.8946,6.8946,6.8454,4.8926,5.2269,5.4722,5.4006,5.0187,4.5757,4.2358,3.6992,3.1848,2.873,2.7245,2.6675,2.7211,2.7754,2.8464,2.9638,3.1658,3.4794,3.9638,4.2571,4.5698,4.9616,5.1283,5.3794,5.8158,6.2579,6.545,6.6055,6.6109,0.0,6.7838,6.7892,6.7892,6.7892,6.7892,6.7892,6.7892,6.7892,6.7892,6.7892,6.7892,6.7892,6.7892,6.7892,6.7892,0.0,0.0,0.0,0.0,6.7892,6.7892,6.7892,6.7892,6.8264,6.8861,6.9466,7.0063,7.0687,7.1277,7.1467,7.1467,7.1467,7.1467,7.1467,7.1467,7.0632,6.969,6.969,6.969,6.9846,7.0443,7.0144,6.969,6.9663,6.9663,6.9663,6.9663,6.9663,6.9663,6.9663,6.9663,6.9663,6.969,6.969,6.969,6.969,6.969,6.969,6.969,6.969,6.969,6.969,6.969,6.9663,6.969,6.969,6.969,6.969,6.969,6.969,6.969,6.969,6.969,6.969,6.969,7.0008,7.0578,7.0578,7.0455,7.0185,7.0185,6.9671,4.3927,4.6329,4.7535,4.6156,4.3869,4.113,3.794,3.4583,3.1381,2.8655,2.7245,2.665,2.7211,2.7437,2.8407,3.1009,3.2039,3.3996,3.8396,4.3018,4.7543,5.175,5.7804,6.2184,6.3558,6.4994,6.5892,6.6082,6.6489,6.7078,6.7865,6.7892,6.7892,6.7892,6.7892,6.7892,6.7892,6.7892,6.7892,6.7892,6.7892,6.7892,6.7892,6.7892,6.7892,0.0,0.0,0.0,0.0,6.7892,6.7892,6.7892,6.7892,6.8516,6.9439,6.9628,7.0334,7.125,7.144,7.1494,7.1494,7.1494,7.1494,7.1494,7.1494,7.1222,7.0951,7.0951,7.0951,7.0877,7.066,7.047,7.0225,6.9799,6.969,6.969,6.969,6.969,6.969,6.969,6.969,6.9846,7.0253,7.0334,7.047,7.085,7.0951,7.0951,7.0951,7.0951,7.0951,7.0951,7.0951,7.0741,7.0361,7.0334,7.0497,7.0904,7.0951,7.0951,7.0951,7.0951,7.0951,7.0951,7.0951,7.1032,7.1222,7.1222,7.086,7.0192,6.9877,6.9382,3.9185,4.1883,4.3219,4.2057,4.0129,3.7907,3.5451,3.2753,3.0194,2.8209,2.7119,2.665,2.7211,2.7311,2.8106,3.0573,3.115,3.293,3.7649,4.2113,4.6932,5.2483,5.9611,6.3928,6.3488,6.5266,6.6354,6.6137,6.6652,6.7268,6.7865,6.7892,6.7892,6.7892,6.7892,6.7892,6.7892,6.7892,6.7892,6.7892,6.7892,6.7892,6.7892,6.7892,6.7892,0.0,0.0,0.0,0.0,6.7892,6.7892,6.7892,6.7892,6.8652,6.969,6.969,7.047,7.1494,7.1494,7.1494,7.1494,7.1494,7.1494,7.1494,7.1494,7.1494,7.1494,7.1494,7.1494,7.1412,7.106,7.0951,7.0822,7.047,7.0388,7.0388,7.0388,7.0388,7.0388,7.0388,7.0388,7.0497,7.085,7.0951,7.1087,7.144,7.1494,7.1494,7.1494,7.1494,7.1494,7.1494,7.1494,7.1358,7.0978,7.0951,7.1114,7.1467,7.1494,7.1494,7.1494,7.1494,7.1494,7.1494,7.1494,7.1494,7.1494,7.1366,7.1153,7.0831,7.0187,6.9774,0.0,3.8306,4.076,4.0414,3.8124,3.5631,3.4321,3.1337,0.0,2.7503,2.6868,2.6675,2.7261,2.7361,2.7754,2.8947,2.9669,3.201,3.754,4.0831,4.5462,5.2949,5.8173,6.0791,5.9753,6.4091,6.6706,6.6218,6.6679,6.7268,6.7865,6.7892,6.7892,6.7892,6.7892,6.7892,6.7892,6.7892,6.7892,6.7892,6.7892,6.7892,6.7892,6.7892,6.7892,0.0,0.0,0.0,0.0,6.7892,6.7892,6.7892,6.7892,6.8652,6.969,6.969,7.047,7.1494,7.1494,7.1494,7.1494,7.1494,7.1494,7.1494,7.1494,7.1494,7.1494,7.1494,7.1494,7.1494,7.1494,7.1494,7.1494,7.1494,7.1494,7.1494,7.1494,7.1494,7.1494,7.1494,7.1494,7.1494,7.1494,7.1494,7.1494,7.1494,7.1548,7.1548,7.1548,7.1548,7.1575,7.163,7.1575,7.1575,7.163,7.1548,7.1521,7.1548,7.1521,7.1521,7.1548,7.1548,7.1548,7.1548,7.1602,7.163,7.163,7.1312,7.1412,7.1882,7.1062,7.0662,2.9148,0.0,3.248,3.194,3.123,3.0594,0.0,2.9214,2.8088,2.7437,2.6868,2.6801,2.7754,2.7921,2.8665,3.105,3.229,3.4456,3.882,4.6845,5.4928,6.213,6.4118,6.4921,6.5129,6.5845,6.6435,6.676,6.6923,6.7268,6.7865,6.7892,6.7892,6.7892,6.7892,6.7892,6.7892,6.7892,6.7892,6.7892,6.7892,6.7892,6.7892,6.7892,6.7892,0.0,0.0,0.0,6.7892,6.7892,6.7892,6.7892,6.7892,6.8652,6.969,6.969,7.047,7.1494,7.1494,7.1494,7.1494,7.1494,7.1494,7.1494,7.1494,7.1494,7.1494,7.1494,7.1494,7.1494,7.1494,7.1494,7.1494,7.1494,7.1494,7.1494,7.1494,7.1494,7.1494,7.1494,7.1494,7.1494,7.1494,7.1494,7.1494,7.1494,7.1874,7.2193,7.2193,7.2193,7.2383,7.283,7.2471,7.2362,7.283,7.2037,7.1684,7.2166,7.1765,7.1711,7.2166,7.2193,7.2193,7.2193,7.2634,7.2858,7.2858,7.2787,7.2465,7.1903,7.1692,7.1253,2.6918,2.8341,2.9704,2.9393,2.9308,2.9233,2.8947,2.8288,2.7578,2.7043,2.67,2.6742,2.7578,2.7921,2.8841,3.11,3.3077,3.6921,4.4386,5.2845,6.024,6.5476,6.6598,6.695,0.0,6.695,6.695,6.6977,6.7268,6.7566,6.7865,6.7892,6.7892,6.7892,6.7892,6.7892,6.7892,6.7892,6.7892,6.7892,6.7892,6.7892,6.7892,6.7892,6.7892,0.0,0.0,0.0,6.7892,6.7892,6.7892,6.7892,6.7892,6.8652,6.969,6.969,7.047,7.1494,7.1494,7.1494,7.1494,7.1494,7.1494,7.1494,7.1494,7.1494,7.1494,7.1494,7.1494,7.1494,7.1494,7.1494,7.1494,7.1494,7.1494,7.1494,7.1494,7.1494,7.1575,7.1847,7.1901,7.1901,7.1901,7.2145,7.2145,7.1575,7.2254,7.2715,7.2437,7.2634,7.2932,7.3265,7.3014,7.296,7.3265,7.2695,7.2471,7.2797,7.2525,7.2471,7.2797,7.2824,7.2824,7.2824,7.3129,7.3324,7.3407,7.3198,7.2822,7.2404,7.2169,7.1831,2.6767,2.8616,3.0308,2.9682,2.9654,2.9628,2.9032,2.8188,2.7378,2.6842,2.6742,2.6968,2.7654,2.8247,2.9315,3.1418,3.4724,4.0725,5.1255,5.786,6.2746,6.5865,6.7213,6.7702,6.7186,6.7593,6.7675,6.7186,6.762,6.7892,6.7892,6.7892,6.7892,6.7892,6.7892,6.7892,6.7892,6.7892,6.7892,6.7892,6.7892,6.7892,6.7892,6.7892,6.7892,0.0,0.0,0.0,6.7892,6.7892,6.7892,6.7892,6.7892,6.8652,6.969,6.969,7.047,7.1494,7.1494,7.1494,7.1494,7.1494,7.1494,7.1494,7.1494,7.1494,7.1494,7.1494,7.1494,7.1494,7.1494,7.1494,7.1494,7.1494,7.1494,7.1494,7.1494,7.1575,7.1792,7.2301,7.241,7.2437,7.2525,7.2824,7.2722,7.1901,7.2661,7.3129,7.2736,7.3122,7.3455,7.3536,7.3482,7.3455,7.3563,7.3563,7.3563,7.3563,7.34,7.3346,7.3427,7.3427,7.3482,7.3563,7.3501,7.3515,7.3643,7.3176,7.2946,7.2991,7.2603,7.2363,2.8012,3.0882,3.2557,2.9208,2.9076,2.9628,2.9032,2.8772,2.8505,2.7971,2.7846,2.8323,2.982,3.0532,3.2247,3.6431,4.2782,4.9174,5.4927,5.9123,6.2926,6.6435,6.7485,6.7865,6.7756,6.7838,6.7865,6.7756,6.7838,6.7892,6.7892,6.7892,6.7892,6.7892,6.7892,6.7892,6.7892,6.7892,6.7892,6.7892,6.7892,6.7892,6.7892,6.7892,6.7892,0.0,0.0,6.7892,6.7892,6.7892,6.7892,6.7892,6.7892,6.8652,6.969,6.969,7.047,7.1494,7.1494,7.1494,7.1494,7.1494,7.1494,7.1494,7.1494,7.1494,7.1494,7.1494,7.1494,7.1494,7.1494,7.1494,7.1494,7.1494,7.1494,7.1494,7.1494,7.1901,7.2301,7.2383,7.241,7.2552,7.3075,7.239,7.2064,7.2885,7.3183,7.3455,7.3882,7.4018,7.4241,7.4682,7.4323,7.4241,7.4682,7.4736,7.4736,7.4736,7.3834,7.3536,7.4045,7.4072,7.4269,7.4709,7.4403,7.4223,7.4267,7.3791,7.3366,7.3012,7.2925,7.2664,2.7336,2.9394,3.1186,3.0933,3.2818,3.4527,3.3596,3.2946,3.2189,3.1049,3.0537,3.0456,3.0934,3.3009,3.6982,4.4098,4.8939,5.3524,5.8499,6.144,6.4039,6.6698,0.0,6.7892,6.7892,6.7892,6.7892,6.7892,6.7892,6.7892,6.7892,6.7892,6.7892,6.7892,6.7892,6.7892,6.7892,6.7892,6.7892,6.7892,6.7892,6.7892,6.7892,6.7892,6.7892,6.7892,0.0,6.7892,6.7892,6.7892,6.7892,6.7892,6.7892,6.8652,6.9772,7.0415,7.1032,7.1494,7.1494,7.1494,7.1494,7.1494,7.1494,7.1494,7.1494,7.1494,7.1494,7.1494,7.1494,7.1494,7.1494,7.1494,7.1494,7.1494,7.1494,7.1575,7.1901,7.222,7.26,7.3252,7.3367,7.3448,7.3747,7.3563,7.3373,7.3319,7.3834,7.4214,7.4208,7.4431,7.473,7.498,7.4784,7.473,7.498,7.5007,7.5007,7.5007,7.4492,7.435,7.4621,7.4621,7.463,7.4694,7.4481,7.4139,7.3645,7.3424,7.3077,7.2625,7.2625,7.2516,2.7102,2.8458,3.03,3.2741,3.5206,3.7209,3.7884,3.6781,3.5518,3.5182,3.4754,3.4175,3.332,3.6802,4.2264,4.9762,5.3485,5.7038,6.1599,6.355,6.5178,6.6996,6.762,6.7892,6.7892,6.7892,6.7892,6.7892,6.7892,6.7892,6.7892,6.7892,6.7892,6.7892,6.7756,6.7756,6.7892,6.7756,6.7756,6.7892,6.7892,6.7892,6.7892,6.7892,6.7892,6.7892,6.7892,6.7892,6.7892,6.7892,6.7892,6.7892,6.7892,6.8652,6.9846,7.106,7.1494,7.1494,7.1494,7.1494,7.1494,7.1494,7.1494,7.1494,7.1494,7.1494,7.1494,7.1494,7.1494,7.1494,7.1494,7.1494,7.1548,7.1684,7.1711,7.1874,7.2471,7.2715,7.3095,7.4018,7.4208,7.4235,7.4371,7.4513,7.4404,7.3807,7.435,7.4703,7.4404,7.4757,7.5007,7.5007,7.5007,7.5007,7.5007,7.5007,7.5007,7.5007,7.5007,7.5007,7.5007,7.5007,7.4795,7.4423,7.4294,7.3838,7.3012,7.2882,7.2669,7.2297,7.2297,7.2297,2.8859,3.0779,3.2338,3.356,3.2515,3.283,3.9116,3.8034,3.6723,4.035,4.1041,4.0477,3.8781,4.3114,4.7679,4.992,5.5902,6.1199,6.3767,6.469,6.5802,6.762,6.7865,6.7892,6.7892,6.7892,6.7892,6.7892,6.7892,0.0,6.7892,6.7892,6.7892,6.7892,6.7376,6.7322,6.7892,6.7349,6.7349,6.7892,6.7892,6.7892,6.7892,6.7892,6.7892,6.7892,6.7892,6.7892,6.7892,6.7892,6.7892,6.7892,6.7892,6.8652,6.9846,7.106,7.1494,7.1494,7.1494,7.1494,7.1494,7.1494,7.1494,7.1494,7.1494,7.1494,7.1494,7.1494,7.1494,7.1494,7.1494,7.1494,7.163,7.222,7.2356,7.2498,7.3102,7.3692,7.41,7.4181,7.4208,7.4371,7.4866,7.4106,7.3753,7.4709,7.4513,7.4404,7.4872,7.498,7.5007,7.5007,7.5007,7.5007,7.5007,7.5007,7.5007,7.5007,7.5007,7.5007,7.5007,7.5007,7.4795,7.4423,7.3967,7.3515,7.3012,7.256,7.2319,7.2297,7.2297,7.2297,2.7864,3.0241,3.2656,3.4106,3.4604,3.6198,4.1619,4.2662,4.313,4.5462,4.5942,4.5501,4.411,4.7122,5.0759,5.3591,5.812,6.2248,6.5024,6.5938,6.6698,6.7756,6.7892,6.7892,6.7892,6.7892,6.7892,6.7892,6.7892,0.0,6.7892,6.7892,6.7892,6.7892,6.7675,6.7485,6.7349,6.7485,6.7485,6.7349,6.7729,6.7892,6.7892,6.7892,6.7892,6.7892,6.7892,6.7892,6.7892,6.7892,6.7892,6.7973,6.8733,6.9303,6.9846,7.106,7.1494,7.1494,7.1494,7.1494,7.1494,7.1494,7.1494,7.1494,7.1494,7.1494,7.1494,7.1494,7.1494,7.1494,7.1494,7.1765,7.2138,7.2356,7.2688,7.3122,7.3747,7.4045,7.4317,7.4621,7.4703,7.4757,7.4953,7.4627,7.4492,7.4926,7.4817,7.4784,7.498,7.5007,7.5007,7.5007,7.5007,7.5007,7.5007,7.5007,7.5007,7.5007,7.5007,7.5007,7.5007,7.5007,7.4795,7.4423,7.423,7.3752,7.3012,7.2817,7.2761,7.2794,7.2454,7.248,2.7245,2.9091,3.1535,3.3941,3.5959,3.8811,4.4475,4.6102,4.7328,5.0576,5.0503,4.9628,4.8827,5.0602,5.3128,5.5928,5.9791,6.3315,6.5757,6.6625,6.7213,6.7838,6.7892,6.7892,6.7892,6.7892,6.7892,6.7892,6.7892,0.0,0.0,6.7892,6.7892,6.7892,6.7729,6.7431,6.6977,6.7213,6.7132,6.6706,6.7322,6.7729,6.7892,6.7892,6.7892,6.7892,6.7892,6.7892,6.7892,6.7892,6.7892,6.8028,6.9221,6.969,6.9846,7.106,7.1494,7.1494,7.1494,7.1494,7.1494,7.1494,7.1494,7.1494,7.1494,7.1494,7.1494,7.1494,7.1494,7.1548,7.1738,7.2111,7.2491,7.2899,7.3285,7.3726,7.4323,7.4431,7.4567,7.4926,7.5007,7.5007,7.5007,7.5007,7.5007,7.5007,7.5007,7.5007,7.5007,7.5007,7.5007,7.5007,7.5007,7.5007,7.5007,7.5007,7.5007,7.5007,7.5007,7.5007,7.5007,7.5007,7.4795,7.4423,7.4401,7.401,7.3207,7.3207,7.318,7.3067,7.2883,7.2795,2.7437,2.7704,2.911,3.3045,3.5757,3.9583,4.7611,4.7683,4.8195,5.5697,5.4909,5.2857,5.283,5.382,5.5013,5.6196,6.0833,6.4699,6.5947,6.6625,6.7241,6.7838,6.7892,6.7892,6.7892,6.7892,6.7892,6.7892,6.7892,0.0,0.0,6.7892,6.7892,6.7892,6.7322,6.6977,6.6977,6.6408,6.6109,6.6109,6.6706,6.7322,6.7892,6.7892,6.7892,6.7892,6.7892,6.7892,6.7892,6.7892,6.7892,6.8028,6.9202,6.969,6.9846,7.106,7.1494,7.1494,7.1494,7.1494,7.1494,7.1494,7.1494,7.1494,7.1494,7.1494,7.1494,7.1494,7.1494,7.163,7.2247,7.241,7.2709,7.391,7.4208,7.4371,7.4893,7.5007,7.5007,7.5007,7.5007,7.5007,7.5007,7.5007,7.5007,7.5007,7.5007,7.5007,7.5007,7.5007,7.5007,7.5007,7.5007,7.5007,7.5007,7.5007,7.5007,7.5007,7.5007,7.5007,7.5007,7.5007,7.4795,7.4423,7.4423,7.4187,7.3709,7.3709,7.3472,7.3039,7.3576,7.3286,2.6868,2.9986,3.3663,3.4895,3.9854,4.5634,5.0182,5.1356,5.317,5.9091,5.8956,5.7039,5.4541,5.6407,0.0,5.6609,6.0833,6.4699,6.5947,6.6977,6.7702,6.7865,6.7892,6.7892,6.7892,6.7892,6.7892,6.7892,0.0,0.0,0.0,6.7892,6.7892,6.7892,6.7322,6.6788,6.6381,6.6191,6.6109,6.6109,6.6706,6.7105,6.7295,6.7702,6.7892,6.7892,6.7892,6.7892,6.7892,6.7892,6.7892,6.7973,6.878,6.933,6.9772,7.0578,7.1141,7.1494,7.1494,7.1494,7.1494,7.1494,7.1494,7.1494,7.1494,7.1494,7.1494,7.1494,7.1494,7.1738,7.277,7.3041,7.3231,7.4018,7.4486,7.4811,7.4953,7.5007,7.5007,7.5007,7.5007,7.5007,7.5007,7.5007,7.5007,7.5007,7.5007,7.5007,7.5007,7.5007,7.5007,7.5007,7.5007,7.5007,7.5007,7.5007,7.5007,7.5007,7.5007,7.5007,7.5007,7.5007,7.4944,7.4816,7.4816,7.463,7.4209,7.4209,7.4352,7.4667,7.4077,7.4094,2.8584,3.1975,3.6005,3.8991,4.3817,4.9181,5.4335,5.6214,5.7859,6.1256,6.1217,5.9938,5.7765,5.9143,0.0,5.9005,6.2307,6.5268,6.6001,6.7159,6.7892,6.7892,6.7892,6.7892,6.7892,6.7892,6.7892,6.7892,0.0,0.0,0.0,6.7892,6.7892,6.7892,6.7539,6.7078,6.6462,6.6218,6.6109,6.6109,6.6237,6.6427,6.6679,6.7512,6.7892,6.7892,6.7892,6.7892,6.7892,6.7892,6.7892,6.7946,6.8562,6.9024,6.9439,7.028,7.0822,7.1195,7.1412,7.1494,7.1494,7.1494,7.1494,7.1494,7.1494,7.1494,7.1494,7.1494,7.1494,7.1792,7.2993,7.3292,7.3509,7.4323,7.4763,7.5007,7.5007,7.5007,7.5007,7.5007,7.5007,7.5007,7.5007,7.5007,7.5007,7.5007,7.5007,7.5007,7.5007,7.5007,7.5007,7.5007,7.5007,7.5007,7.5007,7.5007,7.5007,7.5007,7.5007,7.5007,7.5007,7.5007,7.5007,7.5007,7.5007,7.488,7.463,7.4895,7.5117,7.5363,7.5158,7.5145,3.1389,3.371,3.7104,4.4154,4.7658,5.1387,5.9131,6.1288,6.1878,6.2538,6.223,6.1814,6.1688,6.1786,6.1986,6.243,6.4464,6.6028,6.6028,6.7051,6.781,6.781,6.7865,6.7892,6.7892,6.7892,6.7892,6.7892,0.0,0.0,0.0,6.7892,6.7892,6.7892,6.7838,6.7539,6.7005,6.6408,6.6137,6.6164,6.5585,6.5613,6.6218,6.7322,6.7838,6.7892,6.7892,6.7892,6.7892,6.7892,6.7892,6.7946,6.8508,6.8752,6.8942,7.0008,7.0497,7.0687,7.1222,7.144,7.1494,7.1494,7.1494,7.1494,7.1494,7.1494,7.1494,7.1494,7.1494,7.1792,7.2993,7.3292,7.359,7.4709,7.5007,7.5007,7.5007,7.5007,7.5007,7.5007,7.5007,7.5007,7.5007,7.5007,7.5007,7.5007,7.5007,7.5007,7.5007,7.5007,7.5007,7.5007,7.5007,7.5007,7.5007,7.5007,7.5007,7.5007,7.5007,7.5007,7.5007,7.5007,7.5007,7.5007,7.5007,7.5007,7.5007,7.5571,7.5682,7.5456,7.6467,7.6201,3.0296,3.511,4.1012,4.4924,5.0993,5.6984,6.0603,6.1878,6.2592,6.3695,6.3804,6.3424,6.2484,6.3071,6.3451,6.2619,6.4129,6.5395,6.5395,6.6427,6.7186,6.7186,6.762,6.7892,6.7892,6.7892,6.7892,6.7892,0.0,0.0,6.7892,6.7892,6.7892,6.7892,6.7431,6.7132,6.6977,6.6408,6.6354,0.0,6.6191,6.6218,6.6815,6.7078,6.7458,6.7892,6.7892,6.7892,6.7892,6.7892,6.7892,6.7892,6.8028,6.8372,6.8834,6.9105,6.9784,7.0605,7.0741,7.1114,7.1494,7.1494,7.1494,7.1494,7.1494,7.1494,7.1494,7.1494,7.1494,7.1792,7.2993,7.3292,7.359,7.4709,7.5007,7.5007,7.5007,7.5007,7.5007,7.5007,7.5007,7.5007,7.5007,7.5007,7.5007,7.5007,7.5007,7.5007,7.5007,7.5007,7.5007,7.5007,7.5007,7.5007,7.5007,7.5007,7.5007,7.5007,7.5007,7.5007,7.5007,7.5007,7.5007,7.5007,7.5007,7.5007,7.5007,7.5116,7.5643,7.6483,7.6356,7.6431,3.2557,3.7221,4.2728,4.9264,5.4743,5.9062,6.1135,6.2067,6.2755,6.3668,6.4102,6.4102,6.3478,6.3885,6.4075,6.3478,6.4419,6.5178,6.5178,6.5992,6.6679,6.695,6.7295,6.7566,6.7865,6.7892,6.7892,6.7892,0.0,6.7892,6.7892,6.7892,6.7892,6.7892,6.7593,6.7431,6.7431,6.6815,6.6815,6.7431,6.6516,6.6272,6.6571,6.6869,6.7186,6.7485,6.7756,6.7892,6.7892,6.7892,6.7892,6.7892,6.7892,6.8101,6.84,6.8698,6.9377,7.0225,7.0497,7.1005,7.1494,7.1494,7.1494,7.1494,7.1494,7.1494,7.1494,7.1494,7.1494,7.1792,7.2993,7.3292,7.359,7.4709,7.5007,7.5007,7.5007,7.5007,7.5007,7.5007,7.5007,7.5007,7.5007,7.5007,7.5007,7.5007,7.5007,7.5007,7.5007,7.5007,7.5007,7.5007,7.5007,7.5007,7.5007,7.5007,7.5007,7.5007,7.5007,7.5007,7.5007,7.5007,7.5007,7.5007,7.5007,7.5007,7.5007,7.5577,7.6201,7.6803,7.7153,7.7261,3.4271,3.8749,4.4079,5.3978,5.7743,5.9453,6.1217,6.2067,6.2674,6.3288,6.3885,6.431,6.431,6.431,6.431,6.431,6.4717,6.5043,6.5043,6.554,6.6137,6.6644,6.6779,6.7051,6.7539,6.7675,6.7702,6.7593,0.0,6.7838,6.7756,6.7729,6.7783,6.7892,6.7702,6.7675,6.7892,6.7295,6.7295,6.7892,6.6788,6.6218,6.6137,6.6706,6.6977,6.7051,6.7648,6.7892,6.7892,6.7892,6.7892,6.7892,6.7892,6.7892,6.7946,6.8454,6.9086,6.9772,7.028,7.0904,7.1494,7.1494,7.1494,7.1494,7.1494,7.1494,7.1494,7.1494,7.1494,7.1792,7.2993,7.3292,7.359,7.4709,7.5007,7.5007,7.5007,7.5007,7.5007,7.5007,7.5007,7.5007,7.5007,7.5007,7.5007,7.5007,7.5007,7.5007,7.5007,7.5007,7.5007,7.5007,7.5007,7.5007,7.5007,7.5007,7.5007,7.5007,7.5007,7.5007,7.5007,7.5007,7.5007,7.5007,7.5007,7.5034,7.5143,7.6174,7.677,7.6987,7.7964,7.8035,2.9702,3.7555,4.7203,5.5115,5.8042,5.9453,6.1217,6.2067,6.2674,6.3288,6.3885,6.431,6.431,6.431,6.431,6.431,6.4364,6.4419,6.4419,6.4934,6.5341,6.5423,6.5892,6.6245,6.6326,6.6815,6.6896,6.6381,6.7322,6.7675,6.7159,6.7132,6.7376,6.7865,6.6896,6.6842,6.7892,6.7295,6.7295,6.7892,6.7213,6.6598,6.6137,6.6706,6.6977,6.7051,6.7648,6.7892,6.7892,6.7892,6.7892,6.7892,6.7892,6.7892,6.7892,6.7973,6.8733,6.969,6.9772,7.0551,7.1494,7.1494,7.1494,7.1494,7.1494,7.1494,7.1494,7.1494,7.1494,7.1792,7.2993,7.3292,7.359,7.4709,7.5007,7.5007,7.5007,7.5007,7.5007,7.5007,7.5007,7.5007,7.5007,7.5007,7.5007,7.5007,7.5007,7.5007,7.5007,7.5007,7.5007,7.5007,7.5007,7.5007,7.5007,7.5007,7.5007,7.5007,7.5007,7.5007,7.5007,7.5007,7.5007,7.5007,7.5007,7.5251,7.5788,7.5951,7.6575,7.7584,7.7747,7.7812,3.3456,4.0676,4.8092,5.4979,5.7597,5.8872,6.0321,6.1352,6.2176,6.2755,6.3397,6.3885,6.4256,6.431,6.431,6.431,6.431,6.431,6.431,6.4527,6.4826,6.5151,6.5423,6.573,6.6082,6.6354,6.6381,6.6137,6.6598,6.6788,6.6516,6.6489,6.6625,6.6869,6.6381,6.6354,6.6896,6.6625,6.6788,6.7403,6.7458,6.7186,6.6625,6.7241,6.7322,6.7051,6.7648,6.7892,6.7892,6.7892,6.7892,6.7892,6.7892,6.7892,6.7892,6.7892,6.8652,6.969,6.969,7.0497,7.1494,7.1494,7.1494,7.1494,7.1494,7.1494,7.1494,7.1494,7.1494,7.1711,7.258,7.3068,7.3482,7.4214,7.4703,7.5007,7.5007,7.5007,7.5007,7.5007,7.5007,7.5007,7.5007,7.5007,7.5007,7.5007,7.5007,7.5007,7.5007,7.5007,7.5007,7.5007,7.5007,7.5007,7.5007,7.5007,7.5007,7.5007,7.5007,7.5007,7.5007,7.5306,7.5333,7.5007,7.5333,7.5625,7.5897,7.6602,7.7177,7.772,7.8045,7.81,3.5418,4.0757,4.5341,5.2713,5.5675,5.7304,5.9219,6.0674,6.1732,6.2176,6.2863,6.3532,6.3993,6.4183,6.431,6.431,6.431,6.431,6.431,6.431,6.4473,6.4907,6.4961,6.5151,6.5594,6.5784,6.5811,6.5648,6.5947,6.6028,6.5865,6.5865,6.5947,6.6109,6.5811,6.5784,6.6109,6.6109,6.6408,6.7005,6.7458,6.7512,6.7241,6.7675,6.7648,6.7268,6.7702,6.7892,6.7892,6.7892,6.7892,6.7892,6.7892,6.7892,6.7892,6.7892,6.857,6.9493,6.9656,7.0388,7.1304,7.144,7.1494,7.1494,7.1494,7.1494,7.1494,7.1494,7.1494,7.163,7.2247,7.2851,7.34,7.3882,7.4513,7.5007,7.5007,7.5007,7.5007,7.5007,7.5007,7.5007,7.5007,7.5007,7.5007,7.5007,7.5007,7.5007,7.5007,7.5007,7.5007,7.5007,7.5007,7.5007,7.5007,7.5007,7.5007,7.5007,7.5143,7.5224,7.5224,7.5815,7.5902,7.5468,7.6038,7.6277,7.6119,7.7177,7.7774,7.7937,7.8393,7.841,3.0893,3.3747,3.7172,4.7239,5.1481,5.4219,5.816,6.0375,6.1624,6.1651,6.2583,6.3424,6.3451,6.3912,6.431,6.431,6.431,6.431,6.431,6.431,6.431,6.4337,6.4364,6.4364,6.4373,6.4907,6.5016,6.4446,6.5458,6.5838,6.5287,6.5233,6.5504,6.6082,6.4997,6.4943,6.6109,6.6109,6.6408,6.6977,6.7051,6.7322,6.7838,6.7892,6.7865,6.7838,6.7892,6.7892,6.7892,6.7892,6.7892,6.7892,6.7892,6.7892,6.7892,6.7892,6.8318,6.8942,6.9493,7.0117,7.0741,7.1304,7.1494,7.1494,7.1494,7.1494,7.1494,7.1494,7.1494,7.163,7.2247,7.2851,7.3455,7.4045,7.4594,7.5007,7.5007,7.5007,7.5007,7.5007,7.5007,7.5007,7.5007,7.5007,7.5007,7.5007,7.5007,7.5007,7.5007,7.5007,7.5007,7.5007,7.5007,7.5007,7.5007,7.5007,7.5007,7.5007,7.5544,7.5842,7.5842,7.6418,7.6743,7.6716,7.7313,7.7313,7.6749,7.7394,7.7991,7.8556,7.8583,7.8588,2.9444,3.2653,3.6203,4.2863,4.7892,5.1803,5.3997,5.7612,6.0637,6.1017,6.1705,6.2366,6.2755,6.3641,6.431,6.431,6.431,6.431,6.431,6.431,6.431,6.431,6.431,6.431,6.431,6.45,6.4527,6.4337,0.0,6.4834,6.4636,6.4609,6.4717,6.4943,6.4527,6.4527,6.4943,6.5341,6.583,6.6435,6.6815,6.7322,6.7892,6.7892,6.7892,6.7892,6.7892,6.7892,6.7892,6.7892,6.7892,6.7892,6.7892,6.7892,6.7892,6.7892,6.8291,6.8888,6.9493,7.0117,7.0687,7.1304,7.1494,7.1494,7.1494,7.1494,7.1494,7.1494,7.1494,7.163,7.2247,7.2851,7.3536,7.4486,7.4866,7.5007,7.5007,7.5007,7.5007,7.5007,7.5007,7.5007,7.5007,7.5007,7.5007,7.5007,7.5007,7.5007,7.5007,7.5007,7.5007,7.5007,7.5007,7.5007,7.5007,7.5007,7.5224,7.5734,7.5842,7.6087,7.6472,7.7069,7.7204,7.6803,7.7774,7.7964,7.7394,7.7964,7.8393,7.861,7.861,7.861,2.6892,2.9938,3.357,3.8731,4.2895,4.6832,5.1023,5.4728,5.784,5.9806,6.08,6.1515,6.2095,6.3017,6.3749,6.3966,6.3993,6.4075,6.4283,6.431,6.431,6.431,6.431,6.431,6.431,6.431,6.431,6.431,0.0,0.0,6.431,6.431,6.431,6.431,6.431,6.431,6.431,6.469,6.5205,6.5811,6.6408,6.7005,6.7593,6.781,6.7892,6.7892,6.7892,6.7892,6.7892,6.7892,6.7892,6.7892,6.7892,6.7892,6.7892,6.7892,6.8155,6.8617,6.9439,6.9954,7.0415,7.125,7.1494,7.1494,7.1494,7.1494,7.1494,7.1494,7.1494,7.163,7.2247,7.2987,7.3834,7.4763,7.5007,7.5007,7.5007,7.5007,7.5007,7.5007,7.5007,7.5007,7.5007,7.5007,7.5007,7.5007,7.5007,7.5007,7.5007,7.5007,7.5007,7.5007,7.5007,7.5007,7.5007,7.5007,7.5333,7.6141,7.6195,7.6472,7.7096,7.7666,7.7801,7.7421,7.8203,7.842,7.7991,7.842,7.861,7.861,7.861,7.861,0.0,0.0,0.0,3.4735,3.6447,3.9235,4.9176,5.1618,5.3132,5.7808,5.9724,6.0745,6.1434,6.204,6.2647,6.3261,6.337,6.3587,6.4156,6.4256,6.4256,6.4256,6.4256,6.4256,6.4256,6.4256,6.4283,6.4283,6.431,6.431,6.431,6.431,6.431,6.431,6.431,6.431,6.431,6.431,6.4609,6.5205,6.5811,6.6408,6.7024,6.762,6.7892,6.7892,6.7892,6.7892,6.7892,6.7892,6.7892,6.7892,6.7892,6.7892,6.7892,6.7892,6.7892,6.8055,6.9276,6.969,6.99,7.1114,7.1494,7.1494,7.1494,7.1494,7.1494,7.1494,7.1494,7.163,7.2274,7.3312,7.4371,7.4893,7.5007,7.5007,7.5007,7.5007,7.5007,7.5007,7.5007,7.5007,7.5007,7.5007,7.5007,7.5007,7.5007,7.5007,7.5007,7.5007,7.5007,7.5007,7.5007,7.5007,7.5007,7.5007,7.5333,7.6168,7.6581,7.7096,7.7693,7.8312,7.861,7.861,7.861,7.861,7.861,7.861,7.861,7.861,7.861,7.861,2.3863,0.0,0.0,0.0,0.0,0.0,3.953,4.2869,4.6822,5.2257,5.4005,5.5775,5.9663,6.0864,6.1434,6.2031,6.2474,6.2809,6.2972,6.2999,6.2999,6.2999,6.2999,6.2999,6.2999,6.3397,6.3641,0.0,6.4048,6.431,6.431,6.431,6.431,6.431,6.431,6.431,6.431,6.431,6.4609,6.5205,6.5811,6.6408,6.7024,6.762,6.7892,6.7892,6.7892,6.7892,6.7892,6.7892,6.7892,6.7892,6.7892,6.7892,6.7892,6.7892,6.7892,6.8055,6.9276,6.969,6.99,7.1114,7.1494,7.1494,7.1494,7.1494,7.1494,7.1494,7.1494,7.1738,7.2797,7.3916,7.4838,7.4953,7.5007,7.5007,7.5007,7.5007,7.5007,7.5007,7.5007,7.5007,7.5007,7.5007,7.5007,7.5007,7.5007,7.5007,7.5007,7.5007,7.5007,7.5007,7.5007,7.5007,7.5007,7.5007,7.5468,7.6553,7.6743,7.7286,7.8312,7.8502,7.861,7.861,7.861,7.861,7.861,7.861,7.861,7.861,7.861,7.861,0.0,0.0,0.0,0.0,0.0,0.0,3.7516,4.0299,4.3987,5.1118,5.3084,5.4619,5.8134,5.9252,5.985,6.043,6.1009,6.1688,6.2402,6.2511,6.2511,6.2511,6.2511,6.2511,6.2511,6.2809,6.3026,6.3026,6.337,6.3668,6.3912,6.4156,6.431,6.431,6.431,6.431,6.431,6.431,6.4473,6.4826,6.545,6.6028,6.6625,6.7268,6.7648,6.7892,6.7892,6.7892,6.7892,6.7892,6.7892,6.7892,6.7892,6.7892,6.7892,6.7892,6.7892,6.8055,6.9276,6.969,6.99,7.1114,7.1494,7.1494,7.1494,7.1494,7.1494,7.1494,7.1874,7.2417,7.3129,7.416,7.5007,7.5007,7.5007,7.5007,7.5007,7.5007,7.5007,7.5007,7.5007,7.5007,7.5007,7.5007,7.5007,7.5007,7.5007,7.5007,7.5007,7.5007,7.5007,7.5007,7.5007,7.5089,7.5333,7.536,7.5875,7.7096,7.7177,7.7611,7.8556,7.861,7.861,7.861,7.861,7.861,7.861,7.861,7.861,7.861,7.861,7.861,2.5737,2.6774,0.0,0.0,0.0,0.0,3.8742,4.0223,4.2163,5.0669,5.2935,5.3924,5.5555,5.6465,5.7071,5.7488,5.8485,5.9945,6.2023,6.2321,6.2321,6.2321,6.2321,6.2321,6.2321,6.2375,6.2402,6.2402,6.2457,6.2728,6.3288,6.3858,6.4183,6.4183,6.4283,6.431,6.431,6.431,6.431,6.431,6.4907,6.5531,6.6137,6.6706,6.7322,6.7892,6.7892,6.7892,6.7892,6.7892,6.7892,6.7892,6.7892,6.7892,6.7892,6.7892,6.7946,6.8163,6.9303,6.9744,7.0008,7.1141,7.1494,7.1494,7.1494,7.1494,7.1494,7.1494,7.2335,7.321,7.3265,7.4106,7.4926,7.498,7.5007,7.5007,7.5007,7.5007,7.5007,7.5007,7.5007,7.5007,7.5007,7.5007,7.5007,7.5007,7.5007,7.5007,7.5007,7.5007,7.5007,7.5007,7.5007,7.5224,7.5761,7.5815,7.6331,7.753,7.7611,7.7883,7.8583,7.861,7.861,7.861,7.861,7.861,7.861,7.861,7.861,7.861,7.861,7.861,2.8685,2.9082,2.9945,0.0,0.0,0.0,3.0396,3.1477,3.3913,3.8501,4.0267,4.2335,4.6736,4.873,4.9486,4.8732,5.2188,5.6429,6.0558,6.1125,6.1125,6.1125,6.1125,6.1125,6.1125,6.1515,6.1769,6.1769,6.2213,6.2565,6.2674,6.3261,6.3587,6.3587,6.4048,6.431,6.431,6.431,6.431,6.431,6.4907,6.5531,6.6137,6.6706,6.7322,6.7892,6.7892,6.7892,6.7892,6.7892,6.7892,6.7892,6.7892,6.7892,6.7892,6.7892,6.821,6.8725,6.9466,7.0036,7.0524,7.1277,7.1494,7.1494,7.1494,7.1494,7.1494,7.1494,7.201,7.2688,7.3156,7.3834,7.4459,7.492,7.5007,7.5007,7.5007,7.5007,7.5007,7.5007,7.5007,7.5007,7.5007,7.5007,7.5007,7.5007,7.5007,7.5007,7.5007,7.5007,7.5007,7.5007,7.5007,7.5034,7.517,7.517,7.5685,7.6884,7.6987,7.7449,7.8556,7.861,7.861,7.861,7.861,7.861,7.861,7.861,7.861,7.861,7.861,7.861,3.011,2.997,3.0588,3.0563,0.0,0.0,0.0,3.2092,3.351,3.7799,3.8722,3.9797,4.3215,4.4322,4.5009,4.5893,4.967,5.311,5.4862,5.7881,5.9904,5.9904,5.9904,6.0012,6.0311,6.0582,6.0864,6.118,6.1732,6.2067,6.2067,6.2908,6.3397,6.3397,6.3993,6.431,6.431,6.431,6.431,6.431,6.4609,6.5214,6.6109,6.6408,6.7051,6.7892,6.7892,6.7892,6.7892,6.7892,6.7892,6.7892,6.7892,6.7892,6.7892,6.7892,6.8101,6.8481,6.9384,6.99,7.0307,7.1222,7.1494,7.1494,7.1494,7.1494,7.1494,7.1494,7.1928,7.2546,7.3129,7.3753,7.4344,7.4872,7.5007,7.5007,7.5007,7.5007,7.5007,7.5007,7.5007,7.5007,7.5007,7.5007,7.5007,7.5007,7.5007,7.5007,7.5007,7.5007,7.5007,7.5007,7.5007,7.5007,7.5007,7.555,7.6282,7.7204,7.753,7.7964,7.8583,7.861,7.861,7.861,7.861,7.861,7.861,7.861,7.861,7.861,7.861,7.861,0.0,0.0,0.0,0.0,0.0,3.1882,0.0,0.0,0.0,3.8379,3.8626,3.8609,3.9961,4.0011,4.0559,4.2682,4.632,4.8491,4.7411,5.241,0.0,5.7087,5.8144,5.885,5.8885,5.8577,5.8952,6.0338,6.0145,6.0344,6.1244,6.2393,6.3098,6.3216,6.3804,6.4183,6.431,6.431,6.431,6.431,6.431,6.4916,6.6109,6.6109,6.676,6.7892,6.7892,6.7892,6.7892,6.7892,6.7892,6.7892,6.7892,6.7892,6.7892,6.7892,6.7973,6.8217,6.933,6.9772,7.0063,7.1168,7.1494,7.1494,7.1494,7.1494,7.1494,7.1494,7.1847,7.239,7.3102,7.3644,7.4187,7.4844,7.5007,7.5007,7.5007,7.5007,7.5007,7.5007,7.5007,7.5007,7.5007,7.5007,7.5007,7.5007,7.5007,7.5007,7.5007,7.5007,7.5007,7.5007,7.5007,7.5007,7.5007,7.5902,7.677,7.7476,7.7964,7.8366,7.8583,7.861,7.861,7.861,7.861,7.861,7.861,7.861,7.861,7.861,7.861,7.861,0.0,0.0,0.0,0.0,3.4687,0.0,0.0,0.0,3.2002,3.0645,0.0,0.0,0.0,0.0,0.0,0.0,0.0,0.0,3.9663,4.3257,4.7103,5.0113,5.5052,5.7418,5.5398,5.3846,5.471,5.8894,5.597,5.5761,5.987,6.1189,6.204,6.2592,6.3189,6.3749,6.431,6.431,6.431,6.431,6.431,6.4916,6.6109,6.6109,6.676,6.7892,6.7892,6.7892,6.7892,6.7892,6.7892,6.7892,6.7892,6.7892,6.7892,6.7892,6.8237,6.878,6.9466,7.0063,7.0605,7.1277,7.1494,7.1494,7.1494,7.1494,7.1494,7.1494,7.1548,7.1874,7.2993,7.3346,7.3672,7.4736,7.5007,7.5007,7.5007,7.5007,7.5007,7.5007,7.5007,7.5007,7.5007,7.5007,7.5007,7.5007,7.5007,7.5007,7.5007,7.5007,7.5007,7.5007,7.5007,7.5007,7.5007,7.5116,7.5685,7.683,7.6987,7.7476,7.8556,7.861,7.861,7.861,7.861,7.861,7.861,7.861,7.861,7.861,7.861,7.861,0.0,0.0,0.0,0.0,0.0,0.0,0.0,0.0,3.0623,0.0,0.0,0.0,0.0,0.0,0.0,0.0,3.4974,0.0,0.0,0.0,4.4217,0.0,0.0,0.0,5.1927,5.18,5.337,0.0,5.4548,5.4501,5.9138,6.0501,6.1569,6.2484,6.308,6.3695,6.431,6.431,6.431,6.431,6.4663,6.5268,6.6109,6.6462,6.7105,6.7892,6.7892,6.7892,6.7892,6.7892,6.7892,6.7892,6.7892,6.7892,6.7892,6.7892,6.8055,6.8427,6.9384,6.9873,7.0225,7.1195,7.1494,7.1494,7.1494,7.1494,7.1494,7.1494,7.1494,7.1792,7.2993,7.3292,7.359,7.4709,7.5007,7.5007,7.5007,7.5007,7.5007,7.5007,7.5007,7.5007,7.5007,7.5007,7.5007,7.5007,7.5007,7.5007,7.5007,7.5007,7.5007,7.5007,7.5007,7.5007,7.5007,7.5306,7.5761,7.6255,7.6933,7.772,7.8556,7.861,7.861,7.861,7.861,7.861,7.861,7.861,7.861,7.861,7.861,7.861,3.9137,0.0,0.0,0.0,0.0,0.0,0.0,0.0,0.0,0.0,0.0,0.0,0.0,0.0,0.0,0.0,0.0,3.5061,0.0,3.6602,0.0,0.0,0.0,0.0,0.0,4.8232,4.9846,5.5136,0.0,5.2322,5.8172,5.966,6.0854,6.2013,6.2773,6.3451,6.4048,6.421,6.431,6.431,6.4907,6.5531,6.6137,6.6706,6.7322,6.7892,6.7892,6.7892,6.7892,6.7892,6.7892,6.7892,6.7892,6.7892,6.7892,6.7892,6.7892,6.8055,6.9276,6.9927,7.0334,7.1222,7.1494,7.1494,7.1494,7.1494,7.1494,7.1494,7.1494,7.1792,7.2993,7.3292,7.359,7.4709,7.5007,7.5007,7.5007,7.5007,7.5007,7.5007,7.5007,7.5007,7.5007,7.5007,7.5007,7.5007,7.5007,7.5007,7.5007,7.5007,7.5007,7.5007,7.5007,7.5007,7.5007,7.5408,7.5788,7.6141,7.7123,7.7964,7.8583,7.861,7.861,7.861,7.861,7.861,7.861,7.861,7.861,7.861,7.861,7.861,0.0,0.0,0.0,0.0,0.0,0.0,0.0,0.0,3.2828,0.0,0.0,0.0,0.0,0.0,0.0,0.0,0.0,0.0,0.0,0.0,0.0,0.0,0.0,0.0,0.0,4.1589,4.2211,0.0,4.6619,0.0,5.6762,5.8395,5.9605,6.0817,6.1932,6.2809,6.3424,6.3993,6.431,6.431,6.4907,6.5531,6.6137,6.6706,6.7322,6.7892,6.7892,6.7892,6.7892,6.7892,6.7892,6.7892,6.7892,6.7892,6.7892,6.7892,6.7892,6.8055,6.9276,7.047,7.144,7.1494,7.1494,7.1494,7.1494,7.1494,7.1494,7.1494,7.1494,7.1792,7.2993,7.3292,7.359,7.4709,7.5007,7.5007,7.5007,7.5007,7.5007,7.5007,7.5007,7.5007,7.5007,7.5007,7.5007,7.5007,7.5007,7.5007,7.5007,7.5007,7.5007,7.5007,7.5007,7.5007,7.5007,7.5007,7.5523,7.6716,7.7367,7.7964,7.8583,7.861,7.861,7.861,7.861,7.861,7.861,7.861,7.861,7.861,7.861,7.861,0.0,0.0,5.0108,4.2619,0.0,0.0,0.0,0.0,0.0,0.0,0.0,0.0,0.0,0.0,0.0,0.0,0.0,0.0,0.0,0.0,0.0,0.0,0.0,0.0,0.0,0.0,0.0,4.8404,4.7198,0.0,5.565,5.7543,5.8954,6.0175,6.1715,6.2782,6.3397,6.3993,6.431,6.431,6.5323,6.5892,6.6137,6.7159,6.7702,6.7892,6.7892,6.7892,6.7892,6.7892,6.7892,6.7892,6.7892,6.7892,6.7892,6.7892,6.7892,6.8055,6.9276,7.0497,7.1494,7.1494,7.1494,7.1494,7.1494,7.1494,7.1494,7.1494,7.1494,7.1684,7.2498,7.3014,7.3482,7.4269,7.4757,7.5007,7.5007,7.5007,7.5007,7.5007,7.5007,7.5007,7.5007,7.5007,7.5007,7.5007,7.5007,7.5007,7.5007,7.5007,7.5007,7.5007,7.5007,7.5007,7.5007,7.5007,7.5523,7.6722,7.6987,7.7557,7.8556,7.861,7.861,7.861,7.861,7.861,7.861,7.861,7.861,7.861,7.861,7.861,5.1782,5.3499,0.0,0.0,4.6052,0.0,3.7579,0.0,0.0,0.0,0.0,0.0,0.0,0.0,0.0,0.0,0.0,0.0,0.0,2.7437,0.0,0.0,0.0,0.0,0.0,3.7384,4.0261,4.5914,4.5449,4.7442,0.0,0.0,5.8221,5.9225,6.1362,6.2701,6.308,6.3885,6.431,6.4292,6.5513,6.6109,6.6137,6.7349,6.7892,6.7892,6.7892,6.7892,6.7892,6.7892,6.7892,6.7892,6.7892,6.7892,6.7892,6.7892,6.8163,6.8679,6.9683,7.066,7.1494,7.1494,7.1494,7.1494,7.1494,7.1494,7.1494,7.1494,7.1494,7.163,7.2247,7.2851,7.3455,7.4072,7.4621,7.5007,7.5007,7.5007,7.5007,7.5007,7.5007,7.5007,7.5007,7.5007,7.5007,7.5007,7.5007,7.5007,7.5007,7.5007,7.5007,7.5007,7.5007,7.5007,7.5007,7.5007,7.5414,7.6418,7.6667,7.7259,7.8257,7.8502,7.861,7.861,7.861,7.861,7.861,7.861,7.861,7.861,7.861,7.861]}]]